[[{"header":{"parameterUnit":"m.s-1","parameterCategory":1,"la1":30.6,"la2":28.766,"lo1":-90.7593,"lo2":-88.6598,"dy":0.0162,"dx":0.0183,"nx":116,"ny":114,"refTime":"2023-09-18T12:00:00:Z","depth":0,"parameterNumber":2,"parameterNumberName":"U-component_of_WINDS"},"data":[0.0,0.0,0.0,0.0,0.0,0.0,0.0,0.0,0.0,0.0,0.0,0.0,0.0,0.0,0.0,0.0,0.0,0.0,0.0,0.0,0.0,0.0,0.0,0.0,0.0,0.0,0.0,0.0,0.0,0.0,0.0,0.0,0.0,0.0,0.0,0.0,0.0,0.0,0.0,0.0,0.0,0.0,0.0,0.0,0.0,0.0,0.0,0.0,0.0,0.0,0.0,0.0,0.0,0.0,0.0,0.0,0.0,0.0,0.0,0.0,0.0,0.0,0.0,0.0,0.0,0.0,0.0,0.0,0.0,0.0,0.0,0.0,0.0,0.0,0.0,0.0,0.0,0.0,0.0,0.0,0.0,0.0,0.0,0.0,0.0,0.0,0.0,0.0,0.0,0.0,0.0,0.0,0.0,0.0,0.0,0.0,0.0,0.0,0.0,0.0,0.0,0.0,0.0,0.0,0.0,0.0,0.0,0.0,0.0,0.0,0.0,0.0,0.0,0.0,0.0,0.0,0.0,0.0,0.0,0.0,0.0,0.0,0.0,0.0,0.0,0.0,0.0,0.0,0.0,0.0,0.0,0.0,0.0,0.0,0.0,0.0,0.0,0.0,0.0,0.0,0.0,0.0,0.0,0.0,0.0,0.0,0.0,0.0,0.0,0.0,0.0,0.0,0.0,0.0,0.0,0.0,0.0,0.0,0.0,0.0,0.0,0.0,0.0,0.0,0.0,0.0,0.0,0.0,0.0,0.0,0.0,0.0,0.0,0.0,0.0,0.0,0.0,0.0,0.0,0.0,0.0,0.0,0.0,0.0,0.0,0.0,0.0,0.0,0.0,0.0,0.0,0.0,0.0,0.0,0.0,0.0,0.0,0.0,0.0,0.0,0.0,0.0,0.0,0.0,0.0,0.0,0.0,0.0,0.0,0.0,0.0,0.0,0.0,0.0,0.0,0.0,0.0,0.0,0.0,0.0,0.0,0.0,0.0,0.0,0.0,0.0,0.0,0.0,0.0,0.0,0.0,0.0,0.0,0.0,0.0,0.0,0.0,0.0,0.0,0.0,0.0,0.0,0.0,0.0,0.0,0.0,0.0,0.0,0.0,0.0,0.0,0.0,0.0,0.0,0.0,0.0,0.0,0.0,0.0,0.0,0.0,0.0,0.0,0.0,0.0,0.0,0.0,0.0,0.0,0.0,0.0,0.0,0.0,0.0,0.0,0.0,0.0,0.0,0.0,0.0,0.0,0.0,0.0,0.0,0.0,0.0,0.0,0.0,0.0,0.0,0.0,0.0,0.0,0.0,0.0,0.0,0.0,0.0,0.0,0.0,0.0,0.0,0.0,0.0,0.0,0.0,0.0,0.0,0.0,0.0,0.0,0.0,0.0,0.0,0.0,0.0,0.0,0.0,0.0,0.0,0.0,0.0,0.0,0.0,0.0,0.0,0.0,0.0,0.0,0.0,0.0,0.0,0.0,0.0,0.0,0.0,0.0,0.0,0.0,0.0,0.0,0.0,0.0,0.0,0.0,0.0,0.0,0.0,0.0,0.0,0.0,0.0,0.0,0.0,0.0,0.0,0.0,0.0,0.0,0.0,0.0,0.0,0.0,0.0,0.0,0.0,0.0,0.0,0.0,0.0,0.0,0.0,0.0,0.0,0.0,0.0,0.0,0.0,0.0,0.0,0.0,0.0,0.0,0.0,0.0,0.0,0.0,0.0,0.0,0.0,0.0,0.0,0.0,0.0,0.0,0.0,0.0,0.0,0.0,0.0,0.0,0.0,0.0,0.0,0.0,0.0,0.0,0.0,0.0,0.0,0.0,0.0,0.0,0.0,0.0,0.0,0.0,0.0,0.0,0.0,0.0,0.0,0.0,0.0,0.0,0.0,0.0,0.0,0.0,0.0,0.0,0.0,0.0,0.0,0.0,0.0,0.0,0.0,0.0,0.0,0.0,0.0,0.0,0.0,0.0,0.0,0.0,0.0,0.0,0.0,0.0,0.0,0.0,0.0,0.0,0.0,0.0,0.0,0.0,0.0,0.0,0.0,0.0,0.0,0.0,0.0,0.0,0.0,0.0,0.0,0.0,0.0,0.0,0.0,0.0,0.0,0.0,0.0,0.0,0.0,0.0,0.0,0.0,0.0,0.0,0.0,0.0,0.0,0.0,0.0,0.0,0.0,0.0,0.0,0.0,0.0,0.0,0.0,0.0,0.0,0.0,0.0,0.0,0.0,0.0,0.0,0.0,0.0,0.0,0.0,0.0,0.0,0.0,0.0,0.0,0.0,0.0,0.0,0.0,0.0,0.0,0.0,0.0,0.0,0.0,0.0,0.0,0.0,0.0,0.0,0.0,0.0,0.0,0.0,0.0,0.0,0.0,0.0,0.0,0.0,0.0,0.0,0.0,0.0,0.0,0.0,0.0,0.0,0.0,0.0,0.0,0.0,0.0,0.0,0.0,0.0,0.0,0.0,0.0,0.0,0.0,0.0,0.0,0.0,0.0,0.0,0.0,0.0,0.0,0.0,0.0,0.0,0.0,0.0,0.0,0.0,0.0,0.0,0.0,0.0,0.0,0.0,0.0,0.0,0.0,0.0,0.0,0.0,0.0,0.0,0.0,0.0,0.0,0.0,0.0,0.0,0.0,0.0,0.0,0.0,0.0,0.0,0.0,0.0,0.0,0.0,0.0,0.0,0.0,0.0,0.0,0.0,0.0,0.0,0.0,0.0,0.0,0.0,0.0,0.0,0.0,0.0,0.0,0.0,0.0,0.0,0.0,0.0,0.0,0.0,0.0,0.0,0.0,0.0,0.0,0.0,0.0,0.0,0.0,0.0,0.0,0.0,0.0,0.0,0.0,0.0,0.0,0.0,0.0,0.0,0.0,0.0,0.0,0.0,0.0,0.0,0.0,0.0,0.0,0.0,0.0,0.0,0.0,0.0,0.0,0.0,0.0,0.0,0.0,0.0,0.0,0.0,0.0,0.0,0.0,0.0,0.0,0.0,0.0,0.0,0.0,0.0,0.0,0.0,0.0,0.0,0.0,0.0,0.0,0.0,0.0,0.0,0.0,0.0,0.0,0.0,0.0,0.0,0.0,0.0,0.0,0.0,0.0,0.0,0.0,0.0,0.0,0.0,0.0,0.0,0.0,0.0,0.0,0.0,0.0,0.0,0.0,0.0,0.0,0.0,0.0,0.0,0.0,0.0,0.0,0.0,0.0,0.0,0.0,0.0,0.0,0.0,0.0,0.0,0.0,0.0,0.0,0.0,0.0,0.0,0.0,0.0,0.0,0.0,0.0,0.0,0.0,0.0,0.0,0.0,0.0,0.0,0.0,0.0,0.0,0.0,0.0,0.0,0.0,0.0,0.0,0.0,0.0,0.0,0.0,0.0,0.0,0.0,0.0,0.0,0.0,0.0,0.0,0.0,0.0,0.0,0.0,0.0,0.0,0.0,0.0,0.0,0.0,0.0,0.0,0.0,0.0,0.0,0.0,0.0,0.0,0.0,0.0,0.0,0.0,0.0,0.0,0.0,0.0,0.0,0.0,0.0,0.0,0.0,0.0,0.0,0.0,0.0,0.0,0.0,0.0,0.0,0.0,0.0,0.0,0.0,0.0,0.0,0.0,0.0,0.0,0.0,0.0,0.0,0.0,0.0,0.0,0.0,0.0,0.0,0.0,0.0,0.0,0.0,0.0,0.0,0.0,0.0,0.0,0.0,0.0,0.0,0.0,0.0,0.0,0.0,0.0,0.0,0.0,0.0,0.0,0.0,0.0,0.0,0.0,0.0,0.0,0.0,0.0,0.0,0.0,0.0,0.0,0.0,0.0,0.0,0.0,0.0,0.0,0.0,0.0,0.0,0.0,0.0,0.0,0.0,0.0,0.0,0.0,0.0,0.0,0.0,0.0,0.0,0.0,0.0,0.0,0.0,0.0,0.0,0.0,0.0,0.0,0.0,0.0,0.0,0.0,0.0,0.0,0.0,0.0,0.0,0.0,0.0,0.0,0.0,0.0,0.0,0.0,0.0,0.0,0.0,0.0,0.0,0.0,0.0,0.0,0.0,0.0,0.0,0.0,0.0,0.0,0.0,0.0,0.0,0.0,0.0,0.0,0.0,0.0,0.0,0.0,0.0,0.0,0.0,0.0,0.0,0.0,0.0,0.0,0.0,0.0,0.0,0.0,0.0,0.0,0.0,0.0,0.0,0.0,0.0,0.0,0.0,0.0,0.0,0.0,0.0,0.0,0.0,0.0,0.0,0.0,0.0,0.0,0.0,0.0,0.0,0.0,0.0,0.0,0.0,0.0,0.0,0.0,0.0,0.0,0.0,0.0,0.0,0.0,0.0,0.0,0.0,0.0,0.0,0.0,0.0,0.0,0.0,0.0,0.0,0.0,0.0,0.0,0.0,0.0,0.0,0.0,0.0,0.0,0.0,0.0,0.0,0.0,0.0,0.0,0.0,0.0,0.0,0.0,0.0,0.0,0.0,0.0,0.0,0.0,0.0,0.0,0.0,0.0,0.0,0.0,0.0,0.0,0.0,0.0,0.0,0.0,0.0,0.0,0.0,0.0,0.0,0.0,0.0,0.0,0.0,0.0,0.0,0.0,0.0,0.0,0.0,0.0,0.0,0.0,0.0,0.0,0.0,0.0,0.0,0.0,0.0,0.0,0.0,0.0,0.0,0.0,0.0,0.0,0.0,0.0,0.0,0.0,0.0,0.0,0.0,0.0,0.0,0.0,0.0,0.0,0.0,0.0,0.0,0.0,0.0,0.0,0.0,0.0,0.0,0.0,0.0,0.0,0.0,0.0,0.0,0.0,0.0,0.0,0.0,0.0,0.0,0.0,0.0,0.0,0.0,0.0,0.0,0.0,0.0,0.0,0.0,0.0,0.0,0.0,0.0,0.0,0.0,0.0,0.0,0.0,0.0,0.0,0.0,0.0,0.0,0.0,0.0,0.0,0.0,0.0,0.0,0.0,0.0,0.0,0.0,0.0,0.0,0.0,0.0,0.0,0.0,0.0,0.0,0.0,0.0,0.0,0.0,0.0,0.0,0.0,0.0,0.0,0.0,0.0,0.0,0.0,0.0,0.0,0.0,0.0,0.0,0.0,0.0,0.0,0.0,0.0,0.0,0.0,0.0,0.0,0.0,0.0,0.0,0.0,0.0,0.0,0.0,0.0,0.0,0.0,0.0,0.0,0.0,0.0,0.0,0.0,0.0,0.0,0.0,0.0,0.0,0.0,0.0,0.0,0.0,0.0,0.0,0.0,0.0,0.0,0.0,0.0,0.0,0.0,0.0,0.0,0.0,0.0,0.0,0.0,0.0,0.0,0.0,0.0,0.0,0.0,0.0,0.0,0.0,0.0,0.0,0.0,0.0,0.0,0.0,0.0,0.0,0.0,0.0,0.0,0.0,0.0,0.0,0.0,0.0,0.0,0.0,0.0,0.0,0.0,0.0,0.0,0.0,0.0,0.0,0.0,0.0,0.0,0.0,0.0,0.0,0.0,0.0,0.0,0.0,0.0,0.0,0.0,0.0,0.0,0.0,0.0,0.0,0.0,0.0,0.0,0.0,0.0,0.0,0.0,0.0,0.0,0.0,0.0,0.0,0.0,0.0,0.0,0.0,0.0,0.0,0.0,0.0,0.0,0.0,0.0,0.0,0.0,0.0,0.0,0.0,0.0,0.0,0.0,0.0,0.0,0.0,0.0,0.0,0.0,0.0,0.0,0.0,0.0,0.0,0.0,0.0,0.0,0.0,0.0,0.0,0.0,0.0,0.0,0.0,0.0,0.0,0.0,0.0,0.0,0.0,0.0,0.0,0.0,0.0,0.0,0.0,0.0,0.0,0.0,0.0,0.0,0.0,0.0,0.0,0.0,0.0,0.0,0.0,0.0,0.0,0.0,0.0,0.0,0.0,0.0,0.0,0.0,0.0,0.0,0.0,0.0,0.0,0.0,0.0,0.0,0.0,0.0,0.0,0.0,0.0,0.0,0.0,0.0,0.0,0.0,0.0,0.0,0.0,0.0,0.0,0.0,0.0,0.0,0.0,0.0,0.0,0.0,0.0,0.0,0.0,0.0,0.0,0.0,0.0,0.0,0.0,1.3235,0.0,0.0,0.0,0.0,0.0,0.0,0.0,0.0,0.0,0.0,0.0,0.0,0.0,0.0,0.0,0.0,0.0,0.0,0.0,0.0,0.0,0.0,0.0,0.0,0.0,0.0,0.0,0.0,0.0,0.0,0.0,0.0,0.0,0.0,0.0,0.0,0.0,0.0,0.0,0.0,0.0,0.0,0.0,0.0,0.0,0.0,0.0,0.0,0.0,0.0,0.0,0.0,0.0,0.0,0.0,0.0,0.0,0.0,0.0,0.0,0.0,0.0,0.0,0.0,0.0,0.0,0.0,0.0,0.0,0.0,0.0,0.0,0.0,0.0,0.0,0.0,0.0,0.0,0.0,0.0,0.0,0.0,0.0,0.0,0.0,0.0,0.0,0.0,0.0,0.0,0.0,0.0,0.0,0.0,0.0,0.0,0.0,0.0,0.0,0.0,0.0,0.0,0.0,0.0,0.0,0.0,0.0,0.0,0.0,0.0,0.0,0.0,0.0,0.0,0.0,0.0,1.4412,0.0,0.0,0.0,0.0,0.0,0.0,0.0,0.0,0.0,0.0,0.0,0.0,0.0,0.0,0.0,0.0,0.0,0.0,0.0,0.0,0.0,0.0,0.0,0.0,0.0,0.0,0.0,0.0,0.0,0.0,0.0,0.0,0.0,0.0,0.0,0.0,0.0,0.0,0.0,0.0,0.0,0.0,0.0,0.0,0.0,0.0,0.0,0.0,0.0,0.0,0.0,0.0,0.0,0.0,0.0,0.0,0.0,0.0,0.0,0.0,0.0,0.0,0.0,0.0,0.0,0.0,0.0,0.0,0.0,0.0,0.0,0.0,0.0,0.0,0.0,0.0,0.0,0.0,0.0,0.0,0.0,0.0,0.0,0.0,0.0,0.0,0.0,0.0,0.0,0.0,0.0,0.0,0.0,0.0,0.0,0.0,0.0,0.0,0.0,0.0,0.0,0.0,0.0,0.0,0.0,0.0,0.0,0.0,1.6785,1.7526,1.8355,1.8442,1.8543,1.8555,1.7061,1.6195,1.5831,1.5831,0.0,0.0,0.0,0.0,0.0,0.0,0.0,0.0,0.0,0.0,0.0,0.0,0.0,0.0,0.0,0.0,0.0,0.0,0.0,0.0,0.0,0.0,0.0,0.0,0.0,0.0,0.0,0.0,0.0,0.0,0.0,0.0,0.0,0.0,0.0,0.0,0.0,0.0,1.0371,1.1615,1.1971,1.1621,1.2661,0.0,0.0,0.0,0.0,0.0,0.0,0.0,0.0,0.0,0.0,0.0,0.0,0.0,0.0,0.0,0.0,0.0,0.0,0.0,0.0,0.0,0.0,0.0,0.0,0.0,0.0,0.0,0.0,0.0,0.0,0.0,0.0,0.0,0.0,0.0,0.0,0.0,0.0,0.0,0.0,0.0,0.0,0.0,1.2665,1.3701,0.0,0.0,0.0,0.0,0.0,0.0,0.0,0.0,0.0,0.0,0.0,0.0,0.0,1.7012,1.8411,1.8022,1.7836,1.789,1.8894,1.9208,1.8883,1.9384,1.9861,2.0353,1.9572,0.0,1.6409,1.6409,0.0,0.0,0.0,0.0,0.0,0.0,0.0,0.0,0.0,0.0,0.0,0.0,0.0,0.0,0.0,0.0,0.0,0.0,0.0,0.0,0.0,0.0,0.0,0.0,0.0,0.0,0.0,0.0,0.0,0.0,0.0,0.0,0.0,0.0,0.0,0.0,1.0558,1.0445,1.0504,1.1113,1.1533,1.1729,1.1257,1.1352,1.1756,1.0672,0.0,0.0,0.0,0.0,0.0,0.0,0.0,0.0,0.0,0.0,0.0,0.0,0.0,0.0,0.0,0.0,0.0,0.0,0.0,0.0,0.0,0.0,0.0,0.0,0.0,0.0,0.0,0.0,0.0,0.0,0.0,0.0,0.0,0.0,0.0,0.0,0.0,0.0,0.0,1.1894,1.343,1.3656,1.4368,1.4869,0.0,0.0,0.0,0.0,0.0,0.0,0.0,0.0,0.0,1.7766,1.8143,1.8551,1.898,1.9043,1.8995,1.8879,1.9327,1.9677,1.9796,1.9772,2.0474,2.1692,2.152,2.06,1.9246,1.8317,1.7739,1.7433,0.0,0.0,0.0,0.0,1.7237,1.7114,0.0,0.0,0.0,0.0,0.0,0.0,0.0,0.0,0.0,0.0,0.0,0.0,0.0,0.0,0.0,1.131,0.0,0.0,0.0,0.0,0.0,0.0,0.0,0.0,0.0,0.0,0.0,0.0,1.0371,1.0541,1.053,1.0792,1.1173,1.1525,1.0558,1.045,1.0961,0.9799,0.8646,0.0,0.0,0.0,0.0,0.0,0.0,0.0,0.0,0.0,0.0,0.0,0.0,0.0,0.0,0.0,0.0,0.0,0.0,0.0,0.0,0.0,0.0,0.0,0.0,0.0,0.0,0.0,0.0,0.0,0.0,0.0,0.0,0.0,0.0,0.0,0.0,0.0,0.0,1.2604,1.3613,1.3549,1.4385,1.5115,0.0,0.0,0.0,0.0,0.0,0.0,1.7657,1.8826,1.9211,1.8533,1.9485,1.9899,1.966,1.9952,2.0019,1.979,1.9748,1.9998,2.044,2.0061,2.0744,2.2162,2.2379,2.2187,2.1638,2.0382,1.9371,1.8616,1.8596,1.8349,1.8084,1.8843,1.8932,1.8708,0.0,0.0,0.0,0.0,0.0,0.0,0.0,0.0,0.0,0.0,0.0,0.0,0.0,0.0,1.221,1.2148,1.2188,1.1847,0.0,0.0,0.0,0.0,0.0,0.0,0.0,0.0,0.0,0.9989,1.0284,1.0284,1.0045,1.0881,1.095,1.0421,1.0954,1.1171,1.0984,0.9273,0.849,0.831,0.0,0.0,0.0,0.0,0.0,0.0,0.0,0.0,0.0,0.0,0.0,0.0,0.0,0.0,0.0,0.0,0.0,0.0,0.0,0.0,0.0,0.0,0.0,0.0,0.0,0.0,0.0,0.0,0.0,0.0,0.0,0.0,0.0,0.0,0.0,0.0,0.0,0.0,0.0,1.3883,1.4787,0.0,0.0,0.0,0.0,1.7435,1.9537,2.0826,2.0896,2.0901,2.1103,2.157,2.0976,2.092,2.1355,2.111,2.0902,2.0926,2.0694,2.0576,2.059,2.0568,2.0826,2.1274,2.1736,2.2139,2.2436,2.2231,2.1192,1.9723,1.9736,1.9673,1.9685,1.9724,1.9724,1.9736,0.0,0.0,0.0,0.0,0.0,0.0,0.0,0.0,0.0,0.0,0.0,0.0,0.0,1.2549,1.3188,1.3635,1.3647,1.3086,1.1764,0.0,0.0,0.0,0.0,0.0,0.0,0.0,0.9781,0.9621,0.9834,1.0321,1.1017,1.1026,1.1404,1.1999,1.0733,1.0444,1.0802,0.9348,0.829,0.7446,0.6283,0.4931,0.0,0.0,0.0,0.0,0.0,0.0,0.0,0.0,0.0,0.0,0.0,0.0,0.0,0.0,0.0,0.0,0.0,0.0,0.0,0.0,0.0,0.0,0.0,0.0,0.0,0.0,0.0,0.0,0.0,0.0,0.0,0.0,0.0,0.0,0.0,0.0,0.0,1.5408,1.694,0.0,1.7671,1.8597,1.9341,1.9641,2.0803,2.1657,2.2055,2.2551,2.2968,2.3231,2.2665,2.244,2.2633,2.1632,2.0846,2.0325,1.9944,1.9589,1.9342,1.9342,1.9854,2.0829,2.1079,2.1386,2.1681,2.1713,2.1608,2.1343,2.0639,2.0577,2.084,2.0489,2.0589,2.0891,0.0,0.0,0.0,0.0,0.0,0.0,0.0,0.0,0.0,0.0,0.0,1.1181,1.2181,1.2721,1.3279,1.4033,1.3857,1.3123,1.1783,0.0,0.0,0.0,0.0,0.0,0.0,0.9766,0.9843,0.9943,1.0038,1.057,1.149,1.1067,1.141,1.2352,1.0783,1.0223,1.0434,0.9539,0.8329,0.6912,0.6477,0.5445,0.403,0.0,0.0,0.0,0.0,0.0,0.0,0.0,0.0,0.0,0.0,0.0,0.0,0.0,0.0,0.0,0.0,0.0,0.0,0.0,0.0,0.0,0.0,0.0,0.0,0.0,0.0,0.0,0.0,0.0,0.0,0.0,0.0,0.0,0.0,0.0,1.5541,1.6519,1.7962,1.9043,1.9457,2.0192,2.0964,2.1652,2.2603,2.3344,2.3728,2.393,2.4086,2.4129,2.3299,2.2715,2.2608,2.1397,2.0428,1.9682,1.9122,1.868,1.8428,1.8428,1.8924,1.995,2.0216,2.0557,2.0992,2.1074,2.1423,2.191,2.1513,2.1394,2.1426,2.1504,2.1682,2.1864,0.0,0.0,0.0,0.0,0.0,0.0,0.0,0.0,0.0,0.0,1.0016,1.0616,1.2132,1.2244,1.2493,1.3235,1.2527,1.1709,1.0948,1.0187,0.0,0.0,0.0,0.0,1.039,1.0411,1.0596,1.1013,1.0921,1.1068,1.136,1.0984,1.1045,1.1431,1.1354,1.0769,0.9865,0.9814,0.8625,0.6882,0.7321,0.6635,0.5318,0.0,0.0,0.0,0.0,0.0,0.0,0.0,0.0,0.0,0.0,0.0,0.0,0.0,0.0,0.0,0.0,0.0,0.0,0.0,0.0,0.0,0.0,0.0,0.0,0.0,0.0,0.0,0.0,0.0,0.0,0.0,0.0,0.0,1.3907,1.5312,1.6366,1.6989,1.7833,1.8806,1.9959,2.1195,2.2304,2.3293,2.501,2.5949,2.5949,2.4934,2.4335,2.4335,2.2784,2.164,2.1219,2.0322,1.9693,1.9264,1.8405,1.8008,1.8008,1.8018,1.8252,1.8613,1.9059,1.9766,2.0519,2.0533,2.074,2.1219,2.2227,2.202,2.1341,2.2709,2.2911,2.2543,0.0,0.0,0.0,0.0,0.0,0.0,0.0,0.0,0.0,0.0,1.0536,1.1256,1.2253,1.2313,1.2562,1.3317,1.1576,1.0584,1.0954,0.0,0.0,0.0,0.0,0.0,1.0408,1.0639,1.0946,1.1278,1.0932,1.1502,1.2956,1.1719,1.2195,1.3973,1.2099,1.126,1.1123,1.0202,0.8878,0.7465,0.7708,0.7036,0.5914,0.0,0.0,0.0,0.0,0.0,0.0,0.0,0.0,0.0,0.0,0.0,0.0,0.0,0.0,0.0,0.0,0.0,0.0,0.0,0.0,0.0,0.0,0.0,0.0,0.0,0.0,0.0,0.0,0.0,0.0,0.0,0.0,1.3736,1.5352,1.6262,1.7216,1.8528,1.9696,2.0818,2.1846,2.3023,2.4078,2.5135,2.5405,2.5461,2.5461,2.4378,2.372,2.372,2.2325,2.1464,2.1336,1.9767,1.8914,1.8795,1.8223,1.8008,1.8018,1.832,1.8525,1.8633,1.8715,1.8934,1.9113,1.8819,1.8792,1.9028,2.0597,2.0986,2.0803,2.1198,2.1626,2.213,0.0,0.0,0.0,0.0,0.0,0.0,0.0,0.0,0.0,0.0,1.0493,1.1035,1.18,1.1206,1.1056,1.1822,1.0272,0.9461,0.9954,0.0,0.0,0.0,0.0,1.0674,1.0983,1.1351,1.1615,1.1778,1.1532,1.2266,1.3857,1.2635,1.3018,1.4639,1.2735,1.1688,1.1282,1.0202,0.9138,0.8184,0.8228,0.7528,0.6333,0.605,0.6058,0.6246,0.62,0.652,0.6838,0.5935,0.0,0.0,0.0,0.0,0.0,0.0,0.0,0.0,0.0,0.0,0.0,0.0,0.0,0.0,0.0,0.0,0.0,0.0,0.0,0.0,0.0,0.0,0.0,0.0,1.3756,1.4524,1.5569,1.6647,1.7696,1.8788,2.0118,2.1342,2.2291,2.2987,2.3822,2.4804,2.4691,2.4352,2.3863,2.3229,2.268,2.2211,2.128,2.0696,2.0512,1.9251,1.8545,1.8369,1.8125,1.7794,1.7442,1.7678,1.7783,0.0,1.7783,1.8098,1.8603,1.8184,1.8115,0.0,0.0,0.0,0.0,0.0,2.0632,2.1183,0.0,0.0,0.0,0.0,0.0,0.0,0.0,0.0,0.0,0.0,0.0,1.0204,1.0828,0.9503,0.8822,0.9395,0.8854,0.8525,0.0,0.0,0.0,1.0942,1.0799,1.1055,1.1812,1.2146,1.2377,1.2508,1.2404,1.3047,1.4351,1.3465,1.3475,1.416,1.2999,1.1814,1.0594,0.9843,0.9138,0.8533,0.8474,0.7723,0.6753,0.6812,0.7025,0.7407,0.8194,0.8584,0.8522,0.7725,0.0,0.0,0.0,0.0,0.0,0.0,0.0,0.0,0.0,0.0,0.0,0.0,0.0,0.0,0.0,0.0,0.0,0.0,0.0,0.0,0.0,0.0,0.0,0.0,1.4179,1.462,1.4869,1.634,1.7619,1.824,1.9667,2.0934,2.1886,2.2027,2.2403,2.3441,2.3283,2.2774,2.1892,0.0,0.0,0.0,0.0,1.959,1.9219,1.8637,1.823,1.7862,1.7725,1.7217,1.6428,1.6428,1.6428,1.6428,1.6428,1.7125,1.8174,1.781,1.7868,1.8334,1.9438,1.931,1.8635,1.9497,1.9829,1.9912,0.0,0.0,0.0,0.0,0.0,0.0,0.0,0.0,0.0,0.9235,0.9137,0.9079,0.8957,0.8643,0.8123,0.7361,0.7991,0.8517,0.0,0.0,0.9368,1.0176,1.0588,1.1184,1.2013,1.1852,1.2412,1.3751,1.2673,1.3042,1.4686,1.3443,1.3311,1.404,1.213,1.0699,0.9773,0.8534,0.7629,0.6966,0.6357,0.6686,0.7475,0.7275,0.7244,0.7306,0.7218,0.7711,0.8384,0.7936,0.7956,0.8133,0.8094,0.0,0.0,0.0,0.0,0.0,0.0,0.0,0.0,0.0,0.0,0.0,0.0,0.0,0.0,0.0,0.0,0.0,0.0,0.0,0.0,1.297,1.3051,1.3249,1.3227,1.447,1.6146,1.8231,1.9744,2.0934,2.1886,2.2027,2.2403,2.3441,2.1975,2.113,2.1471,1.9895,1.9165,1.9521,1.9102,1.8848,1.876,1.7605,1.6927,1.6853,0.0,0.0,1.5438,1.5438,1.5438,1.5438,1.5438,1.563,1.5831,1.5762,1.5771,1.6052,1.7753,1.8262,1.8193,1.9111,1.9435,1.9547,0.0,0.0,0.0,0.0,0.0,0.0,0.0,0.0,0.0,0.0,0.955,0.9485,0.9321,0.828,0.764,0.7741,0.8234,0.0,0.0,0.9365,0.9725,1.0554,1.0823,1.1148,1.159,1.2261,1.278,1.3143,1.3148,1.376,1.4887,1.36,1.324,1.3533,1.0975,0.9343,0.8469,0.6749,0.5815,0.5454,0.507,0.5183,0.5554,0.6178,0.6192,0.5958,0.6899,0.7572,0.812,0.8525,0.8753,0.8871,0.914,0.9344,0.9359,0.0,0.0,0.0,0.0,0.0,0.0,0.0,0.0,0.0,0.0,0.0,0.0,0.0,0.0,1.2715,0.0,0.0,1.3844,1.311,1.3189,1.3122,1.2628,1.3748,1.5196,1.6723,1.797,1.9182,2.0401,2.0003,2.0071,2.1161,2.0314,1.9606,1.939,1.9221,1.9042,1.8845,1.8234,1.7906,1.7906,1.6563,1.593,1.586,1.5446,1.495,1.445,1.4277,1.4293,1.4442,1.434,1.4576,1.5234,1.5234,1.5234,1.5305,1.6228,1.6862,1.7423,1.8317,1.8654,1.8721,0.0,0.0,0.0,0.0,0.0,0.0,0.0,0.0,0.0,0.0,0.0,0.9761,0.9267,0.7909,0.7522,0.0,0.0,0.0,0.0,0.9877,1.0173,1.0889,1.1034,1.1099,1.1096,1.2262,1.277,1.251,1.3202,1.3981,1.4784,1.3159,1.2386,1.2225,0.918,0.7454,0.6637,0.4768,0.3905,0.3736,0.3736,0.3304,0.2819,0.4117,0.4566,0.4641,0.6572,0.7319,0.7522,0.8608,0.9048,0.9209,0.9558,1.0189,1.056,0.9538,1.0167,0.0,0.0,0.0,0.0,0.0,0.0,0.0,0.0,1.0514,1.0562,1.0178,1.1224,1.2413,1.3057,1.3333,1.3302,1.2767,1.2785,1.2565,1.1848,1.2702,1.366,1.4396,1.5842,1.7276,1.8479,1.7957,1.7912,1.8957,1.9036,1.8683,1.7877,1.8757,1.8937,1.8177,1.7329,1.6883,1.6883,1.556,1.4879,1.4879,1.4736,1.4204,1.3353,1.3097,1.3089,1.3258,1.3067,1.3651,1.4665,1.4665,1.4665,1.4657,1.4807,1.5367,1.614,1.7285,1.7862,1.7998,0.0,0.0,0.0,0.0,0.0,0.0,0.0,0.0,0.0,0.0,0.0,0.0,0.0,0.0,0.0,0.0,0.0,0.0,0.9471,0.9653,0.9772,0.986,1.0654,1.1106,1.1109,1.0576,1.1405,1.3614,1.1972,1.2223,1.4142,1.0949,0.9395,0.9177,0.6118,0.4421,0.375,0.283,0.2055,0.1495,0.1495,0.1053,0.0443,0.1285,0.2746,0.4518,0.5303,0.5843,0.6305,0.7116,0.7762,0.8483,0.9886,1.0435,1.0731,1.1156,0.0,1.1127,1.1483,1.2319,1.3312,1.42,1.3138,1.176,0.0,1.1057,1.0863,1.0515,1.1593,1.2365,1.1424,1.1583,1.1365,0.9996,0.982,0.9744,0.9674,0.9765,1.0334,1.1552,1.4476,1.6656,1.7111,1.7865,1.8578,1.893,1.9036,1.9196,1.9611,1.7976,1.7261,1.7782,1.6433,1.5773,1.5773,1.4478,1.3882,1.389,1.3018,1.2456,1.2124,1.209,1.1877,1.1675,1.1905,1.2247,1.2586,1.2586,1.2586,1.2732,1.3528,1.3954,1.4243,1.607,1.7285,1.7959,0.0,0.0,0.0,0.0,0.0,0.0,0.0,0.0,0.0,0.0,0.0,0.0,0.0,0.0,0.0,0.0,0.0,0.0,0.9546,0.922,0.9395,1.0294,1.0293,1.0493,1.0964,1.1266,1.1953,1.3031,1.2587,1.2317,1.2121,0.9773,0.8029,0.6783,0.4399,0.3044,0.2581,0.0937,0.0111,-0.0223,-0.0667,-0.0723,-0.0556,0.016,0.1399,0.2883,0.3827,0.4646,0.0,0.0,0.7043,0.7895,0.9169,0.9828,1.0215,1.1035,1.1781,1.2622,1.3766,1.4126,1.4043,1.3351,1.2431,1.124,0.9462,1.014,1.0914,1.0491,1.1833,1.2873,1.2218,1.155,1.1045,0.0,0.9848,0.9523,1.0115,0.9628,0.9527,1.0367,1.2233,1.4244,1.6275,1.7037,1.7787,1.8518,1.8127,1.7646,1.7409,1.6735,1.6215,1.5875,1.4562,1.3792,1.3601,1.2532,1.2044,1.2044,1.2218,1.1926,1.1144,1.1066,1.0926,1.0833,1.1768,1.2191,1.2305,1.2305,1.2305,1.2392,1.2933,1.3518,1.4228,1.5938,1.6853,1.7229,0.0,0.0,0.0,0.0,0.0,0.0,0.0,0.0,0.0,0.0,0.0,0.0,0.0,0.0,0.0,0.0,0.0,0.0,0.0,0.9077,0.9292,0.9966,0.9992,1.0157,1.0534,1.1362,1.1914,1.2194,1.1969,1.1374,1.042,0.7935,0.6085,0.4785,0.2803,0.176,0.1477,-0.0109,-0.1053,-0.1451,-0.1767,-0.1697,-0.1296,-0.0561,0.0337,0.1377,0.2544,0.3423,0.0,0.0,0.5763,0.6541,0.8,0.8723,0.9286,1.0459,1.1888,1.328,1.4306,1.4249,1.3525,1.1853,1.1228,1.0443,0.8328,0.9894,1.1675,1.1259,1.2297,1.3197,1.2654,1.1346,1.0426,1.0772,1.0079,0.9782,1.0512,0.994,0.9536,0.9982,1.1162,1.293,1.5521,1.6072,1.6613,1.7389,1.6834,1.6198,1.5604,1.5181,1.4647,1.3754,1.2492,1.1739,1.1534,1.0738,1.0565,1.0783,1.1539,1.1401,1.0557,1.0337,1.0337,1.0491,1.1642,1.2225,1.2311,1.2392,1.2378,1.2338,1.2726,1.3272,1.3998,1.551,1.6324,1.6824,0.0,0.0,0.0,0.0,0.0,0.0,0.0,0.0,0.0,0.0,0.0,0.0,0.0,0.0,0.0,0.0,0.0,0.0,0.0,0.939,0.9571,0.8061,0.9706,1.0358,0.9662,0.9856,1.0461,1.1424,0.8902,0.835,0.9549,0.4863,0.2913,0.3262,0.1063,0.005,0.0053,0.0,-0.0868,-0.2112,-0.14,-0.1562,-0.2096,-0.1331,-0.0506,0.038,0.1586,0.0,0.0,0.3104,0.3391,0.3836,0.6283,0.7248,0.0,0.9753,1.1194,1.2158,1.212,1.1696,1.1015,1.0032,0.964,0.9329,0.8856,1.1188,1.3442,1.3442,1.3337,1.2981,1.1998,1.0331,0.9103,0.9062,0.9641,1.0145,1.0283,1.0232,1.0227,1.0456,1.1976,1.3479,0.0,1.507,1.5283,1.5382,1.5302,1.5272,1.5374,1.3325,1.2065,1.1885,1.0499,0.9776,0.9771,0.9479,0.982,1.0783,1.0858,1.0728,1.0395,1.0073,1.0096,1.0479,1.1436,1.2044,1.2325,1.2612,1.2559,1.2358,1.2966,1.3013,1.3002,1.4197,1.5622,1.7108,0.0,0.0,0.0,0.0,0.0,0.0,0.0,0.0,0.0,0.0,0.0,0.0,0.0,0.0,0.0,0.0,0.0,0.0,0.0,0.7827,0.7533,0.7131,0.6513,0.605,0.5758,0.6073,0.6395,0.669,0.6702,0.6082,0.4855,0.2666,0.0818,-0.0676,-0.161,-0.1609,-0.0902,-0.1645,-0.177,-0.15,-0.1722,-0.1913,-0.2044,-0.1791,-0.1449,-0.1042,0.0,0.0,0.0,0.1054,0.1769,0.2856,0.4453,0.5863,0.752,1.0488,1.1895,1.2424,1.2148,1.101,0.9566,0.7873,0.73,0.7327,0.7878,1.0881,1.3682,1.4169,1.4214,1.3712,1.2545,1.0501,0.9484,1.0772,1.1213,1.1796,1.2994,1.308,1.2954,1.2634,1.3551,0.0,0.0,0.0,0.0,1.5185,1.3563,1.2433,1.1902,1.0914,0.9953,0.9184,0.874,0.8493,0.8209,0.8277,0.8461,0.8832,0.8687,0.8659,0.8646,0.8432,0.8817,0.9702,1.0739,1.1605,1.2311,1.2412,1.2512,1.2639,1.3046,1.3267,1.3454,1.486,1.5477,1.5883,0.0,0.0,0.0,0.0,0.0,0.0,0.0,0.0,0.0,0.0,0.0,0.0,0.0,0.0,0.0,0.0,0.0,0.0,0.0,0.0,0.528,0.404,0.3131,0.2561,0.2371,0.2689,0.3238,0.4004,0.3828,0.3251,0.2276,0.082,-0.0782,-0.2398,-0.2498,-0.2277,-0.1953,-0.2421,-0.2402,-0.2027,-0.2137,-0.219,-0.2235,-0.2253,-0.2344,0.0,0.0,0.0,0.0,-0.0236,0.0929,0.2305,0.3704,0.6069,0.8753,1.0964,1.1573,1.1384,1.0595,0.8898,0.7109,0.5951,0.5828,0.6421,0.8434,1.1571,1.4321,1.5166,1.4845,1.3978,1.2622,1.0674,1.0036,1.2205,1.3266,1.4409,1.6158,1.6566,1.6598,1.62,1.6405,1.6105,0.0,0.0,0.0,1.4165,1.1941,1.0645,1.0496,1.0148,0.9468,0.8205,0.8257,0.8013,0.7398,0.7584,0.7938,0.8313,0.7806,0.7664,0.7778,0.7651,0.8041,0.8841,1.019,1.1162,1.1781,1.2263,1.2512,1.2639,1.316,1.3414,1.3615,1.4738,1.5248,1.5556,0.0,0.0,0.0,0.0,0.0,0.0,0.0,0.0,0.0,0.0,0.0,0.0,0.0,0.0,0.0,0.0,0.0,0.0,0.0,0.0,0.0,-0.0581,-0.0183,-0.0063,-0.0458,-0.0304,0.0834,0.2997,0.0254,-0.0169,0.1547,-0.0875,-0.2099,-0.2259,-0.1936,-0.2305,-0.3089,-0.2619,-0.2902,-0.3607,-0.2653,-0.2416,-0.2657,-0.2796,0.0,0.0,0.0,0.0,-0.2881,-0.0697,0.0997,0.2528,0.444,0.7949,1.1338,1.1262,1.0449,0.9157,0.752,0.544,0.386,0.4261,0.5027,0.6691,1.026,1.3036,1.5089,1.6094,1.5144,1.3629,1.2161,1.0776,1.0725,1.3275,1.5661,1.7793,1.9645,2.0565,2.1035,0.0,0.0,0.0,0.0,0.0,0.0,1.2358,0.0,1.0068,1.1188,1.1035,1.0262,0.889,0.8907,0.8303,0.7023,0.7273,0.8044,0.9145,0.8161,0.7706,0.7706,0.7706,0.7783,0.7936,0.9884,1.0783,1.0881,1.2214,1.2565,1.2412,1.3267,1.3447,1.33,1.3861,1.472,1.5898,0.0,0.0,0.0,0.0,0.0,0.0,0.0,0.0,0.0,0.0,0.0,0.0,0.0,0.0,0.0,0.0,0.0,0.0,0.0,0.0,0.0,0.0,0.0,0.0,0.0,0.0,0.0,0.0,0.0,-0.3662,-0.382,-0.4472,-0.514,-0.5798,-0.5926,-0.5563,-0.4875,-0.4986,-0.4408,-0.337,0.0,-0.3128,-0.3303,0.0,0.0,0.0,0.0,0.0,-0.1633,-0.0067,0.359,0.7971,1.0464,1.2219,1.3328,1.3305,1.156,0.9064,0.619,0.4215,0.2811,0.2255,0.3367,0.5523,0.8842,1.1466,1.3508,1.4653,1.3086,1.1489,1.1335,1.0402,1.0951,1.4775,1.8194,0.0,2.3378,2.5331,0.0,2.4259,2.3696,2.201,1.8311,1.5551,0.0,0.0,1.0773,1.0686,1.1342,1.0891,1.0256,0.9421,0.8415,0.7388,0.6264,0.6497,0.6751,0.7099,0.6795,0.6718,0.6718,0.6718,0.7099,0.7859,0.9145,1.0115,1.087,1.2,1.2498,1.2659,1.2886,1.3206,1.3547,1.3701,1.4054,1.4727,0.0,0.0,0.0,0.0,0.0,0.0,0.0,0.0,0.0,0.0,0.0,0.0,0.0,0.0,0.0,0.0,0.0,0.0,0.0,0.0,0.0,0.0,0.0,0.0,0.0,0.0,0.0,0.0,0.0,0.0,0.0,-0.5911,-0.6256,-0.6798,-0.6828,-0.6626,-0.6226,-0.6072,0.0,0.0,0.0,0.0,0.0,0.0,0.0,0.0,0.0,0.0,0.3572,0.5705,0.8626,1.1856,1.4906,1.5827,1.5532,1.4239,1.136,0.7847,0.4187,0.1646,0.0077,0.0151,0.1543,0.3606,0.6681,0.8955,1.0601,1.1252,1.0124,0.9224,0.9659,1.0029,1.1724,1.6242,2.0153,2.3559,2.6122,2.8136,2.8985,2.7933,2.6406,2.3728,1.9514,1.5922,1.2701,0.0,0.9605,0.986,1.0506,1.0611,1.0262,0.9306,0.8538,0.7694,0.6689,0.6863,0.6979,0.7051,0.6658,0.642,0.6356,0.6356,0.6627,0.7176,0.0,0.9216,1.019,1.1242,1.2013,1.2565,1.2768,1.2953,1.328,1.3547,1.3748,1.4054,0.0,0.0,0.0,0.0,0.0,0.0,0.0,0.0,0.0,0.0,0.0,0.0,0.0,0.0,0.0,0.0,0.0,0.0,0.0,0.0,0.0,0.0,0.0,0.0,0.0,0.0,0.0,0.0,0.0,0.0,0.0,0.0,0.0,0.0,0.0,0.0,0.0,0.0,0.0,0.0,0.0,0.0,0.0,0.0,0.0,0.0,0.0,0.0,1.0004,1.3227,1.4543,1.5353,1.8667,1.9088,1.7781,1.4892,1.0423,0.5576,0.1314,-0.2041,-0.4063,-0.275,-0.1202,0.0729,0.3585,0.5462,0.6646,0.6778,0.6591,0.6689,0.7689,0.9603,1.2542,1.7351,2.1503,2.5108,2.8001,2.9719,3.0745,3.0858,2.8145,2.4694,2.0542,1.6399,1.2226,0.8069,0.7962,0.8388,0.9286,1.0213,1.0133,0.8925,0.8734,0.8299,0.7533,0.7571,0.7663,0.7811,0.7029,0.662,0.6471,0.6471,0.6393,0.6338,0.748,0.0,0.9372,1.0565,1.1564,1.2385,1.2681,1.2815,1.2943,1.3347,1.3574,1.3716,0.0,0.0,0.0,0.0,0.0,0.0,0.0,0.0,0.0,0.0,0.0,0.0,0.0,0.0,0.0,0.0,0.0,0.0,0.0,0.0,0.0,0.0,0.0,0.0,0.0,0.0,0.0,0.0,0.0,0.0,0.0,0.0,0.0,0.0,0.0,0.0,0.0,0.0,0.0,0.0,0.0,0.0,0.0,0.0,0.0,0.0,0.0,0.7441,1.1591,0.0,1.8325,2.081,2.3185,2.254,2.0205,1.6623,0.9775,0.2226,-0.3132,-0.7739,-1.059,-0.8837,-0.7219,-0.5069,-0.1497,0.0462,0.1808,0.2953,0.2992,0.3706,0.6695,0.8974,1.1992,1.6991,2.1666,2.5754,2.8927,3.0715,3.137,3.0277,2.7913,2.4302,1.8962,1.5581,0.0,0.0,0.7302,0.7636,0.8345,0.902,0.9326,0.9241,0.7651,0.7046,0.7732,0.7058,0.6763,0.6791,0.6709,0.662,0.6471,0.6471,0.6393,0.6412,0.8237,0.0,0.9448,1.1248,1.2289,1.2728,1.2452,1.2685,1.3113,1.2959,1.3213,1.3607,0.0,0.0,0.0,0.0,0.0,0.0,0.0,0.0,0.0,0.0,0.0,0.0,0.0,0.0,0.0,0.0,0.0,0.0,0.0,0.0,0.0,0.0,0.0,0.0,0.0,0.0,-0.6662,-0.6657,0.0,0.0,0.0,-0.8427,-0.8794,0.0,0.0,0.0,0.0,0.0,0.0,0.0,0.0,0.0,0.0,0.0,0.0,0.0,0.0,1.0066,1.353,1.6279,1.8895,2.1342,2.3164,2.1866,1.8617,1.3533,0.6235,-0.1464,-0.7055,-1.1431,-1.4072,-1.2749,-1.1196,-0.9223,-0.6077,-0.4349,-0.2827,-0.09,-0.0231,0.128,0.5502,0.852,1.2156,1.7636,2.1756,2.5436,2.8779,3.0069,3.0322,2.9276,2.7055,2.3273,1.7374,1.3922,1.0393,0.6381,0.5579,0.5608,0.6469,0.724,0.7675,0.7706,0.741,0.7144,0.7144,0.74,0.7199,0.6712,0.6858,0.6851,0.6709,0.6627,0.6512,0.6445,0.7897,0.0,0.9622,1.1076,1.2157,1.2829,1.2766,1.2859,1.2986,1.3153,1.3394,1.3539,0.0,0.0,0.0,0.0,0.0,0.0,0.0,0.0,0.9677,0.925,0.8945,0.8393,0.7448,0.7373,0.0,0.0,0.0,0.0,0.0,0.0,0.0,0.0,0.0,0.0,0.0,0.0,0.0,-0.5544,-0.677,0.0,0.0,0.0,0.0,0.0,-0.7868,-0.733,0.0,0.0,0.0,0.0,0.0,0.0,0.0,0.0,0.0,0.0,0.0,1.1821,1.4797,1.6284,1.7755,1.908,2.0034,1.8942,1.6115,0.9911,0.2613,-0.4607,-0.9922,-1.4132,-1.6718,-1.5547,-1.4282,-1.2504,-0.9592,-0.7976,-0.6365,-0.388,-0.2145,0.0373,0.5116,0.8779,1.2925,1.8526,2.1742,2.4682,2.8077,2.8791,2.8697,2.8045,2.5819,2.2056,1.6272,1.3033,0.0,0.6159,0.4899,0.0,0.4868,0.5562,0.6051,0.6251,0.7171,0.7255,0.6464,0.7514,0.7688,0.6929,0.7071,0.7065,0.6926,0.6803,0.6664,0.6592,0.7684,0.0,0.0,1.0993,1.2062,1.2953,1.3066,1.3039,1.2986,1.34,1.3587,1.3552,0.0,0.0,0.0,0.0,0.0,0.0,0.0,0.0,0.9871,0.9824,0.8911,0.8322,0.8433,0.7603,0.0,0.0,0.0,0.0,0.0,0.0,0.0,0.0,0.0,0.0,0.0,0.0,0.0,-0.507,-0.6273,0.0,0.0,0.0,0.0,0.0,0.0,-0.6484,-0.6019,0.0,0.0,0.0,0.0,0.0,0.0,0.0,0.0,0.0,0.0,1.2569,1.4296,1.5192,1.5027,1.4304,1.3213,1.4161,1.4504,0.8728,0.1081,-0.6502,-1.1152,-1.635,-1.998,-1.7739,-1.6623,-1.5121,-1.1217,-0.9249,-0.7506,-0.4817,-0.1353,0.2518,0.6891,1.0579,1.4458,1.9101,0.0,2.3682,2.6964,2.7285,2.6992,2.6638,2.4162,2.0649,1.6071,1.4429,1.224,0.871,0.7165,0.0,0.4944,0.4826,0.5263,0.6217,0.6458,0.6541,0.6437,0.6846,0.7015,0.6929,0.7071,0.7065,0.6929,0.6915,0.6824,0.675,0.8577,0.0,0.0,1.1557,1.2749,1.3507,1.2993,1.3106,1.3534,1.3327,1.3414,1.3607,0.0,0.0,0.0,0.0,0.0,0.0,0.0,0.0,0.995,1.0059,0.9203,0.8504,0.8382,0.741,0.0,0.0,0.0,0.0,0.0,0.0,0.0,0.0,0.0,0.0,0.0,0.0,-0.2971,-0.3553,-0.4312,0.0,0.0,0.0,0.0,0.0,0.0,-0.4257,-0.3428,0.0,0.0,0.0,0.0,0.0,0.0,0.0,0.0,0.0,0.0,0.0,1.2635,1.2547,1.2042,1.1096,0.9104,0.8486,0.7797,0.3914,-0.1859,-0.7762,-1.1233,-1.4455,-1.6524,-1.5184,-1.3947,-1.2262,-0.9169,-0.7916,-0.6459,-0.3185,0.0515,0.4414,0.8487,1.2307,1.6082,0.0,0.0,0.0,2.5371,2.4694,2.3902,2.3872,2.2507,1.9715,0.0,0.0,1.0757,0.6022,0.5016,0.0,0.3931,0.3704,0.3221,0.2256,0.31,0.3531,0.3524,0.503,0.589,0.5972,0.6634,0.7027,0.7054,0.6966,0.6895,0.6912,0.8135,0.0,0.0,1.1084,1.2098,1.2605,1.3126,1.3434,1.3654,1.3714,1.3814,1.3895,0.0,0.0,0.0,0.0,0.0,0.0,0.8824,0.9458,0.998,1.0171,0.9351,0.8657,0.8461,0.7373,0.6288,0.5343,0.0,0.0,0.0,0.0,0.0,0.0,0.0,0.0,0.0,0.0,0.0,-0.1953,-0.2325,-0.2496,0.0,0.0,-0.2917,-0.2832,0.0,0.0,0.0,0.0,0.0,0.0,0.0,0.0,0.0,0.0,0.0,0.0,0.0,0.0,0.0,0.0,0.0,0.8583,0.6406,0.4648,0.0,0.0529,-0.3183,-0.7012,-0.9425,-1.0922,-1.1549,-1.0794,-0.969,-0.8126,-0.5614,-0.4914,-0.3864,-0.0398,0.335,0.7157,1.0909,1.454,1.7961,0.0,0.0,2.1893,2.4324,2.3347,2.2374,2.2424,0.0,1.9181,1.4895,1.2355,0.9204,0.4963,0.4189,0.0,0.2872,0.2582,0.163,-0.0247,0.0662,0.116,0.1154,0.3488,0.4883,0.531,0.6386,0.6983,0.7075,0.7017,0.699,0.6983,0.7915,0.0,0.0,1.0649,1.1566,1.2017,1.2943,1.3487,1.3667,1.3881,1.4015,1.4088,0.0,0.0,0.0,0.0,0.0,0.0,0.0,0.0,0.9967,1.0175,0.9273,0.8704,0.8957,0.7684,0.6614,0.6133,0.0,0.0,0.0,0.0,0.0,0.0,0.0,0.0,0.0,0.0,0.0,0.0,-0.056,-0.0632,-0.0616,-0.0224,0.0098,0.0357,0.0,0.0,0.0,0.0,0.0,0.0,0.0,0.0,0.0,0.0,0.0,0.0,0.0,0.0,0.0,0.0,0.0,0.0,0.0,0.3365,0.0,0.0,-0.2109,-0.377,-0.5266,-0.5914,-0.5893,-0.4801,-0.4281,-0.3401,-0.0748,-0.0344,0.0398,0.3499,0.7281,1.1078,1.4523,1.7455,2.0264,2.303,2.2524,0.0,2.4166,2.3824,2.326,2.2938,2.1286,1.8913,1.5716,1.1429,0.8285,0.7037,0.0,0.0,0.185,0.1447,0.0908,0.0,0.0,0.0082,0.0242,0.2469,0.4082,0.5103,0.6339,0.6929,0.6936,0.7075,0.7139,0.0,0.0,0.0,0.0,1.0455,1.1323,1.1981,1.2583,1.312,1.3559,1.3566,1.3834,1.4088,0.0,0.0,0.0,0.0,0.0,0.0,0.0,0.0,0.9852,0.9919,0.9077,0.8504,0.8576,0.7519,0.6696,0.6461,0.0,0.0,0.0,0.0,0.0,0.0,0.0,0.0,0.0,0.0,0.0,0.0,0.0,0.0,0.1787,0.1645,0.1772,0.2111,0.2111,0.2386,0.0,0.0,0.0,0.0,0.0,0.0,0.0,0.0,0.0,0.0,0.0,0.0,0.0,0.0,0.0,0.0,0.0,0.0,0.0,0.0692,-0.0637,-0.1837,-0.2466,-0.238,-0.2012,-0.1743,-0.1005,-0.0045,0.1172,0.2285,0.377,0.6505,1.0497,1.4418,1.733,1.983,2.2081,2.3966,2.3448,0.0,0.0,2.3311,2.3143,2.3961,2.0271,1.6065,0.0,0.0,0.4337,0.2403,0.0,0.0,0.1781,0.1469,0.0508,-0.135,-0.0577,-0.0081,-0.0081,0.2159,0.3566,0.4103,0.5812,0.6776,0.7071,0.7017,0.7048,0.0,0.0,0.0,0.0,0.8661,0.9769,1.0819,1.1467,1.2361,1.3373,1.3492,1.3701,1.3814,0.0,0.0,0.0,0.0,0.0,0.0,0.0,0.0,0.9714,0.9686,0.9065,0.8544,0.8311,0.7552,0.6942,0.663,0.0,0.0,0.0,0.0,0.0,0.0,0.0,0.0,0.0,0.0,0.0,0.0,0.0,0.0,0.0,0.0,0.0,0.376,0.3826,0.0,0.0,0.0,0.0,0.0,0.0,0.0,0.8367,0.0,0.0,0.0,0.0,0.0,0.0,0.0,0.0,0.0,0.0,0.0,0.0,0.0,0.1031,0.0478,0.019,0.0662,0.1299,0.1592,0.2039,0.2707,0.3873,0.5259,0.7041,0.9467,1.2982,1.6495,1.9302,2.1161,2.2803,2.4487,2.4025,2.3548,0.0,0.0,0.0,2.2242,1.8285,0.0,0.0,0.5204,0.2761,0.0,0.0,0.0,0.2908,0.3066,0.2669,0.1666,0.0813,0.0399,0.0476,0.2194,0.3261,0.3474,0.554,0.6647,0.6973,0.6943,0.6976,0.0,0.0,0.0,0.0,0.8313,0.9297,1.0115,1.1163,1.2222,1.3073,1.3367,1.3215,1.3004,0.0,0.0,0.0,0.0,0.0,0.0,0.0,0.0,0.0,0.0,0.0,0.8739,0.8122,0.7719,0.0,0.0,0.0,0.0,0.0,0.0,0.0,0.0,0.0,0.0,0.0,0.0,0.0,0.3263,0.3895,0.4002,0.3623,0.0,0.0,0.0,0.0,0.0,0.0,0.7221,0.7475,0.7562,0.8101,0.842,0.0,0.0,0.0,0.0,0.0,0.0,0.0,0.0,0.0,0.0,0.0,0.0,0.0,0.0,0.0,0.0,0.0,0.3105,0.3838,0.4818,0.4678,0.4865,0.6881,0.8422,0.0,1.2323,1.4848,1.7598,2.056,2.163,2.2695,2.469,2.4322,0.0,0.0,2.4599,0.0,0.0,1.579,0.0,0.5412,0.3964,0.3037,0.0,0.0,0.0,0.4986,0.5849,0.6738,0.7832,0.3959,0.1882,0.185,0.2794,0.3317,0.3489,0.5511,0.6573,0.6736,0.6868,0.6932,0.0,0.0,0.0,0.0,0.9072,0.9801,0.9989,1.1557,1.2423,1.2786,1.3014,1.255,1.1875,0.0,0.0,0.0,0.0,0.0,0.0,0.0,0.0,0.0,0.0,0.0,0.0,0.0,0.0,0.0,0.0,0.0,0.0,0.0,0.0,0.0,0.0,0.0,0.0,0.0,0.0,0.0,0.3891,0.4148,0.4402,0.4655,0.509,0.0,0.0,0.0,0.714,0.7886,0.8022,0.8306,0.8627,0.8677,0.8915,0.0,0.0,0.0,0.0,0.8744,0.8106,0.0,0.0,0.0,0.0,0.0,0.0,0.0,0.0,0.4016,0.4384,0.4508,0.0,0.3934,0.4389,0.5125,0.6112,0.0,0.9827,1.2192,1.4056,1.656,1.9212,2.1816,2.2396,2.3057,2.4864,2.4813,2.4524,2.4468,2.5333,0.0,1.7963,1.5448,1.1744,0.5451,0.33,0.0,0.0,0.0,0.4146,0.6187,0.6983,0.7845,0.9047,0.8005,0.6667,0.5106,0.4676,0.4544,0.4729,0.6062,0.6783,0.7034,0.6963,0.699,0.0,0.0,0.0,0.8607,0.9723,1.0593,1.1129,1.1379,1.1986,1.2702,1.2116,1.1858,1.1624,0.0,0.0,0.0,0.0,0.0,0.0,0.0,0.0,0.0,0.0,0.0,0.0,0.0,0.0,0.0,0.0,0.0,0.0,0.0,0.0,0.0,0.0,0.0,0.0,0.0,0.0,0.0,0.0,0.0,0.4534,0.0,0.0,0.0,0.0,0.0,0.7955,0.8489,0.8546,0.8722,0.8949,0.8938,0.0,0.0,0.0,0.0,0.0,0.831,0.7674,0.0,0.6288,0.5646,0.503,0.0,0.0,0.0,0.0,0.5022,0.539,0.579,0.5533,0.5255,0.569,0.6527,0.7579,0.9007,1.1454,1.3828,1.5255,1.7623,2.0111,2.2374,2.2642,2.3118,2.4997,2.5017,0.0,0.0,0.0,2.1578,1.6141,1.3058,0.9437,0.0,0.0,0.0,0.0,0.0,0.6495,0.8556,0.8978,0.9428,1.0073,0.958,0.8336,0.6312,0.5857,0.5513,0.5265,0.6226,0.682,0.7041,0.6963,0.6932,0.0,0.0,0.0,0.8914,1.0299,1.1182,1.1705,1.1889,1.228,1.2682,1.1739,1.1078,1.0551,0.0,0.0,0.0,0.0,0.0,0.0,0.0,0.0,0.0,0.0,0.0,0.0,0.0,0.0,0.0,0.0,0.0,0.0,0.0,0.0,0.0,0.0,0.0,0.0,0.0,0.0,0.0,0.0,0.0,0.0,0.0,0.0,0.5804,0.0,0.0,0.8424,0.8794,0.8913,0.8957,0.8951,0.9026,0.0,0.0,0.0,0.0,0.0,0.0,0.0,0.0,0.6094,0.5601,0.5175,0.4903,0.0,0.0,0.0,0.0,0.0,0.6884,0.7266,0.7562,0.7801,0.8514,0.9542,1.1075,1.3312,1.5367,1.6349,1.8461,2.0681,2.2548,2.2752,2.3236,2.5101,0.0,0.0,2.4712,2.2106,1.8446,1.3782,0.9903,0.0,0.3619,0.0,0.0,0.0,0.0,0.8935,1.064,1.0779,1.0708,1.0559,0.9744,0.8404,0.6474,0.6495,0.6229,0.5623,0.6389,0.6837,0.6959,0.6959,0.6973,0.7108,0.0,0.0,0.939,1.1198,1.2038,1.224,1.2752,1.2936,1.2736,1.148,1.0355,0.9399,0.0,0.0,0.0,0.0,0.0,0.0,0.0,0.0,0.0,0.0,0.0,0.0,0.0,0.0,0.0,0.0,0.0,0.0,0.0,0.0,0.0,0.0,0.0,0.0,0.0,0.0,0.0,0.0,0.0,0.0,0.4409,0.5102,0.6085,0.7275,0.763,0.8319,0.9199,0.9218,0.921,0.9146,0.8932,0.0,0.0,0.0,0.0,0.0,0.0,0.0,0.0,0.6052,0.5845,0.5734,0.5463,0.0,0.0,0.0,0.0,0.0,0.8368,1.0054,1.1228,0.9413,1.0778,1.2735,1.3514,1.5607,1.7538,1.8046,1.9708,2.1434,2.2608,2.3244,2.3967,2.5197,0.0,2.559,0.0,0.0,1.7225,1.1636,0.0,0.5439,0.0,0.0,0.0,0.0,0.0,0.855,0.9693,1.0394,1.0415,0.9518,0.9372,0.8485,0.6658,0.6664,0.6669,0.6668,0.6937,0.7085,0.7109,0.7109,0.7618,0.8636,0.0,1.0818,1.1838,1.3187,1.3572,1.3375,1.3459,1.3353,1.2897,1.0861,0.9936,0.9365,0.0,0.0,0.0,0.0,0.0,0.0,0.0,0.0,0.0,0.0,0.0,0.0,0.0,0.0,0.0,0.0,0.0,0.0,0.0,0.0,0.0,0.0,0.0,0.0,0.0,0.0,0.0,0.0,0.0,0.5591,0.4628,0.4817,0.582,0.7477,0.8078,0.8627,0.9088,0.9228,0.9169,0.8912,0.0,0.0,0.0,0.0,0.0,0.0,0.0,0.0,0.0,0.0,0.6106,0.5874,0.5763,0.0,0.0,0.0,0.0,0.0,0.9704,1.111,1.2222,1.1704,1.3613,1.5798,1.6483,1.8097,1.9582,1.9981,2.1182,2.2446,2.3385,0.0,2.443,2.5876,0.0,2.4869,2.2604,1.8342,1.3681,0.0,0.0,0.0,0.0,0.0,0.0,0.0,0.0,0.0,0.9371,0.9797,0.9518,0.8542,0.8466,0.7909,0.6573,0.6576,0.6695,0.6929,0.6993,0.7024,0.7031,0.7105,0.7705,0.8824,0.0,1.1112,1.2302,1.3412,1.3861,1.3785,1.3023,1.2544,1.2117,0.968,0.8369,0.7663,0.0,0.0,0.0,0.0,0.0,0.0,0.0,0.0,0.0,0.0,0.0,0.0,0.0,0.0,0.0,0.0,0.0,0.0,0.0,0.0,0.0,0.0,0.0,0.0,0.0,0.0,0.9202,0.9494,0.7665,0.5904,0.4237,0.4423,0.5288,0.0,0.8001,0.8671,0.8913,0.9109,0.9015,0.8684,0.0,0.0,0.0,0.0,0.0,0.0,0.0,0.0,0.0,0.0,0.0,0.0,0.0,0.0,0.0,0.8077,0.8813,0.9522,1.0535,1.1632,1.2725,1.3775,1.5748,1.7721,1.8927,2.0262,2.146,2.2162,2.2939,2.3676,2.4322,2.4581,0.0,2.6562,2.5906,2.4039,2.0631,1.5707,1.0989,0.6928,0.4219,0.0,0.0,0.0,0.0,0.0,0.0,0.0,0.8854,0.9115,0.8822,0.7791,0.7757,0.7406,0.6471,0.6437,0.6576,0.6875,0.6875,0.6875,0.6878,0.6987,0.7759,0.9105,0.9947,1.0982,1.2218,1.2978,1.3278,1.319,1.2032,1.1348,1.0707,0.8535,0.7176,0.618,0.0,0.0,0.0,0.0,0.0,0.0,0.0,0.0,0.0,0.0,0.0,0.0,0.0,0.0,0.0,0.0,0.0,0.0,0.0,0.0,0.0,0.0,0.0,0.0,0.0,0.9149,0.9287,1.0042,0.6822,0.4339,0.2591,0.3893,0.4584,0.4787,0.6673,0.8034,0.8902,0.8852,0.8824,0.8756,0.8284,0.0,0.0,0.0,0.0,0.0,0.0,0.0,0.0,0.0,0.0,0.0,0.0,0.0,0.7787,0.8184,0.9035,0.9953,1.0392,1.2022,1.3872,1.5073,1.6132,1.7518,2.0062,2.1684,2.3112,2.4678,2.5072,2.5159,2.5207,2.5878,2.6571,2.6992,2.5924,2.3764,2.0139,0.0,1.1212,0.7203,0.0,0.0,0.0,0.0,0.0,0.0,0.0,0.0,0.7673,0.866,0.875,0.7594,0.769,0.7406,0.6471,0.6342,0.6424,0.6715,0.6715,0.6715,0.6719,0.6725,0.8042,1.0272,1.0355,1.1153,1.2298,1.2383,1.1798,1.0869,1.0763,0.9817,0.8598,0.7991,0.7176,0.6261,0.0,0.0,0.0,0.0,0.0,0.0,0.0,0.0,0.0,0.0,0.0,0.0,0.0,0.0,0.0,0.0,0.0,0.0,0.0,0.0,0.0,0.0,0.0,0.9771,0.9955,0.9583,0.756,0.3826,0.2558,0.1585,0.0992,0.482,0.0,0.0,0.8011,0.8553,0.8891,0.8874,0.8733,0.8518,0.8133,0.7941,0.0,0.0,0.0,0.0,0.0,0.0,0.0,0.0,0.6898,0.6794,0.0,0.7345,0.7931,0.8599,0.9497,1.0404,1.098,1.2837,1.4821,1.5602,1.6941,1.8797,2.1689,2.352,2.4861,2.5748,2.6708,2.7109,2.6113,0.0,2.5622,2.5718,2.4115,2.1424,1.7446,1.3548,0.9617,0.0,0.0,0.0,0.0,0.0,0.0,0.0,0.0,0.0,0.5649,0.6061,0.6364,0.6462,0.6522,0.6367,0.6054,0.6003,0.6078,0.6285,0.6383,0.6474,0.6559,0.7196,0.8089,0.916,0.9819,1.0522,1.1158,1.1158,1.0821,1.0373,0.9445,0.8359,0.7167,0.695,0.6641,0.6247,0.0,0.0,0.0,0.0,0.0,0.0,0.0,0.0,0.0,0.0,0.0,0.0,0.0,0.0,0.0,0.0,0.0,0.0,0.0,0.0,0.0,0.0,0.0,0.9838,1.009,0.9927,0.6602,0.0,0.0,0.0967,0.2889,0.0,0.0,0.0,0.8846,0.8891,0.8891,0.8891,0.8766,0.8526,0.8189,0.8123,0.0,0.0,0.0,0.0,0.0,0.0,0.0,0.0,0.7433,0.7384,0.0,0.0,0.8682,0.9184,1.0048,1.0977,1.1594,1.3268,1.5041,1.5817,1.7312,1.9471,2.272,2.4479,2.5815,2.7219,2.8089,2.8029,2.6202,2.5301,0.0,0.0,2.2501,1.9655,1.5491,1.253,0.9213,0.0,0.0,0.0,0.0,0.0,0.0,0.0,0.0,0.0,0.0,0.4683,0.5065,0.5664,0.5752,0.58,0.58,0.58,0.5878,0.603,0.6088,0.6193,0.6332,0.7049,0.7684,0.8306,0.9021,0.9494,0.9751,0.9751,0.959,0.9142,0.8091,0.7187,0.6451,0.6257,0.6186,0.6166,0.0,0.0,0.0,0.0,0.0,0.0,0.0,0.0,0.0,0.0,0.0,0.0,0.0,0.0,0.0,0.0,0.0,0.0,0.0,0.0,0.0,0.0,0.0,0.9831,1.0086,1.0037,0.671,0.0,0.0,0.3015,0.8807,0.8874,0.0,0.0,0.0,0.8891,0.8891,0.8891,0.8891,0.8869,0.8538,0.8612,0.888,0.0,0.0,0.0,0.0,0.0,0.0,0.0,0.8261,0.8376,0.0,0.0,0.0,0.991,1.0668,1.1708,1.2186,1.3192,1.4424,1.5676,1.7119,1.9195,2.295,2.4318,2.5806,2.936,2.9163,2.7638,2.5326,2.4644,0.0,2.3032,2.1374,1.8849,1.4851,1.2877,0.0,0.0,0.0,0.0,0.0,0.0,0.0,0.0,0.0,0.0,0.0,0.5011,0.5515,0.5428,0.5644,0.5796,0.5796,0.5796,0.5874,0.6023,0.5871,0.5881,0.6023,0.5871,0.6618,0.7995,0.7995,0.813,0.8393,0.8397,0.7671,0.6681,0.6529,0.6471,0.6434,0.6139,0.603,0.6006,0.0,0.0,0.0,0.0,0.0,0.0,0.0,0.0,0.0,0.0,0.0,0.0,0.0,0.0,0.0,0.0,0.0,0.0,0.0,0.0,0.0,0.0,0.0,0.0,0.0,0.0,0.2019,0.0,0.0,0.0898,0.0,0.0,0.0,0.8743,0.0,0.8335,0.8563,0.8801,0.8891,0.8891,0.8789,0.8812,0.8846,0.0,0.0,0.0,0.0,0.0,0.0,0.0,0.0,0.0,1.0031,0.0,1.0786,1.1058,1.1579,1.2137,1.238,1.3769,1.5426,1.6507,1.806,2.0094,2.3055,2.432,2.568,2.8587,2.7328,2.5452,2.4566,2.2638,0.0,2.0088,1.8175,1.5744,1.278,1.0993,0.0,0.0,0.0,0.0,0.0,0.0,0.0,0.0,0.0,0.0,0.0,0.4126,0.4587,0.5199,0.5284,0.5382,0.5491,0.5382,0.546,0.5722,0.5674,0.5786,0.6023,0.6584,0.6705,0.6514,0.7231,0.6832,0.5817,0.5916,0.6205,0.6525,0.638,0.6325,0.6298,0.6101,0.603,0.5993,0.0,0.0,0.0,0.0,0.0,0.0,0.0,0.0,0.0,0.0,0.0,0.0,0.0,0.0,0.0,0.0,0.0,0.0,0.0,0.0,0.0,0.0,0.0,0.0,0.0,0.5859,0.3754,0.0,0.0,0.0,0.0,0.0,0.8891,0.888,0.0,0.8409,0.8653,0.964,1.0047,1.0029,0.9838,0.9815,0.9869,0.0,0.0,0.0,0.0,0.0,0.0,0.0,0.0,0.0,1.1196,1.1642,1.1967,1.2004,1.2623,1.329,1.3288,1.4637,1.6265,1.7161,1.8637,2.0366,2.2303,2.4676,2.6763,2.79,2.656,2.4799,2.3536,2.1296,0.0,1.7955,1.6106,1.3928,1.1374,1.0,0.0,0.0,0.0,0.0,0.0,0.0,0.0,0.0,0.0,0.0,0.0,0.3898,0.4396,0.4955,0.5013,0.5118,0.527,0.5176,0.5284,0.5589,0.5589,0.5684,0.585,0.6391,0.6272,0.5718,0.6047,0.5402,0.4088,0.4151,0.4828,0.5814,0.5659,0.5909,0.6159,0.6064,0.5956,0.583,0.0,0.0,0.0,0.0,0.0,0.0,0.0,0.0,0.0,0.0,0.0,0.0,0.0,0.0,0.0,0.0,0.0,0.0,0.0,0.0,0.0,0.0,0.0,0.0,0.0,0.0,0.0,0.0,0.0,0.0,0.0,0.0,0.8891,0.8874,0.0,0.8637,0.902,1.0977,1.1805,1.177,1.1335,1.1264,1.1433,1.1707,0.0,0.0,0.0,0.0,0.0,0.0,0.0,0.0,1.2266,1.294,1.3509,1.286,1.3615,1.4641,1.4466,1.5496,1.68,1.7608,1.9014,2.0428,2.1147,2.4839,2.7799,2.668,2.5956,2.4701,2.2105,2.012,1.8275,1.6433,1.4744,1.2864,1.0479,0.0,0.0,0.0,0.0,0.0,0.0,0.0,0.0,0.0,0.0,0.0,0.0,0.4203,0.4691,0.4691,0.4826,0.4972,0.5128,0.5118,0.5264,0.5569,0.5583,0.5583,0.5569,0.5583,0.5576,0.5418,0.4637,0.3876,0.3064,0.3003,0.3654,0.4658,0.4668,0.5225,0.603,0.603,0.5861,0.5627,0.0,0.0,0.0,0.0,0.0,0.0,0.0,0.0,0.0,0.0,0.0,0.0,0.0,0.0,0.0,0.0,0.0,0.0,0.0,0.0,0.0,0.0,0.0,0.0,0.0,0.0,0.0,0.0,0.0,0.0,0.0,0.0,0.0,0.879,0.0,0.674,0.902,1.0977,1.1805,1.1796,1.1688,1.1558,1.1384,1.125,1.1203,0.0,0.0,0.0,0.0,0.0,0.0,0.0,1.3591,1.3672,1.3835,1.3828,1.3856,1.3845,1.3813,1.4792,1.6153,1.7473,1.9898,2.1864,2.1534,2.2215,2.2662,2.1799,2.1294,2.0508,1.8862,1.6957,1.5416,1.4496,1.2497,1.0629,0.9218,0.0,0.0,0.0,0.0,0.0,0.0,0.0,0.0,0.0,0.0,0.0,0.4239,0.4549,0.4691,0.4691,0.4721,0.4863,0.5128,0.502,0.5114,0.0,0.5532,0.5528,0.5413,0.5535,0.5116,0.4324,0.3442,0.2999,0.2899,0.2233,0.2936,0.4578,0.467,0.5222,0.603,0.603,0.5989,0.5901,0.0,0.0,0.0,0.0,0.0,0.0,0.0,0.0,0.0,0.0,0.0,0.0,0.0,0.0,0.0,0.0,0.0,0.0,0.0,0.0,0.0,0.0,0.0,0.0,0.0,0.0,0.0,0.0,0.0,0.0,1.1539,0.9749,0.9281,0.9924,0.0,0.9213,1.0056,1.1643,1.2271,1.2174,1.2174,1.22,1.2234,1.2434,1.2689,1.3061,1.3665,0.0,0.0,0.0,0.0,0.0,0.0,0.0,1.3783,1.3885,1.4049,1.414,1.4058,1.495,1.6226,1.7606,1.9272,2.0395,1.9585,1.9075,1.8531,1.7558,1.8173,1.8474,1.7226,1.5615,1.3931,1.2381,1.0293,0.8473,0.7164,0.0,0.0,0.0,0.0,0.0,0.0,0.0,0.0,0.0,0.0,0.4519,0.4519,0.4594,0.4582,0.4582,0.4582,0.4691,0.4918,0.4847,0.4738,0.4635,0.4701,0.4492,0.4151,0.4625,0.429,0.3339,0.2452,0.1813,0.1482,0.1054,0.2013,0.3781,0.388,0.468,0.5844,0.6061,0.6003,0.5806,0.0,0.0,0.0,0.0,0.0,0.0,0.0,0.0,0.0,0.0,0.0,0.0,0.0,0.0,0.0,0.0,0.0,0.0,0.0,0.0,0.0,0.0,0.0,0.0,0.0,0.0,0.0,0.0,0.0,1.4488,1.4433,1.12,1.0195,1.1147,1.2431,1.2448,1.1555,1.2485,1.2813,1.2741,1.2784,1.2932,1.3172,1.3855,1.4425,1.4897,1.5173,1.5428,1.5641,1.5641,0.0,0.0,0.0,0.0,1.3932,1.3826,1.4227,1.4624,1.4309,1.5002,1.6104,1.7467,1.7749,1.7491,1.6767,1.6031,1.5227,1.4135,1.5683,1.693,1.5779,1.4379,1.2668,1.031,0.8287,0.6573,0.537,0.0,0.0,0.0,0.0,0.0,0.0,0.0,0.0,0.0,0.0,0.4519,0.4519,0.4519,0.4519,0.4519,0.4519,0.4535,0.4691,0.4571,0.429,0.3811,0.365,0.3288,0.2703,0.3264,0.3166,0.242,0.1669,0.078,0.0,0.0,0.1119,0.2855,0.3018,0.4135,0.5637,0.6034,0.5945,0.5644,0.0,0.0,0.0,0.0,0.0,0.0,0.0,0.0,0.0,0.0,0.0,0.0,0.0,0.0,0.0,0.0,0.0,0.0,0.8891,0.0,0.0,1.3864,1.3857,0.0,0.0,0.0,0.0,0.0,1.4488,1.4488,1.4476,1.3325,1.2194,1.1113,1.1316,1.2041,1.3075,1.2842,1.2942,1.3309,1.3557,1.341,1.3184,1.3914,1.4718,1.5489,1.5518,1.6359,1.744,1.744,1.7105,0.0,0.0,0.0,1.5243,1.4779,1.4486,1.4116,1.3401,1.3642,1.4511,1.6145,1.5461,1.444,1.4549,1.3885,1.2997,0.0,1.2959,1.3606,1.276,1.1271,0.9854,0.8733,0.6682,0.537,0.5682,0.0,0.0,0.0,0.0,0.0,0.0,0.0,0.0,0.0,0.4463,0.4519,0.4519,0.4519,0.4519,0.4519,0.4519,0.4535,0.4691,0.4045,0.3752,0.3811,0.3147,0.2789,0.2673,0.1989,0.1569,0.1488,0.1337,0.0816,0.0,0.0,0.1109,0.2754,0.2904,0.4002,0.5613,0.5793,0.5823,0.5776,0.0,0.0,0.0,0.0,0.0,0.0,0.0,0.0,0.0,0.0,0.0,0.0,0.0,0.0,0.0,1.224,1.1713,1.1606,1.2013,1.358,1.4488,1.4488,1.4488,1.4488,0.0,0.0,0.0,0.0,1.4488,1.4488,1.4476,1.3761,1.3041,1.2397,1.2397,1.3104,1.4266,1.3903,1.3875,1.4059,1.3998,1.394,1.3898,1.4024,1.4709,1.5611,1.5552,1.6335,1.7392,1.7223,1.7299,1.7297,1.6345,0.0,0.0,0.0,1.4014,1.3458,1.235,1.1887,1.1848,1.2428,1.2046,1.1665,1.1988,1.1451,1.0854,1.0886,0.996,0.9336,1.0017,0.8869,0.7533,0.6562,0.5069,0.4129,0.4432,0.0,0.0,0.0,0.0,0.0,0.0,0.0,0.0,0.0,0.4519,0.4519,0.4519,0.4519,0.4519,0.4519,0.4125,0.3931,0.399,0.3192,0.2665,0.2276,0.2037,0.1874,0.1783,0.194,0.1745,0.132,0.1217,0.0965,0.0649,0.1049,0.2007,0.3212,0.3403,0.4255,0.5372,0.5684,0.5749,0.5684,0.0,0.0,0.0,0.0,0.0,0.0,0.0,0.0,0.0,0.0,0.0,0.0,0.0,0.0,0.0,0.0,1.3396,1.3715,1.4453,1.4488,1.4488,1.4488,1.4488,1.4488,1.4488,0.0,0.0,1.4678,1.4567,1.4488,1.4476,1.3761,1.326,1.298,1.298,1.3593,1.4622,1.4821,1.4652,1.424,1.4134,1.4148,1.416,1.4132,1.4716,1.552,1.5564,1.6093,1.6759,1.6538,1.6795,1.7084,1.641,1.5587,0.0,0.0,0.0,1.2231,1.0794,0.9693,0.889,0.8523,0.8417,0.8511,0.9219,0.8802,0.8483,0.0,0.7031,0.5517,0.6585,0.6073,0.5171,0.4109,0.3261,0.2885,0.3342,0.3176,0.0,0.0,0.0,0.0,0.0,0.0,0.0,0.0,0.4519,0.4519,0.4519,0.4519,0.4405,0.4181,0.368,0.3289,0.3123,0.2286,0.1527,0.0813,0.0929,0.0941,0.0842,0.1742,0.1839,0.1276,0.1345,0.1401,0.1394,0.1978,0.2732,0.36,0.3791,0.4417,0.5172,0.5508,0.5589,0.5538,0.0,0.0,0.0,0.0,0.0,0.0,0.0,0.0,0.0,0.0,0.0,0.0,0.0,1.3396,1.3396,1.3396,1.3396,1.3715,1.4453,1.4488,1.4488,1.4488,1.4488,0.0,1.4488,1.4488,1.4718,1.5165,1.4718,1.4488,1.4476,1.3761,1.2871,1.1876,1.1876,1.2483,1.3578,1.5108,1.4777,1.3336,1.3887,1.3762,1.3357,1.4173,1.4766,1.5263,1.5636,1.5842,1.5955,1.5876,1.5764,1.5697,1.6088,1.563,1.4906,0.0,0.0,0.0,0.844,0.6937,0.5739,0.5427,0.4865,0.4779,0.6184,0.0,0.5591,0.5571,0.4368,0.2956,0.1735,0.221,0.245,0.1449,0.1226,0.173,0.3121,0.2674,0.0,0.0,0.0,0.0,0.0,0.0,0.0,0.0,0.4519,0.4519,0.4519,0.4519,0.4125,0.3398,0.34,0.301,0.2286,0.1507,0.0784,0.0056,0.0056,0.0056,0.0056,0.0844,0.1123,0.1123,0.1852,0.2131,0.213,0.2203,0.2761,0.3597,0.3595,0.4202,0.5135,0.5155,0.5254,0.5463,0.0,0.0,0.0,0.0,0.0,0.0,0.0,0.0,0.0,0.0,0.0,0.0,0.0,1.6221,1.6221,1.6221,1.6221,1.6618,1.7522,1.7582,1.6665,1.4579,1.6481,1.661,1.4543,1.4488,1.4738,1.5189,1.6799,1.6276,1.3789,1.3528,1.3192,1.2815,1.2113,1.2963,1.4965,1.5546,1.5448,1.4783,1.3901,1.3391,1.3283,1.4088,1.4559,0.0,0.0,0.0,0.0,1.5426,0.0,0.0,0.0,1.4699,1.3697,1.288,1.0973,0.8737,0.694,0.5079,0.3554,0.2997,0.2653,0.2651,0.3497,0.3452,0.3251,0.3395,0.1896,0.0406,-0.0209,0.0,0.0112,-0.0278,0.0111,0.0723,0.1721,0.206,0.0,0.0,0.0,0.0,0.0,0.0,0.0,0.0,0.0,0.3812,0.3785,0.379,0.3624,0.3287,0.2397,0.1563,0.0783,0.0504,0.028,0.0,0.0,0.0224,0.0727,0.1006,0.1619,0.251,0.2767,0.293,0.2956,0.3444,0.386,0.416,0.4296,0.4502,0.487,0.506,0.5165,0.5237,0.0,0.0,0.0,0.0,0.0,0.0,0.0,0.0,0.0,0.0,0.0,0.0,0.0,0.0,1.7811,1.7811,1.7811,1.8235,1.9225,1.9305,1.8353,1.6206,1.8151,1.8298,1.6169,1.6329,1.6592,1.6901,1.8736,1.8186,1.5343,1.4023,1.3396,1.3363,1.2276,1.3286,1.577,1.5165,1.4937,1.4814,1.3682,1.3198,1.3248,1.3736,1.4281,0.0,0.0,0.0,0.0,0.0,0.0,0.0,0.0,1.386,1.2743,1.1732,1.0013,0.7991,0.6079,0.4175,0.2537,0.1591,0.1184,0.1078,0.1408,0.1135,0.0866,0.123,-0.0242,-0.1583,-0.167,-0.1885,-0.1992,-0.18,-0.1214,-0.0388,0.0657,0.1203,0.0,0.0,0.0,0.0,0.0,0.0,0.0,0.0,0.0,0.0,0.2619,0.268,0.2642,0.2563,0.1397,0.0504,0.0,0.0,0.0112,0.0392,0.0392,0.0783,0.1452,0.173,0.2397,0.3289,0.3566,0.368,0.3735,0.4294,0.4519,0.4529,0.4575,0.4646,0.4721,0.4969,0.5091,0.5152,0.0,0.0,0.0,0.0,0.0,0.0,0.0,0.0,0.0,0.0,0.0,0.0,0.0,0.0,0.0,1.7811,1.7833,1.8255,1.9243,1.9305,1.9305,1.9305,1.9305,1.9305,1.9305,1.9931,2.0277,2.0312,0.0,0.0,0.0,1.5344,1.3481,1.3363,1.2354,1.3346,1.5697,1.3934,1.3198,1.321,1.3273,1.3261,1.321,1.3248,0.0,0.0,1.5251,1.5122,0.0,1.4988,0.0,0.0,0.0,1.318,1.227,1.118,0.9648,0.784,0.0,0.0,0.0,0.1303,0.0435,-0.0037,-0.0038,0.0,-0.1482,-0.1054,-0.197,-0.2884,-0.289,-0.3523,-0.3808,-0.3208,-0.2613,-0.1652,-0.0107,0.0053,0.0,0.0,0.0,0.0,0.0,0.0,0.0,0.0,0.1581,0.1216,0.1101,0.1213,0.1184,0.106,0.0392,0.0,0.0056,0.0056,0.0392,0.1118,0.1118,0.1507,0.2232,0.2954,0.3287,0.3345,0.4125,0.4463,0.4519,0.4519,0.4519,0.4519,0.4519,0.4555,0.4704,0.4857,0.5003,0.5145,0.0,0.0,0.0,0.0,0.0,0.0,0.0,0.0,0.0,0.0,0.0,0.0,0.0,0.0,1.7811,1.7811,1.8455,1.8996,1.9289,1.9305,1.9305,1.9305,1.9305,1.9305,1.9305,1.949,1.9802,2.0312,0.0,0.0,0.0,0.0,0.0,0.0,1.4295,1.5109,1.5697,1.3934,1.3198,1.3336,1.4926,1.4613,0.0,0.0,0.0,0.0,0.0,1.4688,1.4284,0.0,1.3746,1.3073,0.0,1.2169,1.1715,1.0224,0.8846,0.7435,0.5722,0.0,0.0,0.0,0.0,0.0,-0.1041,0.0,-0.2058,-0.2067,-0.2366,-0.2654,-0.2861,-0.3443,-0.3819,-0.3617,-0.3205,-0.2521,-0.1541,-0.103,0.0,0.0,0.0,0.0,0.0,0.0,0.0,0.0,0.0533,0.0489,0.0457,0.047,0.0431,0.0336,0.0112,0.028,0.0783,0.0783,0.1174,0.1898,0.1898,0.2009,0.223,0.2397,0.2788,0.3289,0.3566,0.4015,0.4519,0.4519,0.4519,0.4519,0.4519,0.4543,0.4545,0.4697,0.485,0.4999,0.0,0.0,0.0,0.0,0.0,0.0,0.0,0.0,0.0,0.0,0.0,0.0,0.0,0.0,0.0,1.7811,1.8717,1.9305,1.9305,1.9305,1.9305,1.9305,1.9305,1.9305,1.9305,1.9305,1.9632,2.0312,0.0,0.0,0.0,0.0,0.0,0.0,0.0,1.5389,1.4658,1.3648,1.3198,1.3276,1.4191,0.0,0.0,1.3748,1.3623,0.0,0.0,0.0,1.3925,1.3576,1.2843,0.0,0.0,0.0,1.0588,0.0,0.8447,0.7414,0.6038,0.4692,0.3475,0.2443,0.0,0.0,-0.143,-0.2013,-0.2447,0.0,-0.2973,-0.3017,-0.3166,-0.3471,-0.3724,-0.3782,-0.3547,-0.3041,-0.208,-0.1728,0.0,0.0,0.0,0.0,0.0,0.0925,0.1141,0.0761,0.0374,0.0,-0.0245,-0.0306,-0.0211,0.0,0.0274,0.0662,0.1118,0.1396,0.1952,0.2676,0.2676,0.2843,0.3178,0.3178,0.34,0.379,0.3846,0.4125,0.4519,0.4519,0.4519,0.4519,0.4519,0.4519,0.4536,0.4633,0.4789,0.4942,0.0,0.0,0.0,0.0,0.0,0.0,0.0,0.0,0.0,0.0,0.0,0.0,0.0,0.0,0.0,0.0,1.8717,1.9436,1.9822,1.9491,0.0,1.9822,1.984,1.9656,1.9323,1.9305,1.9593,2.0199,0.0,0.0,0.0,0.0,0.0,0.0,0.0,0.0,1.3198,1.3198,1.3198,1.3129,1.2174,1.2321,0.0,0.0,1.2351,1.3029,1.3084,1.3292,1.3402,1.2753,1.1593,0.0,0.0,0.0,0.0,0.0,0.8129,0.7489,0.6483,0.5622,0.4664,0.307,0.1773,0.0,-0.1398,-0.2195,-0.2719,0.0,-0.3517,-0.3514,-0.3591,-0.3554,-0.3602,-0.3744,-0.3735,-0.3278,-0.2016,-0.2033,-0.162,0.0,0.0,0.0,0.0999,0.1545,0.1886,0.1792,0.0727,-0.0136,-0.0664,-0.0835,-0.0561,0.0213,0.0847,0.1236,0.134,0.2001,0.2666,0.3456,0.3456,0.379,0.4519,0.4519,0.4519,0.4519,0.4519,0.4519,0.4519,0.4519,0.4519,0.4519,0.4519,0.4519,0.4532,0.4616,0.4762,0.4911,0.0,0.0,0.0,0.0,0.0,0.0,0.0,0.0,0.0,0.0,0.0,0.0,0.0,0.0,0.0,0.0,1.8717,2.0409,2.307,0.0,0.0,2.3125,2.3235,2.2006,1.936,1.9305,1.9361,1.9504,0.0,0.0,0.0,0.0,0.0,0.0,0.0,0.0,0.0,1.3198,1.3198,1.3129,1.2174,1.1443,1.1007,1.2064,1.2245,1.2063,1.2341,1.2158,1.1582,1.0907,1.0322,0.9818,0.0,0.0,0.0,0.8166,0.0,0.0,0.0,0.0,0.0,0.0,0.0,0.0,-0.1355,-0.2271,-0.2885,0.0,-0.312,-0.3113,-0.3392,-0.3395,-0.34,-0.3595,-0.3346,-0.2812,-0.2063,-0.1989,-0.1366,0.0,0.0,0.0,0.1636,0.2173,0.2301,0.1851,0.1117,0.0678,0.0565,0.0523,0.084,0.159,0.1653,0.2043,0.2841,0.2932,0.3369,0.4294,0.4294,0.4349,0.4519,0.4519,0.4519,0.4519,0.4519,0.4519,0.4519,0.4519,0.4519,0.4519,0.4519,0.4519,0.4522,0.4553,0.4606,0.4741,0.0,0.0,0.0,0.0,0.0,0.0,0.0,0.0,0.0,0.0,0.0,0.0,0.0,0.0,0.0,0.0,0.0,0.0,0.0,0.0,0.0,0.0,2.419,2.3419,2.1767,2.0134,2.0097,2.173,0.0,0.0,0.0,0.0,0.0,0.0,0.0,0.0,0.0,1.2543,1.1763,1.1799,1.2282,0.0,1.038,1.1175,1.1394,1.1297,1.1217,1.0721,0.999,0.9432,0.878,0.0,0.7762,0.7336,0.6942,0.0,0.6108,0.541,0.0,0.0,0.0,0.2461,0.0,0.0,0.0,-0.2263,-0.2908,-0.3341,-0.3283,-0.3159,-0.3161,-0.3016,-0.289,-0.2796,-0.2544,-0.2162,-0.1648,-0.1561,-0.0957,0.0706,0.0,0.0,0.2227,0.2789,0.3031,0.2667,0.2654,0.2429,0.1928,0.1886,0.1958,0.2116,0.2395,0.2803,0.3287,0.3621,0.4059,0.4519,0.4519,0.4519,0.4519,0.4519,0.4519,0.4519,0.4519,0.4519,0.4519,0.4519,0.4519,0.4519,0.4519,0.4519,0.4519,0.4519,0.4558,0.4691,1.5562,1.7618,0.0,0.0,0.0,0.0,0.0,0.0,0.0,0.0,0.0,0.0,0.0,0.0,2.231,0.0,0.0,0.0,0.0,0.0,0.0,0.0,2.419,2.419,2.419,2.1352,2.1187,2.3834,0.0,0.0,0.0,0.0,0.0,0.0,0.0,0.0,1.5118,1.2076,1.0626,1.0438,0.0,1.1678,1.0283,1.0157,1.0377,1.066,0.9958,0.9262,0.8591,0.7944,0.7086,0.6231,0.5907,0.5466,0.0,0.0,0.0,0.0,0.0,0.0,0.0,0.0,0.0,-0.0449,0.0,0.0,0.0,-0.3589,-0.3493,-0.3226,-0.2887,0.0,0.0,0.0,0.0,0.0,0.0,-0.0967,0.0,0.0744,0.0,0.0,0.2636,0.3353,0.3744,0.3679,0.4243,0.4184,0.3295,0.3254,0.3034,0.2588,0.3156,0.3475,0.3508,0.4155,0.4436,0.4519,0.4519,0.4519,0.4519,0.4519,0.4519,0.4519,0.4519,0.4519,0.4519,0.4519,0.4519,0.4519,0.4519,0.4519,0.4519,0.4519,0.4541,0.4646,1.9353,1.9463,1.9305,0.0,0.0,0.0,0.0,0.0,0.0,0.0,0.0,0.0,2.2432,2.231,2.231,2.231,2.231,0.0,2.012,0.0,0.0,0.0,2.419,2.419,2.419,2.274,2.2156,2.2525,0.0,0.0,0.0,0.0,0.0,0.0,0.5981,0.0,1.3471,1.2859,1.1699,0.0,1.0544,1.0505,0.0,0.9588,0.9663,1.0016,0.8761,0.821,0.776,0.0,0.5453,0.514,0.0,0.3919,0.3571,0.3673,0.0,0.0,0.0,0.0,0.0,0.0,0.0092,0.0,-0.1663,0.0,-0.3336,-0.3353,0.0,-0.2994,-0.2636,0.0,0.0,0.0,0.0,0.0,-0.0912,-0.0446,0.0128,0.0809,0.0953,0.0,0.0,0.3666,0.4303,0.4299,0.4865,0.5002,0.452,0.4485,0.4312,0.3971,0.3958,0.4075,0.4346,0.4281,0.4334,0.4519,0.4519,0.4519,0.4519,0.4519,0.4519,0.4519,0.4519,0.4519,0.4519,0.4519,0.4519,0.4519,0.4519,0.4519,0.4519,0.4519,0.4529,0.4543,1.8833,1.9086,1.9305,0.0,0.0,0.0,0.0,0.0,0.0,0.0,0.0,0.0,2.2349,2.1401,2.0178,1.8661,2.0849,2.1554,1.9818,2.0379,0.0,0.0,2.3792,2.419,2.419,0.0,0.0,0.0,2.1291,0.0,0.0,0.0,0.0,0.0,1.0663,0.0,0.7738,0.0,1.0722,0.0,0.0,0.9426,0.0,0.8937,0.8659,0.8154,0.6868,0.6203,0.5669,0.0,0.3821,0.0,0.0,0.0,0.0,0.2594,0.0,0.0,0.0,0.0,0.0,0.0,0.0,0.0,-0.1218,0.0,-0.3017,0.0,0.0,0.0,0.0,0.0,0.0,0.0,-0.0558,0.0,0.0,0.0,0.0323,0.0,0.0,0.0,0.0,0.0,0.0,0.0,0.5644,0.5841,0.5377,0.4909,0.4335,0.3704,0.3607,0.3684,0.3846,0.4181,0.4402,0.4519,0.4519,0.4519,0.4519,0.4519,0.4519,0.4519,0.4519,0.4519,0.4519,0.4519,0.4519,0.4519,0.4519,0.4519,0.4519,0.4519,0.4519,0.4519,1.9177,1.8953,1.8876,1.8876,0.0,0.0,0.0,0.0,0.0,0.0,2.3091,2.231,2.231,2.0731,1.8946,1.7043,2.0196,2.1256,1.8778,1.9286,2.0481,2.2209,2.272,2.317,2.3667,2.154,0.0,1.969,2.0514,0.0,0.0,0.0,0.0,0.0,0.0,1.1759,0.6601,0.0,0.94,0.8727,0.8925,0.8132,0.6967,0.7545,0.714,0.6139,0.4937,0.4294,0.3845,0.2711,0.2293,0.0,0.1719,0.0,0.1475,0.0,0.0,0.0,0.0693,0.0,0.0,0.0,0.0,0.0,0.0,0.0,0.0,0.0,0.0,0.0,0.0,0.0,0.0,0.0,0.0,0.0,0.0,0.0,0.0,0.0,0.0,0.0,0.0,0.0,0.0,0.5239,0.5991,0.6233,0.5833,0.4911,0.4213,0.3671,0.34,0.3456,0.368,0.4236,0.4519,0.4519,0.4519,0.4519,0.4519,0.4519,0.4519,0.4519,0.4519,0.4519,0.4519,0.4519,0.4519,0.4519,0.4519,0.4519,0.4519,0.4519,0.4519,0.4519,2.2158,1.9832,1.7839,1.7839,2.1292,0.0,0.0,0.0,0.0,2.419,2.3091,2.231,2.231,2.0731,1.966,1.957,2.1243,2.0504,1.62,1.8302,2.0481,2.2209,2.0715,2.0649,2.2321,2.2265,2.1385,1.969,2.0326,2.0599,0.0,0.0,0.0,0.0,1.6488,1.5495,1.3676,0.9706,0.8306,0.8776,0.8517,0.6504,0.3763,0.0,0.4979,0.4353,0.3193,0.0,0.0,0.143,0.1061,0.0,0.0,0.0,0.0,0.0,0.0,0.0,0.0,0.0,0.0,0.0,0.0,0.0,0.0,0.0,-0.183,0.0,0.0,0.0,0.0,0.0,0.0,0.0,0.0,0.0,0.0,0.0,0.0,0.0,0.0,0.0,0.0,0.0,0.4737,0.508,0.568,0.5935,0.5794,0.4684,0.4174,0.4457,0.368,0.368,0.446,0.4463,0.4519,0.4519,0.4519,0.4519,0.4519,0.4519,0.4519,0.4519,0.4519,0.4519,0.4519,0.4519,0.4519,0.4519,0.4519,0.4519,0.4519,0.4519,0.4519,0.4519,2.231,2.1498,2.0162,1.8166,2.136,2.3915,0.0,2.3664,2.419,2.419,2.3091,2.1857,2.0714,2.005,1.969,1.969,2.0243,1.9958,1.8485,1.9231,2.0481,2.2209,2.0632,1.998,2.0581,1.9177,1.889,1.969,1.9889,1.998,0.0,0.0,0.0,0.0,0.0,1.4247,0.0,0.0,0.0,0.0,0.0,0.4375,0.2786,0.0,0.0,0.3131,0.1921,0.1519,0.0,0.058,0.0319,0.032,0.0055,0.0,0.0,0.0,0.0,0.0,0.0,0.0,0.0,0.0,0.0,0.0,0.0,0.0,0.0,0.0,0.0,0.0,0.0,0.0,0.0,0.0,0.0,0.0,0.0,0.0,0.0,0.0,0.0,0.0,0.0,0.0,0.0,0.5447,0.5811,0.5941,0.5794,0.4172,0.3428,0.3674,0.2954,0.2954,0.368,0.4236,0.4519,0.4519,0.4519,0.4519,0.4519,0.4519,0.4519,0.4519,0.4519,0.4519,0.4519,0.4519,0.4519,0.4519,0.4519,0.4519,0.4519,0.4519,0.4519,0.4532,2.218,2.231,2.1462,1.8795,2.1599,2.3771,2.2497,2.2993,2.3513,2.3513,2.2807,2.1631,1.9889,1.969,1.969,1.969,1.969,1.969,1.969,1.969,2.0208,2.1323,2.0311,1.969,1.969,1.7585,1.7544,1.969,1.893,1.8574,1.8559,0.0,0.0,0.0,0.0,1.3529,1.1602,1.0496,0.8761,0.0,0.0,0.2258,0.0,0.0,0.1865,0.1914,0.0,0.0579,0.0508,0.0105,0.0,0.0,0.0,0.0,0.0,0.0,0.0,0.0,0.0,0.0,0.0,0.0,0.0198,0.0,0.0818,0.0,0.0,0.0,0.0,0.0,0.0,0.0,0.0,0.0,0.0,0.0,0.0,0.1339,0.0,0.0,0.2201,0.2598,0.0,0.3971,0.4935,0.5716,0.5686,0.5674,0.0,0.0,0.3261,0.3732,0.301,0.2954,0.3735,0.4236,0.4519,0.4519,0.4519,0.4519,0.4519,0.4519,0.4519,0.4519,0.4519,0.4519,0.4519,0.4519,0.4519,0.4519,0.4519,0.4519,0.4519,0.4519,0.4519,0.4539,2.1945,2.2349,2.1788,1.9878,2.2116,2.3771,2.2497,2.231,2.2282,2.218,2.218,2.1554,1.9889,1.9603,1.953,1.953,1.953,1.9507,1.9495,1.9615,1.969,1.969,1.9603,1.953,1.953,1.7544,1.7504,1.953,1.7504,1.6522,1.6539,0.0,0.0,0.0,1.5484,0.0,1.1593,0.9298,0.6795,0.4059,0.1221,0.0346,0.0805,0.0195,0.0335,0.0758,0.0228,0.0,0.0,0.0,0.0,0.0,0.0,0.0,0.0,0.0,0.0,0.0,0.0,0.0,0.0,0.0,0.0,0.0,0.0,0.0,0.1005,0.0,0.0,0.0,0.0,0.0,0.0,0.0,0.0,0.0,0.0,0.0,0.189,0.0,0.2779,0.3151,0.3304,0.4147,0.5061,0.5924,0.5408,0.5295,0.0,0.0,0.3785,0.446,0.3735,0.368,0.4519,0.4519,0.4519,0.4519,0.4519,0.4519,0.4519,0.4519,0.4519,0.4519,0.4519,0.4519,0.4519,0.4519,0.4519,0.4519,0.4519,0.4519,0.4519,0.4519,0.4519,0.4539,2.1945,2.3067,2.356,2.3033,2.3639,2.3771,2.2497,2.231,2.184,2.0548,2.0379,2.0208,1.9747,1.8302,1.7312,1.7312,1.7312,1.718,1.683,1.8597,1.969,1.969,1.8185,1.7312,1.7312,1.6795,1.6752,1.7312,1.6752,1.6522,1.6552,0.0,0.0,0.0,0.0,1.2666,1.0779,0.852,0.5934,0.3158,0.1356,0.0507,0.0207,0.0,0.0099,0.0191,0.0047,0.0,0.0,0.0,0.0,0.0,0.0,0.0,0.0,0.0,0.0,0.0,0.0,0.0,0.0,0.0,0.0157,0.037,0.0,0.0,0.0,0.0,0.0,0.0,0.0,0.0,0.0,0.0,0.0,0.0,0.0,0.0,0.0,0.4569,0.5086,0.4935,0.3901,0.5059,0.623,0.7107,0.7148,0.7043,0.6867,0.0,0.0,0.4515,0.3735,0.368,0.4519,0.4519,0.4519,0.4519,0.4519,0.4519,0.4519,0.4519,0.4519,0.4519,0.4519,0.4519,0.4519,0.4519,0.4519,0.4519,0.4519,0.4519,0.4519,0.4519,0.4519,0.4556,2.2123,2.333,2.419,2.419,2.419,0.0,2.2497,2.1661,0.0,1.9818,1.8893,0.0,1.9603,1.7787,1.6522,1.6522,1.6522,1.6798,1.7468,1.8867,1.969,1.969,1.7626,1.6951,1.7867,1.6993,1.6522,1.6522,1.6522,0.0,1.6522,0.0,0.0,0.0,0.0,1.0499,0.9209,0.631,0.388,0.1932,0.0932,0.0315,0.0,0.0,0.0,0.0,0.0,0.0,0.0,0.0,0.0,0.0,0.0,0.0,0.0,0.0,0.0,0.0,0.0,0.0,0.0,0.0,0.0269,0.0542,0.0855,0.0692,0.0634,0.0,0.0,0.0,0.0,0.0,0.0,0.0,0.0,0.0,0.0,0.0,0.0,0.0,0.5622,0.5613,0.5056,0.6268,0.71,0.7143,0.7478,0.7374,0.0,0.0,0.0,0.4512,0.407,0.407,0.4519,0.4519,0.4519,0.4519,0.4519,0.4519,0.4519,0.4519,0.4519,0.4519,0.4519,0.4519,0.4519,0.4519,0.4519,0.4519,0.4519,0.4519,0.4525,0.4594,0.4562,0.4596,2.231,2.3188,2.3955,2.3955,2.3955,0.0,0.0,2.0268,0.0,1.9639,0.0,1.7111,1.8666,1.7168,1.6095,1.6095,1.6346,1.7312,1.9169,1.9281,1.9281,1.9281,1.7504,1.7316,1.9146,1.7129,1.6051,0.0,0.0,0.0,0.0,0.0,0.0,0.0,0.0,0.0,0.0,0.3436,0.1479,0.0586,0.016,0.0,0.0,0.0,0.0,0.0,0.0,0.0,0.0,0.0,0.0,0.0,0.0,0.0,0.0,0.0,0.0,0.0,0.0,0.0,0.0,0.0,0.0493,0.0944,0.081,0.0857,0.1123,0.1604,0.0837,0.0207,0.0,0.0,0.0,0.0,0.0,0.0,0.0,0.0,0.0,0.0,0.0,0.0,0.6341,0.7382,0.7747,0.6946,0.7213,0.7015,0.6034,0.0,0.0,0.4512,0.4519,0.4525,0.4546,0.0,0.4529,0.4546,0.4525,0.4519,0.4519,0.4519,0.4519,0.4519,0.4519,0.4519,0.4519,0.4519,0.4519,0.4519,0.4519,0.4529,0.4563,0.4643,0.4714,0.4769,2.231,2.247,2.2642,2.2642,2.2642,2.1477,1.8032,1.7272,1.7706,1.9479,1.7827,1.5942,1.451,1.4011,1.3774,1.3774,1.5439,0.0,0.0,0.0,0.0,1.7076,1.671,1.6493,1.6473,1.4701,1.3689,0.0,0.0,0.0,0.0,0.0,0.0,0.0,0.0,0.0,0.1846,0.1336,0.0,-0.0692,-0.022,0.0,0.0,0.0,0.0,0.0,0.0,0.0,0.0,0.0,0.0,0.0,0.0,0.0,0.0,0.0,0.0,0.0,0.0,0.0,0.0,0.0,0.0112,0.0168,0.0167,0.0167,0.0222,0.0333,0.0166,0.0055,0.0166,0.0,0.0,0.0,0.0,0.0,0.0,0.0,0.0,0.0,0.0,0.6936,0.6899,0.7454,0.8045,0.848,0.7916,0.7367,0.0,0.0,0.0,0.0,0.4519,0.0,0.0,0.0,0.458,0.465,0.4577,0.4519,0.4519,0.4519,0.4519,0.4519,0.4519,0.4519,0.4519,0.4519,0.4519,0.4519,0.4519,0.4594,0.4653,0.468,0.4847,0.5057,2.2123,2.231,2.2003,2.1103,2.0959,0.0,0.0,1.4037,1.5042,1.62,1.4548,1.2884,1.1827,1.1689,1.1689,1.1689,1.3482,1.5152,1.6423,1.6522,1.6007,1.4826,1.4776,1.4691,1.4465,1.3648,1.2649,1.1533,0.0,0.0,0.0,0.0,0.0,0.8378,0.0,0.2571,0.0,0.0,0.0,-0.1092,-0.0723,-0.0783,-0.1118,-0.1118,-0.1149,-0.1114,-0.0691,-0.0559,-0.0529,-0.015,0.0,0.0,0.0,0.0,0.0,0.0,0.0,0.0,0.0,0.0,0.0,0.0,0.0,0.0,0.0,0.0,0.0112,0.0504,0.056,0.0671,0.1062,0.0828,0.0,0.0,0.0,0.0,0.0,0.0,0.5449,0.0,0.0,0.0,0.0,0.0,0.0,0.0,0.0,0.0,0.0,0.0,0.0,0.0,0.0,0.0,0.0,0.0,0.0,0.4572,0.4553,0.4519,0.4519,0.4519,0.4519,0.4519,0.4519,0.4519,0.4519,0.4519,0.4567,0.4579,0.4579,0.4674,0.4816,0.4891,0.5009,0.5131,2.1945,2.202,2.1323,1.9945,1.9332,1.703,1.1193,1.1445,1.2392,1.2565,1.1244,1.0283,1.0283,1.0283,1.043,1.0801,1.209,1.3705,1.5611,1.5744,1.4809,1.2663,1.2567,1.2567,1.2567,1.2567,1.1836,0.0,0.0,0.0,0.0,0.0,0.0,0.0,0.0,0.0,0.0,0.0,-0.1174,-0.1118,-0.1118,-0.1452,-0.2009,-0.212,-0.2194,-0.209,-0.1341,-0.1103,-0.0974,-0.0266,0.0,0.0,0.0,0.0,0.0,0.0,0.0,0.0,0.0,0.0,0.0,0.0,0.0,0.0,0.0,0.0,0.0224,0.095,0.1118,0.134,0.2063,0.1619,0.0,0.0,0.0,0.0,0.0,0.0,0.0,0.0,0.0,0.0,0.8729,0.0,0.0,0.0,0.0,0.0,0.6197,0.0,0.0,0.0,0.0,0.4532,0.4567,0.0,0.4532,0.4567,0.4532,0.4519,0.4519,0.4519,0.4519,0.4519,0.4519,0.4536,0.4567,0.4567,0.4602,0.4741,0.4741,0.483,0.4975,0.5091,0.5152,0.5179,2.1945,2.1039,0.0,0.0,0.0,1.5347,1.0962,1.042,1.0538,1.0564,1.039,1.0283,1.0283,1.0283,1.0959,1.25,1.2793,1.3027,1.32,1.3248,1.2453,1.0653,1.0582,1.0582,1.0582,1.0582,1.0467,0.0,0.0,1.161,0.0,0.0,0.0,0.0,0.0,0.0,0.0,-0.0331,-0.0504,-0.1118,-0.1118,-0.1118,-0.1284,-0.1952,-0.2227,-0.2109,-0.1389,-0.1088,-0.1009,-0.0275,0.0,0.0,0.0,0.0,0.0,0.0,0.0,0.0,0.0,0.0,0.0,0.0,0.0,0.0,0.0,0.0,0.0224,0.095,0.1118,0.134,0.2063,0.1619,0.1562,0.0,0.0,0.0,0.0,0.0,0.5926,0.7127,0.0,0.0,0.7957,0.8641,0.8714,0.0,0.7627,0.0,0.0,0.0,0.0,0.4512,0.0,0.4584,0.4667,0.4587,0.4587,0.4667,0.4584,0.4519,0.4519,0.4519,0.4519,0.4519,0.4519,0.4541,0.467,0.467,0.4758,0.4897,0.4897,0.4986,0.5111,0.5125,0.522,0.5342,0.0,0.0,0.0,0.0,0.0,0.0,0.0,0.9182,0.8812,1.0118,1.0283,0.9795,0.8448,0.8325,0.8897,1.0311,1.1959,1.2881,1.2881,1.2881,1.21,1.04,1.0283,1.0283,1.0283,1.0283,0.9148,0.0,0.0,0.0,0.0,0.0,0.0,0.0,0.0,0.0666,-0.0439,-0.0111,-0.0448,-0.1118,-0.1563,-0.2065,-0.2565,-0.3289,-0.3287,-0.2843,-0.2065,-0.1495,-0.0988,-0.0223,0.0,0.0,0.0,0.0,0.0,0.0,0.0,0.0,0.0,0.0,0.0,0.0,0.0,0.0,0.0,0.0,0.0056,0.0392,0.0448,0.095,0.2621,0.2286,0.2232,0.0,0.0,0.0,0.0,0.0,0.0,0.7366,0.0,0.7825,0.8595,0.8974,0.8956,0.8435,0.0,0.0,0.0,0.0,0.0,0.4512,0.0,0.4546,0.4555,0.4549,0.4549,0.4555,0.4546,0.4519,0.4519,0.4519,0.4519,0.4522,0.4558,0.4633,0.4697,0.4789,0.4914,0.5047,0.5047,0.5138,0.527,0.527,0.5308,0.5428,1.5752,0.0,1.5277,0.0,1.2741,1.0768,0.951,0.7439,0.6289,0.7181,0.7282,0.7216,0.7007,0.6979,0.7502,0.8704,1.1301,1.2407,1.123,1.2244,1.21,1.04,1.0283,0.0,0.9341,0.9341,0.7295,0.3178,0.5237,0.0,0.0,0.0,0.0,0.0,0.2936,0.095,0.0,0.0,-0.028,-0.0838,-0.1563,-0.2232,-0.2788,-0.3566,-0.3511,-0.2954,-0.2176,-0.1563,-0.1006,-0.0224,0.0,0.0,0.0,0.0,0.0,0.0,0.0,0.0,0.0,0.0,0.0,0.0,0.0,0.0,0.0,0.0,0.0056,0.028,0.0336,0.0951,0.301,0.2732,0.2732,0.4239,0.0,0.0,0.0,0.6032,0.0,0.7883,0.7764,0.7878,0.868,0.8552,0.8289,0.0,0.0,0.0,0.0,0.0,0.0,0.0,0.0,0.0,0.0,0.4519,0.4519,0.4519,0.4519,0.4519,0.4519,0.4567,0.4555,0.4602,0.4711,0.4782,0.4826,0.4938,0.5189,0.5574,0.526,0.5487,0.5822,0.5561,0.5454,0.5491,1.2978,1.2929,1.2381,1.0695,0.8553,0.7076,0.7021,0.5087,0.2815,0.0448,0.0135,0.186,0.6489,0.6979,0.7502,0.8704,1.1301,1.123,0.7327,1.0745,1.21,0.0,0.0,0.9262,0.7105,0.7021,0.4743,0.0056,0.0,0.0,0.4392,0.0,0.2923,0.0112,0.0056,0.0,0.0,0.0,0.0,-0.0056,-0.0839,-0.1118,-0.1229,-0.1952,-0.2232,-0.212,-0.1396,-0.1118,-0.1006,-0.0224,0.0,0.0,0.0,0.0,0.0,0.0,0.0,0.0,0.0,0.0,0.0,0.0,0.0,0.0,0.0,0.0,0.0224,0.095,0.1062,0.1563,0.301,0.2674,0.2732,0.4239,0.0,0.0,0.0,0.0,0.0,0.8699,0.792,0.7396,0.7694,0.708,0.0,0.0,0.0,0.0,0.0,0.0,0.0,0.4515,0.4519,0.0,0.4519,0.4519,0.4519,0.4519,0.4519,0.4519,0.4522,0.4619,0.4769,0.4914,0.4914,0.4996,0.5125,0.5128,0.5724,0.6588,0.5749,0.5978,0.68,0.5928,0.5677,0.5796,1.0482,0.9423,0.8719,0.8157,0.6186,0.3567,0.0262,0.0575,0.0851,0.009,0.0,0.0581,0.2081,0.3716,0.5463,0.0,0.9109,0.9598,0.0,0.8645,0.8621,0.8054,0.8039,0.6987,0.4744,0.305,0.1505,0.0,0.0,0.0,0.0,0.1389,0.0892,0.0,0.0,0.0,0.0,0.0,0.0,-0.0056,-0.0783,-0.1118,-0.1174,-0.1898,-0.1898,-0.1396,-0.1174,-0.0783,-0.0336,-0.0056,0.0,0.0,0.0,0.0,0.0,0.0,0.0,0.0,0.0,0.0,0.0,0.0,0.0,0.0,0.0,0.0,0.0056,0.028,0.0336,0.0783,0.2286,0.2343,0.2732,0.4239,0.5058,0.0,0.0,0.0,0.702,0.7289,0.7009,0.6833,0.6961,0.6717,0.0,0.0,0.0,0.0,0.0,0.0,0.0,0.0,0.4619,0.0,0.4619,0.4619,0.4565,0.4519,0.4519,0.4573,0.4623,0.4775,0.4874,0.4925,0.502,0.5087,0.5145,0.5355,0.561,0.5771,0.5717,0.5839,0.6076,0.66,0.6812,0.6789,0.6037,0.4894,0.4066,0.3162,0.1839,-0.0133,-0.3126,-0.2326,-0.1343,-0.1343,-0.0583,0.0,0.0,0.1343,0.0,0.5513,0.6432,0.6845,0.6845,0.6163,0.5733,0.5733,0.4833,0.3161,0.0628,-0.0905,0.0,-0.0578,-0.0165,0.0,0.0,0.0,0.0,0.0,0.0,0.0,0.0,0.0,0.0,-0.0056,-0.0504,-0.0671,-0.0727,-0.1174,-0.1062,-0.0671,-0.0671,-0.0392,0.0,0.0,0.0,0.0,0.0,0.0,0.0,0.0,0.0,0.0,0.0,0.0,0.0,0.0,0.0,0.0,0.0,0.0,0.0,0.0,0.0,0.0448,0.1952,0.2174,0.2732,0.4239,0.5058,0.5487,0.5487,0.0,0.6588,0.0,0.0,0.0,0.0,0.6,0.5852,0.0,0.0,0.0,0.0,0.0,0.0,0.4684,0.4691,0.0,0.4775,0.4775,0.4728,0.4633,0.4633,0.4741,0.4942,0.4982,0.506,0.5172,0.5203,0.525,0.5318,0.5511,0.5768,0.6021,0.587,0.5994,0.6324,0.706,0.7219,0.6992,0.0278,-0.0269,-0.0941,0.0,-0.3581,0.0,-0.3581,-0.3581,-0.3581,-0.3581,-0.1655,-0.0269,-0.0269,-0.0269,0.0671,0.2901,0.0,0.0,0.0,0.3353,0.3262,0.3123,0.0939,-0.159,-0.445,-0.4519,-0.3458,-0.1398,-0.0448,0.0,0.0,0.0,0.0,0.0,0.0,0.0,0.0,0.0,0.0,0.0,0.0,0.0,0.0,0.0,0.0,0.0,0.0,0.0,0.0,0.0,0.0,0.0,0.0,0.0,0.0,0.0,0.0,0.0,0.0,0.0,0.0,0.0,0.0,0.0,0.0,0.0,0.0,0.0,0.0,0.0448,0.1952,0.2174,0.2732,0.4239,0.5058,0.5483,0.5433,0.0,0.0,0.0,0.0,0.0,0.0,0.4947,0.464,0.0,0.0,0.0,0.0,0.0,0.4748,0.4738,0.4738,0.4806,0.4948,0.4948,0.4942,0.4918,0.4942,0.5094,0.5425,0.5233,0.5328,0.5583,0.545,0.5467,0.5593,0.5613,0.618,0.694,0.6111,0.6415,0.7265,0.7434,0.7032,0.6567,0.0,0.0,-0.2907,-0.349,-0.3581,-0.3581,-0.3581,-0.3581,-0.3581,-0.3581,-0.3084,-0.2726,-0.2726,-0.2726,-0.2499,-0.1954,-0.0223,0.0851,0.0851,0.0851,0.0045,-0.1821,-0.2453,-0.3277,-0.445,-0.4519,-0.3121,-0.0336,-0.0112,0.0,0.0,0.0,0.0,0.0,0.0,0.0,0.0,0.0,0.0,0.0,0.0,0.0,0.0,0.0,0.0,0.0,0.0,0.0,0.0,0.0,0.0,0.0,0.0,0.0,0.0,0.0,0.0,0.0,0.0,0.0,0.0,0.0,0.0,0.0,0.0,0.0,0.0,0.0,0.0,0.0448,0.1952,0.2174,0.2732,0.4239,0.5058,0.5324,0.4787,0.4818,0.0,0.0,0.4077,0.4079,0.4079,0.4435,0.4769,0.0,0.0,0.0,0.0,0.525,0.5325,0.5206,0.5203,0.522,0.5257,0.5257,0.5145,0.4921,0.5148,0.5294,0.5435,0.5555,0.5623,0.5593,0.5667,0.5657,0.5606,0.5833,0.6019,0.6111,0.6136,0.6252,0.641,0.7358,0.7592,0.748,-0.6064,-0.5968,-0.5581,-0.4228,-0.3761,-0.3673,-0.399,-0.4034,-0.3935,-0.3615,-0.3581,-0.3581,-0.3581,-0.387,-0.4034,-0.4034,-0.2565,-0.1755,-0.2031,-0.2041,-0.2509,-0.3547,-0.3887,-0.4185,-0.4512,-0.4519,-0.368,-0.2065,-0.0671,0.0,0.0,0.0,0.0,0.0,0.0,0.0,0.0,0.0,0.0,0.0,0.0,0.0,0.0,0.0,0.0,0.0,0.0,0.0,0.0,0.0,0.0,0.0,0.0,0.0,0.0,0.0,0.0,0.0,0.0,0.0,0.0,0.0,0.0,0.0,0.0,0.0,0.0,0.0,0.0287,0.0858,0.1998,0.2479,0.3121,0.4294,0.4787,0.4809,0.4038,0.3929,0.0,0.2928,0.3322,0.3695,0.3695,0.4501,0.5064,0.5223,0.5237,0.0,0.5338,0.5501,0.5518,0.5432,0.543,0.5498,0.5562,0.5562,0.5481,0.5325,0.5484,0.5599,0.5671,0.5762,0.5796,0.5789,0.5796,0.5796,0.5803,0.5962,0.6023,0.6027,0.6196,0.6513,0.6969,0.8045,0.8161,0.7859,-0.8804,-0.8427,-0.7391,-0.4952,-0.4096,-0.3931,-0.444,-0.4519,-0.4337,-0.3825,-0.376,-0.376,-0.376,-0.4213,-0.4519,-0.4519,-0.4052,-0.3938,-0.4354,-0.4467,-0.4292,-0.3734,-0.4247,-0.4519,-0.4519,-0.4519,-0.4519,-0.4519,-0.1786,-0.0336,-0.0168,-0.0056,0.0,0.0,0.0,0.0,0.0,0.0,0.0,0.0,0.0,0.0,0.0,0.0,0.0,0.0,0.0,0.0,0.0,0.0,0.0,0.0,0.0,0.0,0.0,0.0,0.0,0.0,0.0,0.0,0.0,0.0,0.0,0.0,0.0,0.0,0.0,0.0,0.059,0.1358,0.2053,0.2805,0.3593,0.4383,0.4438,0.4094,0.3465,0.0,0.2781,0.2112,0.3011,0.3658,0.3658,0.4728,0.5413,0.5457,0.544,0.5494,0.5647,0.5677,0.562,0.5467,0.5589,0.5715,0.5833,0.5813,0.58,0.58,0.5823,0.5905,0.6027,0.5918,0.5928,0.6023,0.5918,0.5932,0.6034,0.6078,0.6173,0.6295,0.6318,0.6928,0.7902,0.8621,0.8458,0.7902,-0.8804,-0.6848,-0.5007,-0.457,-0.444,-0.4409,-0.4505,-0.4519,-0.4484,-0.4391,-0.4378,-0.4378,-0.4378,-0.4464,-0.4519,-0.4519,-0.4433,-0.4203,-0.3744,-0.4237,-0.4477,-0.4385,-0.4467,-0.4519,-0.4519,-0.4519,-0.4519,-0.4519,-0.3183,-0.2012,-0.0895,-0.028,0.0,0.0,0.0,0.0,0.0,0.0,0.0,0.0,0.0,0.0,0.0,0.0,0.0,0.0,0.0,0.0,0.0,0.0,0.0,0.0,0.0,0.0,0.0,0.0,0.0,0.0,0.0,0.0,0.0,0.0,0.0,0.0,0.0,0.0,0.0,0.0,0.0661,0.1455,0.2062,0.2917,0.3782,0.4538,0.407,0.3587,0.358,0.0,0.1386,0.1259,0.2284,0.3065,0.3065,0.4557,0.5657,0.5908,0.5806,0.58,0.5952,0.6084,0.6084,0.5932,0.5949,0.5973,0.5993,0.5867,0.58,0.5803,0.5932,0.6006,0.6034,0.6139,0.6132,0.6034,0.6142,0.6129,0.6051,0.6302,0.6417,0.6454,0.658,0.7193,0.787,0.7307,0.7507,0.787,-0.647,-0.5386,-0.5007,-0.6524,-0.6794,-0.6794,-0.6794,-0.5496,-0.4519,-0.4519,-0.4519,-0.4519,-0.4519,-0.4519,-0.4519,-0.4519,-0.4519,-0.4398,-0.4124,-0.4364,-0.4519,-0.4519,-0.4519,-0.4519,-0.4519,-0.4519,-0.4519,-0.4519,-0.3178,-0.2289,-0.1675,-0.0504,0.0,0.0,0.0,0.0,0.0,0.0,0.0,0.0,0.0,0.0,0.0,0.0,0.0,0.0,0.0,0.0,0.0,0.0,0.0,0.0,0.0,0.0,0.0,0.0,0.0,0.0,0.0,0.0,0.0,0.0,0.0,0.0,0.0,0.0,0.0,0.0,0.1062,0.2008,0.2288,0.3359,0.4151,0.4108,0.3714,0.0,0.0,0.1601,0.0952,0.056,0.1524,0.2447,0.2965,0.4252,0.5322,0.6135,0.5935,0.5905,0.6142,0.622,0.6261,0.6268,0.6193,0.619,0.6268,0.6122,0.6047,0.6051,0.6122,0.6193,0.6271,0.6342,0.638,0.6396,0.6468,0.6458,0.6403,0.6539,0.6597,0.6603,0.6671,0.7304,0.8048,0.7648,0.7788,0.8052,-0.5496,-0.5496,-0.6199,-0.8427,-0.8804,-0.8804,-0.8804,-0.6362,-0.4519,-0.4519,-0.4519,-0.4736,-0.5441,-0.4897,-0.4519,-0.4519,-0.4519,-0.4519,-0.4519,-0.4519,-0.4519,-0.4519,-0.4519,-0.4519,-0.4519,-0.4519,-0.4519,-0.4519,-0.2954,-0.212,-0.2009,-0.0615,0.0,0.0,0.0,0.0,0.0,0.0,0.0,0.0,0.0,0.0,0.0,0.0,0.0,0.0,0.0,0.0,0.0,0.0,0.0,0.0,0.0,0.0,0.0,0.0,0.0,0.0,0.0,0.0,0.0,0.0,0.0,0.0,0.0,0.0,0.0,0.0,0.1172,0.2226,0.2212,0.3252,0.4008,0.3443,0.0,0.0,0.0,0.0978,0.0632,0.0073,0.0976,0.1905,0.2665,0.3875,0.4912,0.5905,0.594,0.6078,0.6349,0.6363,0.643,0.6573,0.6403,0.638,0.6522,0.6383,0.6329,0.6363,0.6363,0.642,0.6525,0.6525,0.659,0.6702,0.6702,0.6702,0.6705,0.6739,0.6753,0.6756,0.679,0.7359,0.8234,0.8026,0.8101,0.8238,-0.848,-0.848,-0.8533,-0.8752,-0.8804,-0.8804,-0.8804,-0.6362,-0.4519,-0.4519,-0.4519,-0.5496,-0.8209,-0.6091,-0.4519,-0.4519,-0.4519,-0.4519,-0.4519,-0.4519,-0.4519,-0.4519,-0.4519,-0.4519,-0.4519,-0.4519,-0.4519,-0.4519,-0.2954,-0.1953,-0.151,-0.0504,0.0,0.0,0.0,0.0,0.0,0.0,0.0,0.0,0.0,0.0,0.0,0.0,0.0,0.0,0.0,0.0,0.0,0.0,0.0,0.0,0.0,0.0,0.0,0.0,0.0,0.0,0.0,0.0,0.0,0.0,0.0,0.0,0.0,0.0,0.0,0.0,0.0739,0.1378,0.1212,0.2,0.2618,0.2623,0.0,0.0,0.1295,0.0592,0.0075,0.0,0.0925,0.1641,0.172,0.3509,0.48,0.4999,0.5873,0.6495,0.6661,0.6668,0.6736,0.6892,0.661,0.6529,0.6681,0.6532,0.6529,0.6668,0.6668,0.6675,0.6681,0.6681,0.6692,0.6702,0.6702,0.6702,0.6712,0.6854,0.6912,0.6926,0.7054,0.7628,0.8272,0.7487,0.7707,0.828,-0.8804,-0.8804,-0.8804,-0.8804,-0.7337,-0.6145,-0.6145,-0.5222,-0.4519,-0.4519,-0.6036,-0.761,-0.8699,-0.6199,-0.4519,-0.4519,-0.4519,-0.4519,-0.4519,-0.4519,-0.4519,-0.4519,-0.4519,-0.4519,-0.4519,-0.4519,-0.4519,-0.4519,-0.2065,-0.1063,-0.1454,-0.0448,0.0,0.0,0.0,0.0,0.0,0.0,0.0,0.0,0.0,0.0,0.0,0.0,0.0,0.0,0.0,0.0,0.0,0.0,0.0,0.0,0.0,0.0,0.0,0.0,0.0,0.0,0.0,0.0,0.0,0.0,0.0,0.0,0.0,0.0,0.0,0.0,0.069,0.126,0.1199,0.1948,0.2371,0.1821,0.0,0.094,0.0542,0.0233,0.0,0.0,0.0394,0.0863,0.1568,0.2893,0.4023,0.4849,0.5907,0.6539,0.6692,0.679,0.6909,0.7054,0.6861,0.6783,0.6841,0.6692,0.6644,0.6702,0.6702,0.6749,0.6844,0.6844,0.6892,0.6973,0.6973,0.6973,0.698,0.7037,0.7058,0.7065,0.7119,0.7278,0.7679,0.8282,0.8662,0.889,-0.8804,-0.8804,-0.8533,-0.7605,-0.5819,-0.4519,-0.4519,-0.4519,-0.4519,-0.4519,-0.6199,-0.745,-0.745,-0.566,-0.4519,-0.4519,-0.4519,-0.4519,-0.4519,-0.4519,-0.4519,-0.4519,-0.4519,-0.4519,-0.4519,-0.4519,-0.4519,-0.4519,-0.1452,-0.0336,-0.1007,-0.0336,0.0,0.0,0.0,0.0,0.0,0.0,0.0,0.0,0.0,0.0,0.0,0.0,0.0,0.0,0.0,0.0,0.0,0.0,0.0,0.0,0.0,0.0,0.0,0.0,0.0,0.0,0.0,0.0,0.0,0.0,0.0,0.0,0.0,0.0,0.0,0.0,0.05,0.0865,0.088,0.1378,0.1526,0.0987,0.0829,0.0609,0.0081,0.0,0.0,0.0,0.0,0.0317,0.102,0.2362,0.3589,0.4412,0.5846,0.6702,0.6898,0.701,0.7132,0.7278,0.719,0.7139,0.7139,0.6895,0.6797,0.6841,0.6841,0.6895,0.6997,0.6997,0.7075,0.721,0.7163,0.717,0.721,0.716,0.7139,0.7139,0.7139,0.7316,0.7771,0.8918,0.9521,0.9903,-0.8804,-0.8804,-0.7883,-0.5007,-0.4519,-0.4519,-0.4519,-0.4519,-0.4519,-0.4519,-0.4519,-0.4519,-0.4519,-0.4519,-0.4519,-0.4519,-0.4519,-0.4519,-0.4519,-0.4519,-0.4519,-0.4519,-0.4519,-0.4519,-0.4519,-0.4519,-0.4463,-0.446,-0.1452,0.0,0.0,0.0,0.0,0.0,0.0,0.0,0.0,0.0,0.0,0.0,0.0,0.0,0.0,0.0,0.0,0.0,0.0,0.0,0.0,0.0,0.0,0.0,0.0,0.0,0.0,0.0,0.0,0.0,0.0,0.0,0.0,0.0,0.0,0.0,0.0,0.0,0.0,0.0,0.0,0.0,0.0,0.0,0.0,0.0,0.0,0.0,0.0,0.0,0.0,0.0,0.0,0.0,0.0,0.2079,0.3435,0.3599,0.5647,0.7061,0.7356,0.7373,0.7444,0.7594,0.76,0.76,0.76,0.7156,0.7004,0.7143,0.7143,0.7143,0.7143,0.7143,0.7227,0.7363,0.721,0.7231,0.736,0.7207,0.7143,0.7143,0.7143,0.7841,0.8915,0.9187,1.006,1.1158,-0.8804,-0.7176,-0.5496,-0.4625,-0.4519,-0.4519,-0.4519,-0.4519,-0.4519,-0.4519,-0.4519,-0.4519,-0.4519,-0.4519,-0.4519,-0.4519,-0.4519,-0.4519,-0.4519,-0.4519,-0.4519,-0.4519,-0.4519,-0.4519,-0.4519,-0.4519,-0.3456,-0.134,-0.0448,0.0,0.0,0.0,0.0,0.0,0.0,0.0,0.0,0.0,0.0,0.0,0.0,0.0,0.0,0.0,0.0,0.0,0.0,0.0,0.0,0.0,0.0,0.0,0.0,0.0,0.0,0.0,0.0,0.0,0.0,0.0,0.0,0.0,0.0,0.0,0.0,0.0,0.0,0.0,0.0,0.0,0.0,0.0,0.0,0.0,0.0,0.0337,0.1165,0.1271,0.1286,0.1277,0.1258,0.1243,0.1235,0.2479,0.3766,0.4789,0.6383,0.7326,0.7519,0.7533,0.7553,0.7597,0.76,0.76,0.76,0.7468,0.7366,0.7302,0.7411,0.7407,0.7305,0.7414,0.7489,0.7529,0.7482,0.7489,0.7519,0.7366,0.7366,0.7441,0.7224,0.7451,0.8107,0.9058,1.0352,1.1538,-0.7122,-0.571,-0.4519,-0.4519,-0.4519,-0.4519,-0.4519,-0.4519,-0.4519,-0.4519,-0.4519,-0.4519,-0.4519,-0.4519,-0.4519,-0.4519,-0.4519,-0.4519,-0.4519,-0.4519,-0.4519,-0.4519,-0.4519,-0.4519,-0.4519,-0.3345,-0.1842,0.0,0.0,0.0,0.0,0.0,0.0,0.0,0.0,0.0,0.0,0.0,0.0,0.0,0.0,0.0,0.0,0.0,0.0,0.0,0.0,0.0,0.0,0.0,0.0,0.0062,0.0383,0.0597,0.0681,0.1071,0.1155,0.1241,0.1199,0.096,0.0638,0.0628,0.0285,0.0,0.0,0.0,0.0,0.0,0.0,0.0,0.0,0.0,0.0,0.0,0.0,0.0433,0.1618,0.1819,0.2013,0.2429,0.2056,0.1778,0.1762,0.2366,0.3439,0.5313,0.6684,0.7526,0.7675,0.7682,0.7709,0.7773,0.7773,0.7773,0.7773,0.7773,0.7668,0.7461,0.7556,0.755,0.7465,0.7556,0.7631,0.7682,0.7624,0.7631,0.7672,0.7522,0.7516,0.7584,0.7394,0.7707,0.8344,0.9332,1.0829,1.2393,-0.4601,-0.4556,-0.4519,-0.4519,-0.4519,-0.4519,-0.4519,-0.4519,-0.4519,-0.4519,-0.4519,-0.4519,-0.4519,-0.4519,-0.4519,-0.4519,-0.4519,-0.4519,-0.4519,-0.4519,-0.4519,-0.4519,-0.4519,-0.4349,-0.4125,-0.1397,0.0,0.0,0.0,0.0,0.0,0.0,0.0,0.0,0.0,0.0,0.0,0.0,0.0,0.0,0.0,0.0,0.0,0.0,0.0,0.0,0.0,0.0,0.0,0.0,0.0,0.013,0.1038,0.1478,0.1747,0.2661,0.2993,0.3051,0.2978,0.233,0.1605,0.1459,0.0733,0.0,0.0,0.0,0.0,0.0,0.0,0.0,0.0,0.0,0.0,0.0,0.0,0.0436,0.1735,0.1943,0.2397,0.3656,0.2785,0.2075,0.1949,0.2071,0.3108,0.545,0.6879,0.7682,0.7824,0.7831,0.7896,0.8035,0.8038,0.8038,0.8038,0.8038,0.7896,0.7617,0.7634,0.7631,0.7617,0.7634,0.7709,0.7824,0.7695,0.7712,0.7821,0.7678,0.7628,0.7638,0.7611,0.8262,0.9226,0.9469,1.1143,1.3174,-0.5229,-0.4845,-0.4519,-0.4519,-0.4519,-0.4519,-0.4519,-0.4519,-0.4519,-0.4519,-0.4519,-0.4519,-0.4519,-0.4519,-0.4519,-0.4519,-0.4519,-0.4519,-0.4519,-0.4519,-0.4519,-0.4519,-0.4519,-0.34,-0.1006,-0.0336,0.0,0.0,0.0,0.0,0.0,0.0,0.0,0.0,0.0,0.0,0.0,0.0,0.0,0.0,0.0,0.0,0.0,0.0,0.0,0.0,0.0,0.0,0.0,0.0,0.0,0.0201,0.1229,0.1593,0.1824,0.2792,0.3108,0.2906,0.2107,0.177,0.1424,0.0525,0.0155,0.0,0.0,0.0,0.0,0.0,0.0,0.0,0.0,0.0,0.0,0.0,0.0,0.0709,0.2866,0.3174,0.3655,0.4882,0.4862,0.4357,0.3342,0.4135,0.5073,0.5681,0.6972,0.7831,0.798,0.7991,0.8004,0.8038,0.8038,0.8038,0.8038,0.8038,0.7946,0.7767,0.7885,0.7882,0.777,0.7889,0.796,0.7987,0.7957,0.7963,0.7977,0.7828,0.7834,0.7923,0.7689,0.7835,0.8318,0.8225,0.9328,1.1002,-0.5752,-0.4937,-0.4519,-0.4519,-0.4519,-0.4519,-0.4519,-0.4519,-0.4519,-0.4519,-0.4519,-0.4519,-0.4519,-0.4519,-0.4519,-0.4519,-0.4519,-0.4519,-0.4519,-0.4519,-0.4519,-0.4519,-0.4519,-0.3067,-0.0056,0.0,0.0,0.0,0.0,0.0,0.0,0.0,0.0,0.0,0.0,0.0,0.0,0.0,0.0,0.0,0.0,0.0,0.0,0.0,0.0,0.0,0.0,0.0,0.0,0.0,0.0,0.0138,0.1131,0.1867,0.2472,0.3461,0.3802,0.3761,0.3235,0.2377,0.1487,0.094,0.0403,0.0,0.0,0.0,0.0,0.0,0.0,0.0,0.0,0.0,0.0,0.0,0.0,0.0813,0.3262,0.3699,0.4398,0.6169,0.5998,0.4953,0.2993,0.4091,0.4831,0.4977,0.6795,0.7957,0.8035,0.8038,0.8038,0.8038,0.8038,0.8038,0.8038,0.8038,0.7997,0.7923,0.8001,0.7997,0.7923,0.8004,0.8038,0.8038,0.8038,0.8038,0.8031,0.7953,0.7967,0.8024,0.7868,0.7902,0.8028,0.795,0.875,1.0288,-0.5951,-0.4937,-0.4519,-0.4519,-0.4519,-0.4519,-0.4519,-0.4519,-0.4519,-0.4519,-0.4519,-0.4519,-0.4519,-0.4519,-0.456,-0.4663,-0.4673,-0.4673,-0.4673,-0.4673,-0.4673,-0.4673,-0.4038,-0.2569,-0.0056,0.0,0.0,0.0,0.0,0.0,0.0,0.0,0.0,0.0,0.0,0.0,0.0,0.0,0.0,0.0,0.0,0.0,0.0,0.0,0.0,0.0,0.0,0.0,0.0,0.0,0.0,0.0141,0.1088,0.2004,0.3095,0.4237,0.4612,0.4691,0.4711,0.3353,0.1787,0.1631,0.0832,0.0,0.0,0.0,0.0,0.0,0.0,0.0,0.0,0.0,0.0,0.0,0.0186,0.1107,0.3347,0.3903,0.4998,0.7145,0.65,0.4964,0.2881,0.3505,0.4027,0.4027,0.6075,0.7434,0.7637,0.7637,0.7736,0.8038,0.8038,0.8038,0.8038,0.8038,0.8038,0.8038,0.8038,0.8038,0.8038,0.8038,0.8038,0.8038,0.8038,0.8038,0.8038,0.8038,0.8038,0.8038,0.8038,0.8038,0.8038,0.8038,0.8726,0.9801,-0.5495,-0.4937,-0.4519,-0.4519,-0.4519,-0.4519,-0.4519,-0.4519,-0.4519,-0.4519,-0.4519,-0.4519,-0.4519,-0.4519,-0.4731,-0.5257,-0.5305,-0.5305,-0.5305,-0.5305,-0.5305,-0.5305,-0.2294,-0.0439,0.0,0.0,0.0,0.0,0.0,0.0,0.0,0.0,0.0,0.0,0.0,0.0,0.0,0.0,0.0,0.0,0.0,0.0,0.0,0.0,0.0,0.0,0.0,0.0,0.0,0.0,0.0,0.0212,0.1259,0.1657,0.2198,0.4097,0.4675,0.4709,0.4808,0.3875,0.2685,0.1993,0.0851,0.0,0.0,0.0,0.0,0.0,0.0,0.0,0.0,0.0,0.0,0.0,0.0949,0.2177,0.3581,0.4821,0.6064,0.7383,0.6539,0.5679,0.5478,0.4597,0.4002,0.4002,0.431,0.502,0.6229,0.6229,0.6833,0.7939,0.8038,0.8038,0.8038,0.8038,0.8038,0.8038,0.8038,0.8038,0.8038,0.8038,0.8038,0.8038,0.8038,0.8038,0.8038,0.8038,0.8038,0.8038,0.8038,0.8038,0.8038,0.8038,0.8137,0.8432,-0.5428,-0.4937,-0.4519,-0.4519,-0.4519,-0.4519,-0.4519,-0.4519,-0.4642,-0.4982,-0.5027,-0.5027,-0.5027,-0.5027,-0.5137,-0.5404,-0.5428,-0.5428,-0.5428,-0.5428,-0.5428,-0.5428,-0.1955,0.0,0.0,0.0,0.0,0.0,0.0,0.0,0.0,0.0,0.0,0.0,0.0,0.0,0.0,0.0,-0.0377,-0.1003,-0.082,-0.0701,-0.0712,-0.0734,-0.0409,0.0,0.0,0.0,0.0,0.0,0.0,0.0074,0.0534,0.108,0.1937,0.3484,0.3985,0.4084,0.4834,0.3745,0.2277,0.1874,0.0878,0.0,0.0,0.0,0.0,0.0,0.0,0.0,0.0,0.0,0.0287,0.0965,0.1643,0.2694,0.4656,0.5509,0.6368,0.765,0.6715,0.5674,0.4916,0.4318,0.3715,0.2916,0.3615,0.4618,0.5929,0.6029,0.6631,0.7939,0.8038,0.8038,0.8038,0.8038,0.8038,0.8038,0.8038,0.8038,0.8038,0.8038,0.8038,0.8038,0.8038,0.8038,0.8038,0.8038,0.8038,0.8038,0.8038,0.8038,0.8038,0.8038,0.8038,0.8038]},{"header":{"parameterUnit":"m.s-1","parameterCategory":1,"la1":30.6,"la2":28.766,"lo1":-90.7593,"lo2":-88.6598,"dy":0.0162,"dx":0.0183,"nx":116,"ny":114,"refTime":"2023-09-18T12:00:00:Z","depth":0,"parameterNumber":3,"parameterNumberName":"V-component_of_WINDS"},"data":[0.0,0.0,0.0,0.0,0.0,0.0,0.0,0.0,0.0,0.0,0.0,0.0,0.0,0.0,0.0,0.0,0.0,0.0,0.0,0.0,0.0,0.0,0.0,0.0,0.0,0.0,0.0,0.0,0.0,0.0,0.0,0.0,0.0,0.0,0.0,0.0,0.0,0.0,0.0,0.0,0.0,0.0,0.0,0.0,0.0,0.0,0.0,0.0,0.0,0.0,0.0,0.0,0.0,0.0,0.0,0.0,0.0,0.0,0.0,0.0,0.0,0.0,0.0,0.0,0.0,0.0,0.0,0.0,0.0,0.0,0.0,0.0,0.0,0.0,0.0,0.0,0.0,0.0,0.0,0.0,0.0,0.0,0.0,0.0,0.0,0.0,0.0,0.0,0.0,0.0,0.0,0.0,0.0,0.0,0.0,0.0,0.0,0.0,0.0,0.0,0.0,0.0,0.0,0.0,0.0,0.0,0.0,0.0,0.0,0.0,0.0,0.0,0.0,0.0,0.0,0.0,0.0,0.0,0.0,0.0,0.0,0.0,0.0,0.0,0.0,0.0,0.0,0.0,0.0,0.0,0.0,0.0,0.0,0.0,0.0,0.0,0.0,0.0,0.0,0.0,0.0,0.0,0.0,0.0,0.0,0.0,0.0,0.0,0.0,0.0,0.0,0.0,0.0,0.0,0.0,0.0,0.0,0.0,0.0,0.0,0.0,0.0,0.0,0.0,0.0,0.0,0.0,0.0,0.0,0.0,0.0,0.0,0.0,0.0,0.0,0.0,0.0,0.0,0.0,0.0,0.0,0.0,0.0,0.0,0.0,0.0,0.0,0.0,0.0,0.0,0.0,0.0,0.0,0.0,0.0,0.0,0.0,0.0,0.0,0.0,0.0,0.0,0.0,0.0,0.0,0.0,0.0,0.0,0.0,0.0,0.0,0.0,0.0,0.0,0.0,0.0,0.0,0.0,0.0,0.0,0.0,0.0,0.0,0.0,0.0,0.0,0.0,0.0,0.0,0.0,0.0,0.0,0.0,0.0,0.0,0.0,0.0,0.0,0.0,0.0,0.0,0.0,0.0,0.0,0.0,0.0,0.0,0.0,0.0,0.0,0.0,0.0,0.0,0.0,0.0,0.0,0.0,0.0,0.0,0.0,0.0,0.0,0.0,0.0,0.0,0.0,0.0,0.0,0.0,0.0,0.0,0.0,0.0,0.0,0.0,0.0,0.0,0.0,0.0,0.0,0.0,0.0,0.0,0.0,0.0,0.0,0.0,0.0,0.0,0.0,0.0,0.0,0.0,0.0,0.0,0.0,0.0,0.0,0.0,0.0,0.0,0.0,0.0,0.0,0.0,0.0,0.0,0.0,0.0,0.0,0.0,0.0,0.0,0.0,0.0,0.0,0.0,0.0,0.0,0.0,0.0,0.0,0.0,0.0,0.0,0.0,0.0,0.0,0.0,0.0,0.0,0.0,0.0,0.0,0.0,0.0,0.0,0.0,0.0,0.0,0.0,0.0,0.0,0.0,0.0,0.0,0.0,0.0,0.0,0.0,0.0,0.0,0.0,0.0,0.0,0.0,0.0,0.0,0.0,0.0,0.0,0.0,0.0,0.0,0.0,0.0,0.0,0.0,0.0,0.0,0.0,0.0,0.0,0.0,0.0,0.0,0.0,0.0,0.0,0.0,0.0,0.0,0.0,0.0,0.0,0.0,0.0,0.0,0.0,0.0,0.0,0.0,0.0,0.0,0.0,0.0,0.0,0.0,0.0,0.0,0.0,0.0,0.0,0.0,0.0,0.0,0.0,0.0,0.0,0.0,0.0,0.0,0.0,0.0,0.0,0.0,0.0,0.0,0.0,0.0,0.0,0.0,0.0,0.0,0.0,0.0,0.0,0.0,0.0,0.0,0.0,0.0,0.0,0.0,0.0,0.0,0.0,0.0,0.0,0.0,0.0,0.0,0.0,0.0,0.0,0.0,0.0,0.0,0.0,0.0,0.0,0.0,0.0,0.0,0.0,0.0,0.0,0.0,0.0,0.0,0.0,0.0,0.0,0.0,0.0,0.0,0.0,0.0,0.0,0.0,0.0,0.0,0.0,0.0,0.0,0.0,0.0,0.0,0.0,0.0,0.0,0.0,0.0,0.0,0.0,0.0,0.0,0.0,0.0,0.0,0.0,0.0,0.0,0.0,0.0,0.0,0.0,0.0,0.0,0.0,0.0,0.0,0.0,0.0,0.0,0.0,0.0,0.0,0.0,0.0,0.0,0.0,0.0,0.0,0.0,0.0,0.0,0.0,0.0,0.0,0.0,0.0,0.0,0.0,0.0,0.0,0.0,0.0,0.0,0.0,0.0,0.0,0.0,0.0,0.0,0.0,0.0,0.0,0.0,0.0,0.0,0.0,0.0,0.0,0.0,0.0,0.0,0.0,0.0,0.0,0.0,0.0,0.0,0.0,0.0,0.0,0.0,0.0,0.0,0.0,0.0,0.0,0.0,0.0,0.0,0.0,0.0,0.0,0.0,0.0,0.0,0.0,0.0,0.0,0.0,0.0,0.0,0.0,0.0,0.0,0.0,0.0,0.0,0.0,0.0,0.0,0.0,0.0,0.0,0.0,0.0,0.0,0.0,0.0,0.0,0.0,0.0,0.0,0.0,0.0,0.0,0.0,0.0,0.0,0.0,0.0,0.0,0.0,0.0,0.0,0.0,0.0,0.0,0.0,0.0,0.0,0.0,0.0,0.0,0.0,0.0,0.0,0.0,0.0,0.0,0.0,0.0,0.0,0.0,0.0,0.0,0.0,0.0,0.0,0.0,0.0,0.0,0.0,0.0,0.0,0.0,0.0,0.0,0.0,0.0,0.0,0.0,0.0,0.0,0.0,0.0,0.0,0.0,0.0,0.0,0.0,0.0,0.0,0.0,0.0,0.0,0.0,0.0,0.0,0.0,0.0,0.0,0.0,0.0,0.0,0.0,0.0,0.0,0.0,0.0,0.0,0.0,0.0,0.0,0.0,0.0,0.0,0.0,0.0,0.0,0.0,0.0,0.0,0.0,0.0,0.0,0.0,0.0,0.0,0.0,0.0,0.0,0.0,0.0,0.0,0.0,0.0,0.0,0.0,0.0,0.0,0.0,0.0,0.0,0.0,0.0,0.0,0.0,0.0,0.0,0.0,0.0,0.0,0.0,0.0,0.0,0.0,0.0,0.0,0.0,0.0,0.0,0.0,0.0,0.0,0.0,0.0,0.0,0.0,0.0,0.0,0.0,0.0,0.0,0.0,0.0,0.0,0.0,0.0,0.0,0.0,0.0,0.0,0.0,0.0,0.0,0.0,0.0,0.0,0.0,0.0,0.0,0.0,0.0,0.0,0.0,0.0,0.0,0.0,0.0,0.0,0.0,0.0,0.0,0.0,0.0,0.0,0.0,0.0,0.0,0.0,0.0,0.0,0.0,0.0,0.0,0.0,0.0,0.0,0.0,0.0,0.0,0.0,0.0,0.0,0.0,0.0,0.0,0.0,0.0,0.0,0.0,0.0,0.0,0.0,0.0,0.0,0.0,0.0,0.0,0.0,0.0,0.0,0.0,0.0,0.0,0.0,0.0,0.0,0.0,0.0,0.0,0.0,0.0,0.0,0.0,0.0,0.0,0.0,0.0,0.0,0.0,0.0,0.0,0.0,0.0,0.0,0.0,0.0,0.0,0.0,0.0,0.0,0.0,0.0,0.0,0.0,0.0,0.0,0.0,0.0,0.0,0.0,0.0,0.0,0.0,0.0,0.0,0.0,0.0,0.0,0.0,0.0,0.0,0.0,0.0,0.0,0.0,0.0,0.0,0.0,0.0,0.0,0.0,0.0,0.0,0.0,0.0,0.0,0.0,0.0,0.0,0.0,0.0,0.0,0.0,0.0,0.0,0.0,0.0,0.0,0.0,0.0,0.0,0.0,0.0,0.0,0.0,0.0,0.0,0.0,0.0,0.0,0.0,0.0,0.0,0.0,0.0,0.0,0.0,0.0,0.0,0.0,0.0,0.0,0.0,0.0,0.0,0.0,0.0,0.0,0.0,0.0,0.0,0.0,0.0,0.0,0.0,0.0,0.0,0.0,0.0,0.0,0.0,0.0,0.0,0.0,0.0,0.0,0.0,0.0,0.0,0.0,0.0,0.0,0.0,0.0,0.0,0.0,0.0,0.0,0.0,0.0,0.0,0.0,0.0,0.0,0.0,0.0,0.0,0.0,0.0,0.0,0.0,0.0,0.0,0.0,0.0,0.0,0.0,0.0,0.0,0.0,0.0,0.0,0.0,0.0,0.0,0.0,0.0,0.0,0.0,0.0,0.0,0.0,0.0,0.0,0.0,0.0,0.0,0.0,0.0,0.0,0.0,0.0,0.0,0.0,0.0,0.0,0.0,0.0,0.0,0.0,0.0,0.0,0.0,0.0,0.0,0.0,0.0,0.0,0.0,0.0,0.0,0.0,0.0,0.0,0.0,0.0,0.0,0.0,0.0,0.0,0.0,0.0,0.0,0.0,0.0,0.0,0.0,0.0,0.0,0.0,0.0,0.0,0.0,0.0,0.0,0.0,0.0,0.0,0.0,0.0,0.0,0.0,0.0,0.0,0.0,0.0,0.0,0.0,0.0,0.0,0.0,0.0,0.0,0.0,0.0,0.0,0.0,0.0,0.0,0.0,0.0,0.0,0.0,0.0,0.0,0.0,0.0,0.0,0.0,0.0,0.0,0.0,0.0,0.0,0.0,0.0,0.0,0.0,0.0,0.0,0.0,0.0,0.0,0.0,0.0,0.0,0.0,0.0,0.0,0.0,0.0,0.0,0.0,0.0,0.0,0.0,0.0,0.0,0.0,0.0,0.0,0.0,0.0,0.0,0.0,0.0,0.0,0.0,0.0,0.0,0.0,0.0,0.0,0.0,0.0,0.0,0.0,0.0,0.0,0.0,0.0,0.0,0.0,0.0,0.0,0.0,0.0,0.0,0.0,0.0,0.0,0.0,0.0,0.0,0.0,0.0,0.0,0.0,0.0,0.0,0.0,0.0,0.0,0.0,0.0,0.0,0.0,0.0,0.0,0.0,0.0,0.0,0.0,0.0,0.0,0.0,0.0,0.0,0.0,0.0,0.0,0.0,0.0,0.0,0.0,0.0,0.0,0.0,0.0,0.0,0.0,0.0,0.0,0.0,0.0,0.0,0.0,0.0,0.0,0.0,0.0,0.0,0.0,0.0,0.0,0.0,0.0,0.0,0.0,0.0,0.0,0.0,0.0,0.0,0.0,0.0,0.0,0.0,0.0,0.0,0.0,0.0,0.0,0.0,0.0,0.0,0.0,0.0,0.0,0.0,0.0,0.0,0.0,0.0,0.0,0.0,0.0,0.0,0.0,0.0,0.0,0.0,0.0,0.0,0.0,0.0,0.0,0.0,0.0,0.0,0.0,0.0,0.0,0.0,0.0,0.0,0.0,0.0,0.0,0.0,0.0,0.0,0.0,0.0,0.0,0.0,0.0,0.0,0.0,0.0,0.0,0.0,0.0,0.0,0.0,0.0,0.0,0.0,0.0,0.0,0.0,0.0,0.0,0.0,0.0,0.0,0.0,0.0,0.0,0.0,0.0,0.0,0.0,0.0,0.0,0.0,0.0,0.0,0.0,0.0,0.0,0.0,0.0,0.0,0.0,0.0,0.0,0.0,0.0,0.0,0.0,0.0,0.0,0.0,0.0,0.0,0.0,0.0,0.0,0.0,0.0,0.0,0.0,0.0,0.0,0.0,0.0,0.0,0.0,0.0,0.0,0.0,0.0,0.0,0.0,0.0,0.0,0.0,0.0,0.0,0.0,0.0,0.0,0.0,0.0,0.0,0.0,0.0,0.0,0.0,0.0,0.0,0.0,0.0,0.0,0.0,0.0,0.0,0.0,0.0,0.0,0.0,0.0,0.0,0.0,0.0,0.0,0.0,0.0,0.0,0.0,0.0,0.0,0.0,0.0,0.0,0.0,0.0,0.0,0.0,0.0,0.0,0.0,0.0,0.0,0.0,0.0,0.0,0.0,0.0,0.0,0.0,0.0,0.0,0.0,0.0,0.0,0.0,0.0,0.0,0.0,0.0,1.5844,0.0,0.0,0.0,0.0,0.0,0.0,0.0,0.0,0.0,0.0,0.0,0.0,0.0,0.0,0.0,0.0,0.0,0.0,0.0,0.0,0.0,0.0,0.0,0.0,0.0,0.0,0.0,0.0,0.0,0.0,0.0,0.0,0.0,0.0,0.0,0.0,0.0,0.0,0.0,0.0,0.0,0.0,0.0,0.0,0.0,0.0,0.0,0.0,0.0,0.0,0.0,0.0,0.0,0.0,0.0,0.0,0.0,0.0,0.0,0.0,0.0,0.0,0.0,0.0,0.0,0.0,0.0,0.0,0.0,0.0,0.0,0.0,0.0,0.0,0.0,0.0,0.0,0.0,0.0,0.0,0.0,0.0,0.0,0.0,0.0,0.0,0.0,0.0,0.0,0.0,0.0,0.0,0.0,0.0,0.0,0.0,0.0,0.0,0.0,0.0,0.0,0.0,0.0,0.0,0.0,0.0,0.0,0.0,0.0,0.0,0.0,0.0,0.0,0.0,0.0,0.0,1.7176,0.0,0.0,0.0,0.0,0.0,0.0,0.0,0.0,0.0,0.0,0.0,0.0,0.0,0.0,0.0,0.0,0.0,0.0,0.0,0.0,0.0,0.0,0.0,0.0,0.0,0.0,0.0,0.0,0.0,0.0,0.0,0.0,0.0,0.0,0.0,0.0,0.0,0.0,0.0,0.0,0.0,0.0,0.0,0.0,0.0,0.0,0.0,0.0,0.0,0.0,0.0,0.0,0.0,0.0,0.0,0.0,0.0,0.0,0.0,0.0,0.0,0.0,0.0,0.0,0.0,0.0,0.0,0.0,0.0,0.0,0.0,0.0,0.0,0.0,0.0,0.0,0.0,0.0,0.0,0.0,0.0,0.0,0.0,0.0,0.0,0.0,0.0,0.0,0.0,0.0,0.0,0.0,0.0,0.0,0.0,0.0,0.0,0.0,0.0,0.0,0.0,0.0,0.0,0.0,0.0,0.0,0.0,0.0,2.0004,2.0887,2.1874,2.1979,2.2099,2.2113,2.0333,1.9301,1.8867,1.8867,0.0,0.0,0.0,0.0,0.0,0.0,0.0,0.0,0.0,0.0,0.0,0.0,0.0,0.0,0.0,0.0,0.0,0.0,0.0,0.0,0.0,0.0,0.0,0.0,0.0,0.0,0.0,0.0,0.0,0.0,0.0,0.0,0.0,0.0,0.0,0.0,0.0,0.0,0.7851,1.0097,1.1361,1.1774,1.2334,0.0,0.0,0.0,0.0,0.0,0.0,0.0,0.0,0.0,0.0,0.0,0.0,0.0,0.0,0.0,0.0,0.0,0.0,0.0,0.0,0.0,0.0,0.0,0.0,0.0,0.0,0.0,0.0,0.0,0.0,0.0,0.0,0.0,0.0,0.0,0.0,0.0,0.0,0.0,0.0,0.0,0.0,0.0,1.8003,1.8264,0.0,0.0,0.0,0.0,0.0,0.0,0.0,0.0,0.0,0.0,0.0,0.0,0.0,1.9657,2.0269,2.0823,2.1162,2.1321,2.2517,2.2892,2.2604,2.3101,2.367,2.4149,2.3325,0.0,1.9555,1.9555,0.0,0.0,0.0,0.0,0.0,0.0,0.0,0.0,0.0,0.0,0.0,0.0,0.0,0.0,0.0,0.0,0.0,0.0,0.0,0.0,0.0,0.0,0.0,0.0,0.0,0.0,0.0,0.0,0.0,0.0,0.0,0.0,0.0,0.0,0.0,0.0,0.8249,0.8882,0.9583,1.126,1.2586,1.3612,1.428,1.4996,1.5743,1.6591,0.0,0.0,0.0,0.0,0.0,0.0,0.0,0.0,0.0,0.0,0.0,0.0,0.0,0.0,0.0,0.0,0.0,0.0,0.0,0.0,0.0,0.0,0.0,0.0,0.0,0.0,0.0,0.0,0.0,0.0,0.0,0.0,0.0,0.0,0.0,0.0,0.0,0.0,0.0,1.9991,1.9541,1.871,1.864,1.8444,0.0,0.0,0.0,0.0,0.0,0.0,0.0,0.0,0.0,2.0347,2.1337,2.1913,2.1931,2.2494,2.3145,2.384,2.4407,2.5299,2.651,2.6358,2.6683,2.7393,2.7055,2.5439,2.2936,2.1829,2.1141,2.0684,0.0,0.0,0.0,0.0,1.8403,1.8677,0.0,0.0,0.0,0.0,0.0,0.0,0.0,0.0,0.0,0.0,0.0,0.0,0.0,0.0,0.0,0.362,0.0,0.0,0.0,0.0,0.0,0.0,0.0,0.0,0.0,0.0,0.0,0.0,0.8818,0.9916,1.1144,1.2305,1.3797,1.5575,1.6733,1.7053,1.6799,1.777,1.8229,0.0,0.0,0.0,0.0,0.0,0.0,0.0,0.0,0.0,0.0,0.0,0.0,0.0,0.0,0.0,0.0,0.0,0.0,0.0,0.0,0.0,0.0,0.0,0.0,0.0,0.0,0.0,0.0,0.0,0.0,0.0,0.0,0.0,0.0,0.0,0.0,0.0,0.0,2.0977,2.0665,1.8908,1.9264,1.9346,0.0,0.0,0.0,0.0,0.0,0.0,1.987,2.0816,2.1336,2.1414,2.3016,2.3714,2.343,2.4204,2.5055,2.6025,2.6326,2.7525,2.9464,2.8918,2.9082,2.9814,2.943,2.8271,2.6484,2.4507,2.3086,2.2088,2.1204,2.1108,2.1362,2.0563,2.0481,2.0869,0.0,0.0,0.0,0.0,0.0,0.0,0.0,0.0,0.0,0.0,0.0,0.0,0.0,0.0,0.3617,0.3947,0.4256,0.4341,0.0,0.0,0.0,0.0,0.0,0.0,0.0,0.0,0.0,0.7804,0.8979,1.0239,1.1505,1.3026,1.5003,1.7344,1.907,1.9845,1.9816,1.9012,1.9182,1.9939,0.0,0.0,0.0,0.0,0.0,0.0,0.0,0.0,0.0,0.0,0.0,0.0,0.0,0.0,0.0,0.0,0.0,0.0,0.0,0.0,0.0,0.0,0.0,0.0,0.0,0.0,0.0,0.0,0.0,0.0,0.0,0.0,0.0,0.0,0.0,0.0,0.0,0.0,0.0,1.8592,1.9623,0.0,0.0,0.0,0.0,1.8779,1.9795,2.0466,2.0534,2.1738,2.2729,2.3335,2.413,2.4821,2.545,2.6658,2.7364,2.7395,2.8614,2.9249,2.9406,2.9374,2.9742,3.0382,2.9108,2.8852,2.9239,2.721,2.5255,2.3505,2.3417,2.3445,2.346,2.3402,2.3402,2.3417,0.0,0.0,0.0,0.0,0.0,0.0,0.0,0.0,0.0,0.0,0.0,0.0,0.0,0.3777,0.4285,0.4795,0.4934,0.4763,0.4282,0.0,0.0,0.0,0.0,0.0,0.0,0.0,0.7271,0.8253,0.9414,1.1019,1.3014,1.4435,1.6287,1.8477,1.9975,2.1178,2.2025,2.0873,2.0391,2.0319,1.9193,1.8898,0.0,0.0,0.0,0.0,0.0,0.0,0.0,0.0,0.0,0.0,0.0,0.0,0.0,0.0,0.0,0.0,0.0,0.0,0.0,0.0,0.0,0.0,0.0,0.0,0.0,0.0,0.0,0.0,0.0,0.0,0.0,0.0,0.0,0.0,0.0,0.0,0.0,2.3389,2.3639,0.0,2.2925,2.1488,2.0741,2.1155,2.1262,2.1846,2.3039,2.4503,2.5733,2.6724,2.7864,2.8593,2.8839,2.9234,2.9633,2.9992,2.9989,3.0455,3.1257,3.1257,3.1467,3.1769,3.1251,3.0685,3.0117,2.9344,2.7657,2.5435,2.4597,2.4522,2.4837,2.4418,2.4537,2.4896,0.0,0.0,0.0,0.0,0.0,0.0,0.0,0.0,0.0,0.0,0.0,0.2788,0.3435,0.395,0.4508,0.5073,0.5043,0.4776,0.4289,0.0,0.0,0.0,0.0,0.0,0.0,0.6043,0.7417,0.8567,0.9821,1.1586,1.3815,1.482,1.6758,1.9388,2.028,2.1675,2.3298,2.2473,2.1698,2.096,1.9643,1.9468,1.9809,0.0,0.0,0.0,0.0,0.0,0.0,0.0,0.0,0.0,0.0,0.0,0.0,0.0,0.0,0.0,0.0,0.0,0.0,0.0,0.0,0.0,0.0,0.0,0.0,0.0,0.0,0.0,0.0,0.0,0.0,0.0,0.0,0.0,0.0,0.0,2.6253,2.6435,2.6756,2.6697,2.6056,2.4386,2.3385,2.3525,2.3407,2.3858,2.5114,2.6811,2.8077,2.8884,3.0227,3.0838,3.0553,3.0701,3.0863,3.1044,3.075,3.1089,3.1918,3.1918,3.2126,3.2397,3.1885,3.1504,3.1121,3.0378,2.9218,2.7793,2.6685,2.6656,2.7179,2.6793,2.6775,2.6879,0.0,0.0,0.0,0.0,0.0,0.0,0.0,0.0,0.0,0.0,0.2198,0.2549,0.3393,0.3773,0.421,0.4752,0.4528,0.4262,0.4012,0.3409,0.0,0.0,0.0,0.0,0.4984,0.6632,0.7877,0.8682,1.014,1.1817,1.372,1.4122,1.6298,1.99,1.9966,2.1365,2.3671,2.3692,2.3069,2.1995,2.0965,2.027,1.9847,0.0,0.0,0.0,0.0,0.0,0.0,0.0,0.0,0.0,0.0,0.0,0.0,0.0,0.0,0.0,0.0,0.0,0.0,0.0,0.0,0.0,0.0,0.0,0.0,0.0,0.0,0.0,0.0,0.0,0.0,0.0,0.0,0.0,2.4581,2.6522,2.7784,2.7454,2.8677,2.8821,2.6973,2.6765,2.6464,2.5756,2.624,2.6637,2.6637,2.8557,2.9652,2.9652,3.0932,3.134,3.0587,3.1144,3.1061,3.0384,3.0935,3.119,3.119,3.1207,3.1613,3.2239,3.095,3.1176,3.2364,3.0299,2.9897,3.0445,2.9765,2.9894,3.0478,3.055,3.013,2.9379,0.0,0.0,0.0,0.0,0.0,0.0,0.0,0.0,0.0,0.0,0.2288,0.2728,0.3169,0.3473,0.387,0.4456,0.3873,0.3516,0.3639,0.0,0.0,0.0,0.0,0.0,0.4992,0.6298,0.7418,0.8269,0.9092,1.0402,1.2081,1.3363,1.5331,1.7884,1.9363,2.1066,2.2933,2.3464,2.3746,2.3675,2.2072,2.1495,2.1324,0.0,0.0,0.0,0.0,0.0,0.0,0.0,0.0,0.0,0.0,0.0,0.0,0.0,0.0,0.0,0.0,0.0,0.0,0.0,0.0,0.0,0.0,0.0,0.0,0.0,0.0,0.0,0.0,0.0,0.0,0.0,0.0,2.667,2.686,2.9038,3.0899,3.1611,3.214,3.2056,3.1055,2.9601,2.8442,2.7671,2.8715,2.9418,2.9418,3.1343,3.2499,3.2499,3.2789,3.2894,3.2698,3.2257,3.195,3.1748,3.1404,3.119,3.1207,3.1732,3.2087,3.2273,3.1931,3.1984,3.2286,3.1165,3.0816,3.09,2.983,2.9557,2.971,2.9718,2.936,2.8711,0.0,0.0,0.0,0.0,0.0,0.0,0.0,0.0,0.0,0.0,0.2111,0.2472,0.2888,0.3003,0.3249,0.3813,0.3338,0.3051,0.3115,0.0,0.0,0.0,0.0,0.4836,0.5005,0.6067,0.691,0.7467,0.8417,0.9584,1.0973,1.2416,1.4586,1.7369,1.888,2.0764,2.2877,2.3464,2.3961,2.4283,2.3235,2.2998,2.3032,2.0757,2.045,2.1086,2.0121,2.0369,2.1046,2.0364,0.0,0.0,0.0,0.0,0.0,0.0,0.0,0.0,0.0,0.0,0.0,0.0,0.0,0.0,0.0,0.0,0.0,0.0,0.0,0.0,0.0,0.0,0.0,0.0,2.7143,2.8352,2.9592,3.1474,3.3106,3.4069,3.4324,3.4154,3.3519,3.2376,3.1327,3.063,3.1321,3.188,3.2102,3.3329,3.4104,3.4365,3.4054,3.3772,3.3473,3.2681,3.2121,3.1816,3.1393,3.1291,3.1466,3.1893,3.2081,0.0,3.2081,3.2151,3.2222,3.1495,3.1376,0.0,0.0,0.0,0.0,0.0,3.0019,2.9561,0.0,0.0,0.0,0.0,0.0,0.0,0.0,0.0,0.0,0.0,0.0,0.196,0.25,0.2413,0.2467,0.2872,0.2834,0.2709,0.0,0.0,0.0,0.3009,0.3851,0.4495,0.4862,0.5793,0.634,0.6511,0.7865,0.9051,1.0049,1.1602,1.4138,1.7486,1.8651,2.0671,2.3247,2.3617,2.3961,2.4266,2.4266,2.4495,2.4557,2.2813,2.2626,2.314,2.1917,2.1515,2.1497,2.0799,0.0,0.0,0.0,0.0,0.0,0.0,0.0,0.0,0.0,0.0,0.0,0.0,0.0,0.0,0.0,0.0,0.0,0.0,0.0,0.0,0.0,0.0,0.0,0.0,2.8439,2.9811,3.2438,3.3688,3.4579,3.5226,3.548,3.5362,3.4688,3.4576,3.4333,3.3633,3.3719,3.3924,3.4199,0.0,0.0,0.0,0.0,3.3931,3.3288,3.2608,3.1896,3.1252,3.1329,3.1545,3.1897,3.1897,3.1897,3.1897,3.1897,3.2038,3.2287,3.164,3.1742,3.2241,3.1565,3.1666,3.2114,3.1506,3.1275,3.1106,0.0,0.0,0.0,0.0,0.0,0.0,0.0,0.0,0.0,0.1073,0.1366,0.1601,0.1721,0.17,0.1708,0.1801,0.1937,0.2005,0.0,0.0,0.2141,0.2373,0.3313,0.3933,0.4107,0.497,0.5591,0.5943,0.6989,0.7759,0.8351,1.1893,1.44,1.6081,1.9412,2.1815,2.3307,2.3934,2.4381,2.47,2.4804,2.4737,2.4449,2.3428,2.3151,2.3172,2.2216,2.2236,2.2575,2.1804,2.1422,2.1188,2.0679,0.0,0.0,0.0,0.0,0.0,0.0,0.0,0.0,0.0,0.0,0.0,0.0,0.0,0.0,0.0,0.0,0.0,0.0,0.0,0.0,2.9651,3.0934,3.2184,3.4233,3.4934,3.5226,3.5208,3.5437,3.5362,3.4688,3.4576,3.4333,3.3633,3.4493,3.4651,3.3703,3.4634,3.4753,3.3812,3.3085,3.2645,3.2493,3.2089,3.1834,3.1696,0.0,0.0,3.2366,3.2366,3.2366,3.2366,3.2366,3.2404,3.2458,3.2318,3.2335,3.2372,3.1538,3.1314,3.1354,3.0734,3.0507,3.0389,0.0,0.0,0.0,0.0,0.0,0.0,0.0,0.0,0.0,0.0,0.0626,0.0934,0.1455,0.1404,0.1433,0.1628,0.1194,0.0,0.0,0.0964,0.1086,0.153,0.2153,0.2676,0.3079,0.3719,0.4338,0.4947,0.6096,0.7278,0.8552,1.1412,1.4199,1.6937,1.9597,2.1878,2.375,2.4335,2.4696,2.4858,2.4919,2.4916,2.4796,2.4325,2.416,2.4119,2.348,2.3477,2.3583,2.2502,2.2078,2.182,2.0773,2.0038,1.9404,0.0,0.0,0.0,0.0,0.0,0.0,0.0,0.0,0.0,0.0,0.0,0.0,0.0,0.0,2.5502,0.0,0.0,2.8863,3.165,3.2441,3.3099,3.4229,3.4679,3.5157,3.5863,3.5846,3.57,3.5514,3.5718,3.5657,3.5044,3.5542,3.5737,3.5343,3.5035,3.4709,3.435,3.3237,3.2637,3.2637,3.2332,3.2127,3.2161,3.2384,3.2616,3.284,3.2447,3.2483,3.2822,3.2398,3.2357,3.2484,3.2484,3.2484,3.2451,3.2021,3.1714,3.1432,3.0942,3.074,3.0699,0.0,0.0,0.0,0.0,0.0,0.0,0.0,0.0,0.0,0.0,0.0,0.0298,0.1282,0.1484,0.153,0.0,0.0,0.0,0.0,-0.0345,-0.0244,0.0452,0.0675,0.1093,0.1733,0.2217,0.286,0.3706,0.5435,0.7278,0.9328,1.1388,1.4439,1.821,2.0028,2.2117,2.4346,2.4819,2.5009,2.4996,2.4996,2.5096,2.5234,2.4936,2.4937,2.5042,2.4525,2.4129,2.3677,2.2721,2.2254,2.1828,2.0498,2.0214,2.0177,1.8923,1.8437,0.0,0.0,0.0,0.0,0.0,0.0,0.0,0.0,2.418,2.4882,2.5673,2.6765,2.821,3.0209,3.0664,3.1337,3.3259,3.3524,3.3607,3.3928,3.4202,3.4902,3.6313,3.6005,3.5817,3.6267,3.6615,3.6724,3.6416,3.6374,3.647,3.6654,3.5462,3.4878,3.5104,3.3827,3.3134,3.3134,3.2806,3.2648,3.2648,3.2713,3.2862,3.3049,3.2415,3.2397,3.2814,3.2343,3.2355,3.2745,3.2745,3.2745,3.2727,3.2681,3.24,3.2022,3.1507,3.1252,3.1173,0.0,0.0,0.0,0.0,0.0,0.0,0.0,0.0,0.0,0.0,0.0,0.0,0.0,0.0,0.0,0.0,0.0,0.0,-0.1373,-0.2118,-0.2122,-0.1102,-0.1026,-0.0777,-0.0291,0.0462,0.135,0.2309,0.533,0.7749,0.9629,1.3401,1.6272,1.8406,2.1693,2.3852,2.5092,2.5331,2.5405,2.5347,2.5347,2.5388,2.5367,2.4517,2.4574,2.4985,2.4171,2.2798,2.1456,2.19,2.1327,2.0607,2.1444,2.1161,2.0396,1.9921,0.0,1.7551,1.8112,1.8524,1.9551,2.2725,2.3579,2.4794,0.0,2.9771,2.9447,2.949,3.0006,3.0604,3.1176,3.1825,3.2773,3.4295,3.4529,3.4551,3.4591,3.4626,3.4888,3.5553,3.5164,3.5117,3.5874,3.5636,3.5688,3.6364,3.6374,3.5914,3.484,3.5471,3.539,3.4341,3.3881,3.3634,3.3634,3.3297,3.3105,3.3124,3.3476,3.3314,3.2645,3.2554,3.2195,3.1646,3.2269,3.2975,3.3662,3.3662,3.3662,3.3606,3.3273,3.3075,3.2952,3.2057,3.1507,3.1106,0.0,0.0,0.0,0.0,0.0,0.0,0.0,0.0,0.0,0.0,0.0,0.0,0.0,0.0,0.0,0.0,0.0,0.0,-0.2402,-0.2709,-0.2805,-0.271,-0.2471,-0.2206,-0.1933,-0.1184,-0.0078,0.1398,0.4706,0.8037,1.1402,1.3829,1.6554,1.956,2.1867,2.3515,2.4552,2.5256,2.5547,2.5507,2.546,2.5497,2.5463,2.4511,2.3728,2.3063,2.2568,2.1855,0.0,0.0,2.0028,1.954,1.9775,1.9499,1.9011,1.8548,1.8316,1.8366,1.921,2.008,2.1318,2.384,2.5772,2.7646,2.9783,3.0528,3.082,3.0905,3.1232,3.2063,3.3797,3.3783,3.3993,0.0,3.5211,3.4632,3.4423,3.4137,3.378,3.3388,3.2938,3.3355,3.5102,3.552,3.5675,3.5763,3.5963,3.618,3.6295,3.5685,3.5173,3.4834,3.4515,3.4135,3.3665,3.3744,3.3776,3.3776,3.3797,3.3445,3.2828,3.2834,3.2654,3.2376,3.3004,3.3495,3.3807,3.3807,3.3807,3.3817,3.4136,3.4098,3.3723,3.2319,3.1696,3.1405,0.0,0.0,0.0,0.0,0.0,0.0,0.0,0.0,0.0,0.0,0.0,0.0,0.0,0.0,0.0,0.0,0.0,0.0,0.0,-0.3439,-0.359,-0.385,-0.3612,-0.3374,-0.3221,-0.1673,0.0078,0.2041,0.5935,0.9629,1.3099,1.4538,1.6948,2.0123,2.1655,2.2999,2.4154,2.4941,2.5388,2.5545,2.527,2.506,2.4732,2.3353,2.2068,2.101,2.1097,2.0458,0.0,0.0,1.8559,1.8217,1.8181,1.8084,1.7934,1.7844,1.8572,1.9596,2.0526,2.1837,2.3427,2.5419,2.7967,3.0116,3.0545,3.1142,3.1646,3.1796,3.1828,3.2459,3.4532,3.4408,3.4371,3.5511,3.4861,3.4113,3.3855,3.3029,3.2192,3.1421,3.0876,3.1217,3.291,3.427,3.5224,3.5653,3.5897,3.6381,3.7212,3.6204,3.558,3.5599,3.5275,3.4833,3.4222,3.4316,3.4288,3.42,3.3993,3.3586,3.298,3.2784,3.2784,3.3022,3.3338,3.3587,3.3825,3.4045,3.4009,3.3899,3.4963,3.5031,3.4431,3.3261,3.2563,3.1977,0.0,0.0,0.0,0.0,0.0,0.0,0.0,0.0,0.0,0.0,0.0,0.0,0.0,0.0,0.0,0.0,0.0,0.0,0.0,-0.4759,-0.4877,-0.4309,-0.4322,-0.4238,-0.3978,-0.0387,0.2608,0.4879,1.0196,1.3299,1.4291,1.6159,1.7889,1.9495,2.1165,2.2832,2.4394,2.4414,2.4848,2.542,2.4648,2.3836,2.2814,2.0308,1.9329,1.9371,2.0152,0.0,0.0,1.7163,1.7049,1.6453,1.75,1.7715,0.0,1.8836,1.9989,2.1059,2.1754,2.3587,2.5793,2.7941,3.0116,3.2008,3.3053,3.2958,3.2654,3.2654,3.2,3.1534,3.1879,3.2765,3.3391,3.324,3.3077,3.2926,3.2862,3.1259,3.0128,3.0153,2.9455,2.8906,0.0,3.1069,3.373,3.6458,3.6492,3.642,3.644,3.7114,3.7132,3.6307,3.6021,3.5859,3.584,3.507,3.4529,3.42,3.4176,3.3766,3.297,3.2191,3.2266,3.2985,3.2748,3.3091,3.3862,3.4651,3.4504,3.3954,3.5624,3.5752,3.5007,3.5362,3.4478,3.2864,0.0,0.0,0.0,0.0,0.0,0.0,0.0,0.0,0.0,0.0,0.0,0.0,0.0,0.0,0.0,0.0,0.0,0.0,0.0,-0.5609,-0.5548,-0.5749,-0.5813,-0.4943,-0.2982,0.0093,0.3016,0.579,0.9661,1.2679,1.4831,1.5118,1.6288,1.821,1.9896,2.1032,2.1759,2.2812,2.3821,2.4524,2.2512,2.187,2.172,1.8605,1.6989,1.6451,0.0,0.0,0.0,1.6079,1.6153,1.6195,1.579,1.6219,1.7091,1.8257,1.9603,2.1198,2.3336,2.5626,2.798,3.0444,3.2591,3.4105,3.4122,3.3738,3.2829,3.0911,3.0309,3.0089,2.9917,3.0282,3.0779,3.1283,3.1232,3.0932,3.0427,3.0263,2.9615,2.8047,2.8094,0.0,0.0,0.0,0.0,3.371,3.4877,3.5855,3.663,3.5979,3.5587,3.5511,3.5382,3.504,3.4526,3.4811,3.4907,3.4775,3.4207,3.4093,3.4358,3.3506,3.3488,3.4116,3.3804,3.3702,3.3825,3.41,3.4376,3.4724,3.5844,3.645,3.6714,3.7011,3.6461,3.5259,0.0,0.0,0.0,0.0,0.0,0.0,0.0,0.0,0.0,0.0,0.0,0.0,0.0,0.0,0.0,0.0,0.0,0.0,0.0,0.0,-0.5838,-0.585,-0.5767,-0.4766,-0.2727,0.0596,0.3758,0.6731,0.8963,1.0974,1.2748,1.2943,1.3767,1.5143,1.6966,1.7903,1.8196,1.9715,2.0681,2.1055,1.9512,1.8858,1.8538,1.629,1.5013,0.0,0.0,0.0,0.0,1.5428,1.5754,1.6145,1.528,1.6018,1.746,1.8612,2.056,2.2958,2.5737,2.822,3.0491,3.2506,3.3917,3.4644,3.3828,3.2452,3.0712,2.8523,2.792,2.7731,2.7538,2.7807,2.8147,2.8407,2.797,2.7532,2.7295,2.73,2.6823,2.5551,2.6253,2.6803,0.0,0.0,0.0,3.2773,3.4434,3.5652,3.6306,3.539,3.4728,3.4507,3.4394,3.403,3.3369,3.4208,3.4729,3.4963,3.4499,3.4571,3.5086,3.4514,3.4485,3.4813,3.4401,3.4099,3.3972,3.4154,3.4376,3.4724,3.6156,3.6853,3.7154,3.7899,3.7739,3.6872,0.0,0.0,0.0,0.0,0.0,0.0,0.0,0.0,0.0,0.0,0.0,0.0,0.0,0.0,0.0,0.0,0.0,0.0,0.0,0.0,0.0,-0.4651,-0.4195,-0.3613,-0.2854,0.1253,0.4791,0.7657,0.8316,0.8612,0.8553,1.0001,1.0674,1.0742,1.2764,1.3773,1.4079,1.5444,1.585,1.5624,1.5854,1.5042,1.367,1.3443,0.0,0.0,0.0,0.0,1.482,1.5199,1.573,1.619,1.5875,1.7046,1.8776,1.9906,2.2797,2.6221,2.882,3.1249,3.3234,3.409,3.4144,3.3638,3.2296,2.9451,2.6807,2.5756,2.5079,2.4714,2.4796,2.5386,2.5577,2.4706,2.3549,2.2979,2.3621,2.264,2.207,0.0,0.0,0.0,0.0,0.0,0.0,3.3725,0.0,3.5697,3.5485,3.5267,3.4645,3.3468,3.3241,3.2995,3.2691,3.3497,3.4163,3.4734,3.4999,3.5122,3.5122,3.5122,3.5105,3.507,3.447,3.42,3.425,3.4731,3.4523,3.41,3.645,3.6945,3.6541,3.8083,3.8346,3.7682,0.0,0.0,0.0,0.0,0.0,0.0,0.0,0.0,0.0,0.0,0.0,0.0,0.0,0.0,0.0,0.0,0.0,0.0,0.0,0.0,0.0,0.0,0.0,0.0,0.0,0.0,0.0,0.0,0.0,0.8225,0.8732,0.9119,0.9566,1.0094,1.1205,1.1931,1.2375,1.3337,1.4419,1.5357,0.0,1.3028,1.3247,0.0,0.0,0.0,0.0,0.0,1.4616,1.5351,1.5548,1.5645,1.6584,1.729,1.8345,2.1189,2.465,2.8106,3.077,3.3131,3.475,3.4399,3.419,3.3453,3.1091,2.8923,2.6655,2.4029,2.3853,2.3819,2.2611,2.3226,2.362,2.2752,2.1779,0.0,2.0233,2.033,0.0,2.1274,2.3286,2.5431,2.7534,3.0853,0.0,0.0,3.4694,3.468,3.5169,3.4022,3.3545,3.3972,3.3752,3.3672,3.3799,3.463,3.5139,3.5289,3.5369,3.5383,3.5383,3.5383,3.5289,3.5088,3.4734,3.4423,3.4213,3.4123,3.4339,3.478,3.5404,3.6285,3.7221,3.7643,3.8096,3.8364,0.0,0.0,0.0,0.0,0.0,0.0,0.0,0.0,0.0,0.0,0.0,0.0,0.0,0.0,0.0,0.0,0.0,0.0,0.0,0.0,0.0,0.0,0.0,0.0,0.0,0.0,0.0,0.0,0.0,0.0,0.0,0.674,0.7009,0.7387,0.8394,0.8873,0.9016,1.0205,0.0,0.0,0.0,0.0,0.0,0.0,0.0,0.0,0.0,0.0,1.4065,1.421,1.4572,1.5175,1.6196,1.7655,1.9614,2.2677,2.6283,2.9805,3.2347,3.4277,3.5371,3.4511,3.3656,3.228,2.9527,2.7155,2.4823,2.2324,2.2473,2.2689,2.1569,2.1507,2.1259,2.0147,1.8711,1.7513,1.7045,1.7667,1.8733,2.0202,2.2853,2.5782,2.8796,3.2109,3.466,0.0,3.5845,3.5553,3.5469,3.4437,3.3829,3.3841,3.362,3.3663,3.4016,3.4898,3.5492,3.5856,3.6368,3.6411,3.6045,3.6045,3.5758,3.5273,0.0,3.4695,3.4401,3.4093,3.416,3.4523,3.4844,3.5587,3.6486,3.7221,3.7771,3.8096,0.0,0.0,0.0,0.0,0.0,0.0,0.0,0.0,0.0,0.0,0.0,0.0,0.0,0.0,0.0,0.0,0.0,0.0,0.0,0.0,0.0,0.0,0.0,0.0,0.0,0.0,0.0,0.0,0.0,0.0,0.0,0.0,0.0,0.0,0.0,0.0,0.0,0.0,0.0,0.0,0.0,0.0,0.0,0.0,0.0,0.0,0.0,0.0,1.2979,1.2335,1.3037,1.4379,1.5184,1.7877,2.1285,2.4066,2.7693,3.1225,3.3431,3.4608,3.498,3.399,3.24,3.0362,2.7699,2.4896,2.2435,2.086,2.1227,2.1708,2.127,2.0477,1.9405,1.7889,1.5694,1.4205,1.4267,1.498,1.652,1.9282,2.269,2.6136,2.9749,3.3071,3.5761,3.7561,3.7863,3.7451,3.6231,3.5615,3.4764,3.36,3.3469,3.3599,3.398,3.4871,3.567,3.6358,3.7471,3.7546,3.6699,3.6699,3.6257,3.5493,3.519,0.0,3.4674,3.4288,3.4067,3.4027,3.4605,3.4972,3.532,3.667,3.7294,3.7429,0.0,0.0,0.0,0.0,0.0,0.0,0.0,0.0,0.0,0.0,0.0,0.0,0.0,0.0,0.0,0.0,0.0,0.0,0.0,0.0,0.0,0.0,0.0,0.0,0.0,0.0,0.0,0.0,0.0,0.0,0.0,0.0,0.0,0.0,0.0,0.0,0.0,0.0,0.0,0.0,0.0,0.0,0.0,0.0,0.0,0.0,0.0,1.1189,1.0391,0.0,1.1065,1.2197,1.4348,1.6985,2.0205,2.4644,2.859,3.1836,3.329,3.3192,3.2354,3.1073,2.9501,2.7684,2.5386,2.3511,2.1761,2.0057,2.0959,2.1856,2.1235,2.127,2.0771,1.8788,1.6327,1.4129,1.2428,1.3117,1.4712,1.748,2.2104,2.6871,3.1558,3.5202,0.0,0.0,3.9884,3.9284,3.7641,3.6178,3.5111,3.4486,3.4874,3.5021,3.4876,3.5895,3.6488,3.6642,3.757,3.7546,3.6699,3.6699,3.6257,3.546,3.4981,0.0,3.4653,3.4111,3.4228,3.4734,3.4211,3.4853,3.6028,3.5605,3.6303,3.7386,0.0,0.0,0.0,0.0,0.0,0.0,0.0,0.0,0.0,0.0,0.0,0.0,0.0,0.0,0.0,0.0,0.0,0.0,0.0,0.0,0.0,0.0,0.0,0.0,0.0,0.0,0.7113,0.6657,0.0,0.0,0.0,0.542,0.531,0.0,0.0,0.0,0.0,0.0,0.0,0.0,0.0,0.0,0.0,0.0,0.0,0.0,0.0,0.9763,0.9518,0.9304,0.968,1.0816,1.4195,1.7471,2.0951,2.5055,2.8126,3.0473,3.1825,3.1194,2.9836,2.8467,2.7031,2.5513,2.3928,2.2374,2.112,2.0605,2.121,2.1701,2.1273,2.0698,1.9741,1.8103,1.5375,1.289,1.1192,1.2073,1.414,1.7678,2.2602,2.7614,3.2504,3.6267,3.8788,3.9725,4.0339,3.9901,3.8147,3.6396,3.5348,3.5122,3.5624,3.5917,3.5917,3.7201,3.7916,3.8065,3.8892,3.8854,3.8046,3.7584,3.693,3.6089,3.5259,0.0,3.5294,3.4865,3.4813,3.5009,3.5073,3.533,3.5679,3.6138,3.6798,3.7452,0.0,0.0,0.0,0.0,0.0,0.0,0.0,0.0,0.3332,0.3902,0.382,0.4392,0.6195,0.6697,0.0,0.0,0.0,0.0,0.0,0.0,0.0,0.0,0.0,0.0,0.0,0.0,0.0,0.7193,0.7011,0.0,0.0,0.0,0.0,0.0,0.6203,0.66,0.0,0.0,0.0,0.0,0.0,0.0,0.0,0.0,0.0,0.0,0.0,0.8316,0.8629,0.8522,0.8949,1.0252,1.4224,1.7975,2.1483,2.4686,2.714,2.909,3.0312,2.9462,2.7961,2.6793,2.5244,2.3767,2.2875,2.1477,2.0499,2.0933,2.1298,2.1383,2.0907,1.9951,1.8631,1.6902,1.4322,1.2038,1.0567,1.1999,1.4622,1.8387,2.3659,2.8743,3.3178,3.6803,0.0,3.9444,3.9896,0.0,3.8266,3.667,3.5682,3.5449,3.6051,3.6473,3.6661,3.8213,3.9095,3.9296,4.0104,4.0065,3.9277,3.8584,3.7796,3.6916,3.5766,0.0,0.0,3.5403,3.528,3.5587,3.5899,3.5826,3.5679,3.6817,3.7331,3.7489,0.0,0.0,0.0,0.0,0.0,0.0,0.0,0.0,0.1718,0.1076,0.1853,0.2947,0.4228,0.594,0.0,0.0,0.0,0.0,0.0,0.0,0.0,0.0,0.0,0.0,0.0,0.0,0.0,0.8438,0.7712,0.0,0.0,0.0,0.0,0.0,0.0,0.7329,0.7739,0.0,0.0,0.0,0.0,0.0,0.0,0.0,0.0,0.0,0.0,0.6648,0.6402,0.8163,0.9344,1.0681,1.4357,1.7409,2.0147,2.2738,2.6052,2.9027,2.9631,2.8606,2.7249,2.6928,2.4762,2.2524,2.2014,2.0896,1.9943,1.9874,2.0639,2.0884,1.946,1.9792,1.9186,1.5886,0.0,1.2992,1.0894,1.3604,1.6622,1.8652,2.524,3.0904,3.4076,3.6867,3.8819,3.97,3.8658,0.0,3.8197,3.7287,3.63,3.5257,3.6166,3.6628,3.6507,3.8339,3.9281,3.9296,4.0104,4.0065,3.9296,3.9219,3.87,3.78,3.6426,0.0,0.0,3.4791,3.5266,3.711,3.5697,3.6009,3.7184,3.6615,3.6853,3.7386,0.0,0.0,0.0,0.0,0.0,0.0,0.0,0.0,0.0783,-0.0022,0.0805,0.1885,0.301,0.4835,0.0,0.0,0.0,0.0,0.0,0.0,0.0,0.0,0.0,0.0,0.0,0.0,0.7688,0.8422,0.786,0.0,0.0,0.0,0.0,0.0,0.0,0.8221,0.8431,0.0,0.0,0.0,0.0,0.0,0.0,0.0,0.0,0.0,0.0,0.0,0.6896,0.8148,0.9926,1.1899,1.3625,1.6214,1.9179,2.2197,2.4304,2.5995,2.7628,2.733,2.6316,2.5397,2.3678,2.2122,2.1866,2.0623,1.9731,2.0397,1.9661,1.8745,1.8304,1.7824,1.6726,0.0,0.0,0.0,1.0509,1.2923,1.6046,1.9245,2.4887,3.007,0.0,0.0,3.879,4.0295,3.9428,0.0,3.9041,3.7611,3.6812,3.6884,3.7313,3.7529,3.7452,3.8205,3.8833,3.9374,3.9644,3.9854,4.0008,3.9508,3.9104,3.8704,3.7467,0.0,0.0,3.6254,3.6422,3.7674,3.6812,3.6909,3.7514,3.7679,3.7955,3.8175,0.0,0.0,0.0,0.0,0.0,0.0,0.4138,0.2271,0.0632,-0.0311,0.0286,0.1274,0.2587,0.43,0.5915,0.732,0.0,0.0,0.0,0.0,0.0,0.0,0.0,0.0,0.0,0.0,0.0,0.7907,0.7785,0.8039,0.0,0.0,0.8353,0.8403,0.0,0.0,0.0,0.0,0.0,0.0,0.0,0.0,0.0,0.0,0.0,0.0,0.0,0.0,0.0,0.0,0.0,1.2373,1.3282,1.5204,0.0,2.0208,2.2293,2.4057,2.5377,2.6045,2.6093,2.4825,2.3109,2.1734,2.1708,2.0272,1.9205,2.0269,1.8528,1.6758,1.6482,1.5524,1.4223,0.0,0.0,1.1825,1.0576,1.2545,1.5377,1.8733,0.0,2.8172,3.2684,3.6398,3.9087,4.0419,3.9858,0.0,3.9818,3.8116,3.7328,3.7694,3.7943,3.797,3.7775,3.7965,3.8382,3.9015,3.921,3.9604,4.0123,3.9796,3.9642,3.9604,3.8472,0.0,0.0,3.7136,3.6963,3.7824,3.7063,3.7055,3.7551,3.8138,3.8505,3.8707,0.0,0.0,0.0,0.0,0.0,0.0,0.0,0.0,0.1356,0.0155,0.0283,0.1223,0.3084,0.4617,0.6167,0.7849,0.0,0.0,0.0,0.0,0.0,0.0,0.0,0.0,0.0,0.0,0.0,0.0,0.7538,0.7807,0.7827,0.8552,0.8964,0.9095,0.0,0.0,0.0,0.0,0.0,0.0,0.0,0.0,0.0,0.0,0.0,0.0,0.0,0.0,0.0,0.0,0.0,0.0,0.0,1.4577,0.0,0.0,2.0065,2.4141,2.3039,2.4873,2.6861,2.5906,2.3381,2.1174,2.1432,1.9684,1.8218,1.8878,1.7257,1.5248,1.3722,1.3153,1.2236,1.0073,1.1291,0.0,1.1397,1.3138,1.5105,1.6742,2.0918,2.556,3.0352,3.6249,3.9831,3.9912,0.0,0.0,4.0348,3.8997,3.7821,3.7031,3.7656,3.7676,3.7011,3.7673,3.8043,3.8117,3.8921,3.9296,3.9335,4.0123,4.0489,0.0,0.0,0.0,0.0,3.6765,3.6466,3.7713,3.5782,3.6046,3.7507,3.7526,3.801,3.8707,0.0,0.0,0.0,0.0,0.0,0.0,0.0,0.0,0.1715,0.0672,0.1074,0.214,0.3931,0.4953,0.6136,0.7734,0.0,0.0,0.0,0.0,0.0,0.0,0.0,0.0,0.0,0.0,0.0,0.0,0.0,0.0,0.7665,0.8176,0.8708,0.9234,0.9234,0.9228,0.0,0.0,0.0,0.0,0.0,0.0,0.0,0.0,0.0,0.0,0.0,0.0,0.0,0.0,0.0,0.0,0.0,0.0,0.0,1.3205,1.6218,1.9994,2.0831,2.2177,2.2998,2.1551,2.0933,2.0527,1.9868,1.861,1.7549,1.7398,1.5935,1.4169,1.2533,0.9995,0.8311,0.896,0.9893,0.0,0.0,1.1942,1.4043,1.6238,2.3629,3.0213,0.0,0.0,4.0412,4.0749,0.0,0.0,4.0801,3.9582,3.8805,3.8648,3.7788,3.7207,3.6992,3.6616,3.7036,3.8237,3.7758,3.843,4.0104,3.9796,3.9969,0.0,0.0,0.0,0.0,3.789,3.7438,3.8042,3.6093,3.59,3.6743,3.7323,3.7643,3.7955,0.0,0.0,0.0,0.0,0.0,0.0,0.0,0.0,0.2535,0.2059,0.275,0.3715,0.4823,0.5588,0.6502,0.7694,0.0,0.0,0.0,0.0,0.0,0.0,0.0,0.0,0.0,0.0,0.0,0.0,0.0,0.0,0.0,0.0,0.0,0.8545,0.8494,0.0,0.0,0.0,0.0,0.0,0.0,0.0,0.5512,0.0,0.0,0.0,0.0,0.0,0.0,0.0,0.0,0.0,0.0,0.0,0.0,0.0,1.3476,1.5637,1.7401,1.8953,1.9821,1.8663,1.8619,1.8672,1.8026,1.6937,1.5722,1.4648,1.2592,1.0458,0.8746,0.5621,0.4072,0.6333,0.746,0.8339,0.0,0.0,0.0,1.699,2.5052,0.0,0.0,3.8872,4.0766,0.0,0.0,0.0,4.0325,3.8961,3.8168,3.8167,3.7237,3.6619,3.6364,3.587,3.6358,3.7809,3.7069,3.77,3.9546,3.9373,3.9565,0.0,0.0,0.0,0.0,3.8288,3.7638,3.775,3.5677,3.5246,3.5917,3.6725,3.7319,3.7765,0.0,0.0,0.0,0.0,0.0,0.0,0.0,0.0,0.0,0.0,0.0,0.5621,0.5767,0.6449,0.0,0.0,0.0,0.0,0.0,0.0,0.0,0.0,0.0,0.0,0.0,0.0,0.0,0.3737,0.4481,0.4465,0.3751,0.0,0.0,0.0,0.0,0.0,0.0,0.6974,0.6701,0.6603,0.5995,0.5573,0.0,0.0,0.0,0.0,0.0,0.0,0.0,0.0,0.0,0.0,0.0,0.0,0.0,0.0,0.0,0.0,0.0,1.5433,1.7134,1.6803,1.6315,1.5913,1.592,1.4736,0.0,1.1096,0.7895,0.488,0.3027,0.0661,-0.0099,0.2759,0.4343,0.0,0.0,0.9814,0.0,0.0,2.5393,0.0,3.4658,3.8527,4.0864,0.0,0.0,0.0,3.9196,3.7456,3.6353,3.6073,3.6151,3.5908,3.5303,3.5496,3.6098,3.7082,3.6876,3.7276,3.82,3.895,3.9315,0.0,0.0,0.0,0.0,3.8155,3.7227,3.6955,3.4791,3.4366,3.5128,3.6001,3.6971,3.7951,0.0,0.0,0.0,0.0,0.0,0.0,0.0,0.0,0.0,0.0,0.0,0.0,0.0,0.0,0.0,0.0,0.0,0.0,0.0,0.0,0.0,0.0,0.0,0.0,0.0,0.0,0.0,0.3109,0.3256,0.3502,0.3872,0.5157,0.0,0.0,0.0,0.6776,0.6244,0.61,0.5708,0.5209,0.524,0.4866,0.0,0.0,0.0,0.0,0.4972,0.5755,0.0,0.0,0.0,0.0,0.0,0.0,0.0,0.0,1.1341,1.1727,1.2056,0.0,1.3175,1.2224,1.3011,1.3891,0.0,1.2522,1.1469,1.0026,0.6068,0.2189,-0.0048,-0.1419,-0.1158,0.1957,0.2717,0.4324,0.8246,1.1478,0.0,2.0304,2.6489,3.162,3.4909,3.8688,0.0,0.0,0.0,3.9451,3.9064,3.7222,3.6131,3.5949,3.5375,3.5115,3.5218,3.6124,3.7007,3.7831,3.7739,3.8469,3.9892,3.9488,3.9642,0.0,0.0,0.0,4.0062,3.8639,3.7558,3.6689,3.5547,3.5058,3.5138,3.621,3.6768,3.715,0.0,0.0,0.0,0.0,0.0,0.0,0.0,0.0,0.0,0.0,0.0,0.0,0.0,0.0,0.0,0.0,0.0,0.0,0.0,0.0,0.0,0.0,0.0,0.0,0.0,0.0,0.0,0.0,0.0,0.2806,0.0,0.0,0.0,0.0,0.0,0.6187,0.5646,0.5523,0.5241,0.4884,0.4904,0.0,0.0,0.0,0.0,0.0,0.5632,0.6411,0.0,0.7976,0.8489,0.8846,0.0,0.0,0.0,0.0,1.0588,1.0931,1.1122,1.1665,1.1942,1.1108,1.1835,1.249,1.1477,1.0542,0.9327,0.744,0.415,0.101,-0.1124,-0.278,-0.3352,-0.1748,-0.0382,0.0,0.0,0.0,1.6859,2.2216,2.8003,3.2912,0.0,0.0,0.0,0.0,0.0,3.8301,3.7433,3.6007,3.5185,3.5127,3.484,3.5058,3.5795,3.6466,3.7448,3.8686,3.8227,3.8681,3.9931,3.9488,3.9315,0.0,0.0,0.0,3.9395,3.8105,3.7448,3.7124,3.5792,3.5164,3.5083,3.5862,3.6235,3.6494,0.0,0.0,0.0,0.0,0.0,0.0,0.0,0.0,0.0,0.0,0.0,0.0,0.0,0.0,0.0,0.0,0.0,0.0,0.0,0.0,0.0,0.0,0.0,0.0,0.0,0.0,0.0,0.0,0.0,0.0,0.0,0.0,0.414,0.0,0.0,0.5497,0.531,0.5069,0.4991,0.4962,0.4824,0.0,0.0,0.0,0.0,0.0,0.0,0.0,0.0,0.8198,0.8543,0.8785,0.8983,0.0,0.0,0.0,0.0,0.0,1.0806,1.1742,1.234,1.1512,1.1558,1.1422,0.9972,0.8728,0.7206,0.4843,0.28,0.0948,-0.0689,-0.3147,-0.5098,-0.5622,0.0,0.0,1.0363,1.4083,1.8206,2.4113,2.9598,0.0,3.758,0.0,0.0,0.0,0.0,3.6862,3.5633,3.4713,3.4223,3.4269,3.4551,3.5343,3.6719,3.6834,3.7731,3.9386,3.8695,3.8777,3.9469,3.9469,3.905,3.8351,0.0,0.0,3.8741,3.7504,3.7326,3.7671,3.6012,3.5302,3.523,3.5597,3.5818,3.602,0.0,0.0,0.0,0.0,0.0,0.0,0.0,0.0,0.0,0.0,0.0,0.0,0.0,0.0,0.0,0.0,0.0,0.0,0.0,0.0,0.0,0.0,0.0,0.0,0.0,0.0,0.0,0.0,0.0,0.0,0.2597,0.3188,0.397,0.4861,0.4744,0.4611,0.4486,0.4446,0.4418,0.4461,0.4875,0.0,0.0,0.0,0.0,0.0,0.0,0.0,0.0,0.8253,0.8425,0.8501,0.87,0.0,0.0,0.0,0.0,0.0,1.2118,1.3162,1.35,1.107,1.0684,1.0405,0.8485,0.7153,0.5996,0.4793,0.3519,0.2347,0.1482,-0.132,-0.3742,-0.4556,0.0,0.5849,0.0,0.0,2.0528,2.524,0.0,3.4338,0.0,0.0,0.0,0.0,0.0,3.6312,3.5861,3.4809,3.4334,3.4614,3.4674,3.5685,3.7757,3.7796,3.831,3.9321,3.985,4.0181,4.0315,4.0315,4.0123,3.9776,0.0,3.934,3.9025,3.857,3.8063,3.7511,3.7232,3.6688,3.6168,3.6667,3.6443,3.5888,0.0,0.0,0.0,0.0,0.0,0.0,0.0,0.0,0.0,0.0,0.0,0.0,0.0,0.0,0.0,0.0,0.0,0.0,0.0,0.0,0.0,0.0,0.0,0.0,0.0,0.0,0.0,0.0,0.0,0.2273,0.2183,0.2711,0.3549,0.4582,0.4758,0.4782,0.4706,0.4426,0.4547,0.4991,0.0,0.0,0.0,0.0,0.0,0.0,0.0,0.0,0.0,0.0,0.8214,0.8428,0.8504,0.0,0.0,0.0,0.0,0.0,1.1412,1.2178,1.2222,1.0174,1.0588,1.0807,0.8173,0.6811,0.5754,0.4705,0.3926,0.3355,0.3131,0.0,-0.1067,-0.2492,0.0,0.7901,1.3988,1.8422,2.2768,0.0,0.0,0.0,0.0,0.0,0.0,0.0,0.0,0.0,3.5281,3.4739,3.4614,3.4908,3.4926,3.5677,3.7276,3.7296,3.7969,3.9296,3.9662,3.9835,3.9873,4.0296,4.0106,3.9395,0.0,3.8751,3.8431,3.814,3.8083,3.8132,3.7821,3.722,3.6478,3.6128,3.5893,3.567,0.0,0.0,0.0,0.0,0.0,0.0,0.0,0.0,0.0,0.0,0.0,0.0,0.0,0.0,0.0,0.0,0.0,0.0,0.0,0.0,0.0,0.0,0.0,0.0,0.0,0.0,0.4389,0.3716,0.2695,0.199,0.1605,0.229,0.3068,0.0,0.4619,0.4981,0.5069,0.4666,0.4844,0.5453,0.0,0.0,0.0,0.0,0.0,0.0,0.0,0.0,0.0,0.0,0.0,0.0,0.0,0.0,0.0,0.897,0.9246,0.9481,1.0262,1.0895,1.0964,0.9335,1.0032,1.0438,0.7743,0.634,0.54,0.461,0.42,0.4068,0.4234,0.2855,0.0,0.0116,0.3987,0.9896,1.7856,2.1421,2.4974,2.9711,3.2599,0.0,0.0,0.0,0.0,0.0,0.0,0.0,3.4547,3.4621,3.4737,3.4783,3.499,3.5605,3.6699,3.6507,3.7296,3.8988,3.8988,3.8988,3.9008,3.9623,3.9459,3.8669,3.8461,3.83,3.817,3.796,3.829,3.8857,3.8454,3.7704,3.6733,3.5552,3.5273,3.5501,0.0,0.0,0.0,0.0,0.0,0.0,0.0,0.0,0.0,0.0,0.0,0.0,0.0,0.0,0.0,0.0,0.0,0.0,0.0,0.0,0.0,0.0,0.0,0.0,0.0,0.4587,0.4062,0.1975,0.1342,0.1002,0.0988,0.2081,0.2646,0.2764,0.3872,0.4639,0.5088,0.5059,0.5069,0.5184,0.5909,0.0,0.0,0.0,0.0,0.0,0.0,0.0,0.0,0.0,0.0,0.0,0.0,0.0,0.8388,0.8113,0.8918,0.9823,0.9357,1.0313,1.0985,0.8968,0.822,0.7663,0.6325,0.5056,0.4231,0.4462,0.4477,0.4436,0.4501,0.3349,0.2617,0.3254,0.6704,1.2635,2.2367,0.0,2.7236,3.1511,0.0,0.0,0.0,0.0,0.0,0.0,0.0,0.0,3.3908,3.4415,3.4453,3.3906,3.4685,3.5605,3.6699,3.5968,3.643,3.8084,3.8084,3.8084,3.8104,3.8142,3.8246,3.8335,3.8313,3.8576,3.9005,3.8979,3.92,3.9529,3.9477,3.8656,3.7243,3.5678,3.5273,3.5507,0.0,0.0,0.0,0.0,0.0,0.0,0.0,0.0,0.0,0.0,0.0,0.0,0.0,0.0,0.0,0.0,0.0,0.0,0.0,0.0,0.0,0.0,0.0,0.3175,0.2459,0.3536,0.2978,0.0683,0.0451,0.0341,0.0411,0.3599,0.0,0.0,0.4602,0.4913,0.5108,0.5098,0.5299,0.5638,0.6213,0.6517,0.0,0.0,0.0,0.0,0.0,0.0,0.0,0.0,0.7561,0.768,0.0,0.7377,0.7332,0.7344,0.7794,0.835,0.8502,0.9412,0.995,0.8471,0.7945,0.7595,0.6943,0.6689,0.6372,0.559,0.5677,0.5762,0.5372,0.0,0.6626,0.7801,1.3299,1.8789,2.2532,2.5888,2.8952,0.0,0.0,0.0,0.0,0.0,0.0,0.0,0.0,0.0,3.3313,3.3519,3.3522,3.3245,3.3552,3.3939,3.4334,3.4045,3.4468,3.5641,3.6199,3.6719,3.7199,3.7022,3.7257,3.7792,3.7627,3.7943,3.8595,3.8595,3.8691,3.8712,3.7883,3.7317,3.6868,3.5756,3.5398,3.543,0.0,0.0,0.0,0.0,0.0,0.0,0.0,0.0,0.0,0.0,0.0,0.0,0.0,0.0,0.0,0.0,0.0,0.0,0.0,0.0,0.0,0.0,0.0,0.2961,0.1825,0.2567,0.1987,0.0,0.0,0.0552,0.1676,0.0,0.0,0.0,0.5185,0.5108,0.5108,0.5108,0.5319,0.5697,0.6171,0.629,0.0,0.0,0.0,0.0,0.0,0.0,0.0,0.0,0.7564,0.7613,0.0,0.0,0.6875,0.6765,0.7102,0.758,0.7784,0.8616,0.9172,0.8234,0.8165,0.8265,0.8101,0.7836,0.7402,0.6347,0.6485,0.6988,0.7328,0.8527,0.0,0.0,1.7738,2.2119,2.3075,2.6719,2.9902,0.0,0.0,0.0,0.0,0.0,0.0,0.0,0.0,0.0,0.0,3.2299,3.2439,3.2122,3.2622,3.2891,3.2891,3.2891,3.3333,3.4199,3.4526,3.5122,3.5911,3.5438,3.5766,3.6709,3.6519,3.7045,3.8048,3.8048,3.8109,3.8078,3.6877,3.6546,3.6584,3.5488,3.5084,3.4968,0.0,0.0,0.0,0.0,0.0,0.0,0.0,0.0,0.0,0.0,0.0,0.0,0.0,0.0,0.0,0.0,0.0,0.0,0.0,0.0,0.0,0.0,0.0,0.2982,0.1847,0.1792,0.1198,0.0,0.0,0.1732,0.5059,0.5098,0.0,0.0,0.0,0.5108,0.5108,0.5108,0.5108,0.5146,0.5678,0.5566,0.5127,0.0,0.0,0.0,0.0,0.0,0.0,0.0,0.7978,0.7743,0.0,0.0,0.0,0.6436,0.7061,0.786,0.725,0.7966,0.8796,0.8335,0.8864,0.9518,0.9565,0.8078,0.6614,0.6442,0.6867,0.799,1.0361,1.1296,0.0,1.6277,1.8993,2.1683,2.4594,2.7614,0.0,0.0,0.0,0.0,0.0,0.0,0.0,0.0,0.0,0.0,0.0,3.0766,3.1275,3.0398,3.2006,3.2872,3.2872,3.2872,3.3314,3.416,3.3295,3.3353,3.416,3.3295,3.3652,3.4977,3.4977,3.5928,3.747,3.7489,3.7704,3.7892,3.7026,3.6699,3.6488,3.4814,3.4199,3.4064,0.0,0.0,0.0,0.0,0.0,0.0,0.0,0.0,0.0,0.0,0.0,0.0,0.0,0.0,0.0,0.0,0.0,0.0,0.0,0.0,0.0,0.0,0.0,0.0,0.0,0.0,0.0361,0.0,0.0,0.0516,0.0,0.0,0.0,0.5358,0.0,0.5973,0.5641,0.5262,0.5108,0.5108,0.5281,0.5243,0.5185,0.0,0.0,0.0,0.0,0.0,0.0,0.0,0.0,0.0,0.7024,0.0,0.6806,0.5787,0.6385,0.7256,0.6792,0.779,0.8906,0.8685,0.8906,0.9316,0.9668,0.9457,0.922,0.9289,0.9947,1.1067,1.2788,1.5126,0.0,1.974,2.2049,2.4359,2.6644,2.827,0.0,0.0,0.0,0.0,0.0,0.0,0.0,0.0,0.0,0.0,0.0,2.936,2.9805,2.9486,2.9967,3.0525,3.1141,3.0525,3.0968,3.2449,3.2179,3.2814,3.416,3.3101,3.2958,3.3513,3.3306,3.4347,3.6215,3.6832,3.7082,3.7007,3.618,3.5872,3.5718,3.4603,3.4199,3.3987,0.0,0.0,0.0,0.0,0.0,0.0,0.0,0.0,0.0,0.0,0.0,0.0,0.0,0.0,0.0,0.0,0.0,0.0,0.0,0.0,0.0,0.0,0.0,0.0,0.0,0.2118,0.1603,0.0,0.0,0.0,0.0,0.0,0.5108,0.5127,0.0,0.5834,0.5646,0.6594,0.7002,0.6925,0.6,0.5811,0.6137,0.0,0.0,0.0,0.0,0.0,0.0,0.0,0.0,0.0,0.6962,0.6789,0.6771,0.5952,0.6501,0.7367,0.729,0.8239,0.9249,0.9366,0.9754,1.0321,1.112,1.0794,1.061,1.1699,1.2456,1.3676,1.61,1.8431,0.0,2.2878,2.4566,2.6195,2.7802,2.8636,0.0,0.0,0.0,0.0,0.0,0.0,0.0,0.0,0.0,0.0,0.0,2.7735,2.8155,2.8102,2.8429,2.9025,2.989,2.9352,2.9967,3.1698,3.1698,3.2237,3.3179,3.2502,3.2267,3.2429,3.2628,3.3631,3.5193,3.5736,3.6065,3.6196,3.5726,3.531,3.493,3.4391,3.3776,3.3064,0.0,0.0,0.0,0.0,0.0,0.0,0.0,0.0,0.0,0.0,0.0,0.0,0.0,0.0,0.0,0.0,0.0,0.0,0.0,0.0,0.0,0.0,0.0,0.0,0.0,0.0,0.0,0.0,0.0,0.0,0.0,0.0,0.5108,0.5098,0.0,0.4962,0.5313,0.8538,0.9905,0.9703,0.7574,0.7073,0.7568,0.7174,0.0,0.0,0.0,0.0,0.0,0.0,0.0,0.0,0.7153,0.6989,0.6958,0.6553,0.705,0.7826,0.8185,0.8902,0.9651,1.0166,1.1089,1.2153,1.3407,1.2249,1.1586,1.3889,1.461,1.6041,1.9729,2.1295,2.2873,2.5425,2.6463,2.7275,2.8215,0.0,0.0,0.0,0.0,0.0,0.0,0.0,0.0,0.0,0.0,0.0,0.0,2.6168,2.6601,2.6601,2.7371,2.8198,2.9083,2.9025,2.9852,3.1583,3.166,3.166,3.1583,3.166,3.1621,3.153,3.2483,3.3369,3.416,3.4322,3.4769,3.5378,3.5456,3.4963,3.4199,3.4199,3.3237,3.191,0.0,0.0,0.0,0.0,0.0,0.0,0.0,0.0,0.0,0.0,0.0,0.0,0.0,0.0,0.0,0.0,0.0,0.0,0.0,0.0,0.0,0.0,0.0,0.0,0.0,0.0,0.0,0.0,0.0,0.0,0.0,0.0,0.0,0.5049,0.0,0.3872,0.5313,0.8538,0.9905,0.9855,0.9339,0.8514,0.7607,0.7768,0.77,0.0,0.0,0.0,0.0,0.0,0.0,0.0,0.6925,0.6631,0.6562,0.6157,0.6609,0.7284,0.7345,0.8242,0.9326,1.0088,1.1897,1.3662,1.4388,1.5055,1.5648,1.5984,1.7091,1.8874,2.1698,2.3555,2.4913,2.5885,2.68,2.751,2.7953,0.0,0.0,0.0,0.0,0.0,0.0,0.0,0.0,0.0,0.0,0.0,2.5331,2.613,2.6601,2.6601,2.6774,2.7582,2.9083,2.8467,2.9006,0.0,3.1371,3.1352,3.0698,3.1391,3.0987,2.9825,3.1433,3.1871,3.1547,3.2971,3.3563,3.3635,3.4313,3.443,3.4199,3.4199,3.3968,3.3468,0.0,0.0,0.0,0.0,0.0,0.0,0.0,0.0,0.0,0.0,0.0,0.0,0.0,0.0,0.0,0.0,0.0,0.0,0.0,0.0,0.0,0.0,0.0,0.0,0.0,0.0,0.0,0.0,0.0,0.0,0.5198,0.5129,0.5331,0.5701,0.0,0.5292,0.5864,0.8229,0.9289,0.9384,0.9384,0.9319,0.9177,0.8666,0.864,0.8893,0.9044,0.0,0.0,0.0,0.0,0.0,0.0,0.0,0.676,0.6548,0.6928,0.7479,0.7673,0.8675,1.0041,1.1653,1.3746,1.5579,1.6434,1.7402,1.837,1.9329,1.9746,2.079,2.3601,2.4511,2.5261,2.6552,2.6991,2.7289,2.7702,0.0,0.0,0.0,0.0,0.0,0.0,0.0,0.0,0.0,0.0,2.5303,2.5303,2.5726,2.5986,2.5986,2.5986,2.6601,2.789,2.7486,2.7941,2.9264,3.0104,3.0511,3.05,3.0491,3.0047,2.9303,3.0311,3.0747,3.0843,3.2209,3.2907,3.3184,3.4057,3.3838,3.3141,3.4372,3.4045,3.2929,0.0,0.0,0.0,0.0,0.0,0.0,0.0,0.0,0.0,0.0,0.0,0.0,0.0,0.0,0.0,0.0,0.0,0.0,0.0,0.0,0.0,0.0,0.0,0.0,0.0,0.0,0.0,0.0,0.0,0.5309,0.5289,0.5463,0.5857,0.6436,0.7141,0.7151,0.6705,0.7992,0.8561,0.8634,0.9119,0.9968,1.0858,0.9701,0.9593,1.0048,0.9807,0.9734,0.9726,0.9726,0.0,0.0,0.0,0.0,0.733,0.7236,0.7565,0.7981,0.8303,0.942,1.112,1.3586,1.5634,1.7339,1.8622,1.9361,2.0391,2.2512,2.2088,2.2164,2.5008,2.5031,2.5132,2.6859,2.6897,2.6864,2.7309,0.0,0.0,0.0,0.0,0.0,0.0,0.0,0.0,0.0,0.0,2.5303,2.5303,2.5303,2.5303,2.5303,2.5303,2.5717,2.6601,2.6602,2.7084,2.8004,2.8694,2.9426,3.0133,2.9213,2.8909,2.9118,2.9386,2.9775,3.0312,3.1328,3.2051,3.2629,3.3654,3.3082,3.1968,3.4218,3.3718,3.2006,0.0,0.0,0.0,0.0,0.0,0.0,0.0,0.0,0.0,0.0,0.0,0.0,0.0,0.0,0.0,0.0,0.0,0.0,0.5108,0.0,0.0,0.508,0.5043,0.0,0.0,0.0,0.0,0.0,0.5309,0.5309,0.534,0.6716,0.7005,0.6416,0.6533,0.6917,0.7587,0.834,0.8365,0.8036,1.0309,1.1153,1.0965,1.0774,1.0068,0.9261,1.0029,1.0272,1.0222,1.0222,0.9628,0.0,0.0,0.0,0.8233,0.7817,0.803,0.8398,0.8334,0.9597,1.1594,1.441,1.6293,1.7912,1.9751,2.0977,2.2175,0.0,2.35,2.3448,2.5042,2.5768,2.6008,2.5726,2.6071,2.6393,2.6447,0.0,0.0,0.0,0.0,0.0,0.0,0.0,0.0,0.0,2.5313,2.5303,2.5303,2.5303,2.5303,2.5303,2.5303,2.5717,2.6601,2.6668,2.7125,2.8004,2.8165,2.832,2.841,2.7585,2.7631,2.8398,2.9169,2.8758,2.7656,2.9277,2.9901,2.9971,3.1605,3.2016,3.1833,3.2852,3.3026,3.2756,0.0,0.0,0.0,0.0,0.0,0.0,0.0,0.0,0.0,0.0,0.0,0.0,0.0,0.0,0.0,0.7501,0.6899,0.6171,0.5286,0.5281,0.5309,0.5309,0.5309,0.5309,0.0,0.0,0.0,0.0,0.5309,0.5309,0.534,0.6936,0.7491,0.7121,0.7121,0.8109,0.9759,0.9735,0.9536,0.9438,1.1235,1.2334,1.2904,1.2298,1.1753,1.1342,1.1719,1.1438,1.0867,1.1025,1.0497,0.9687,0.958,0.0,0.0,0.0,0.995,1.0374,1.083,1.1784,1.3275,1.5695,1.7364,1.8851,2.066,2.165,2.2629,2.4165,2.4498,2.4805,2.5758,2.5576,2.5431,2.584,2.5776,2.5706,2.5794,0.0,0.0,0.0,0.0,0.0,0.0,0.0,0.0,0.0,2.5303,2.5303,2.5303,2.5303,2.5303,2.5303,2.533,2.5539,2.5925,2.5996,2.6468,2.7386,2.7405,2.7671,2.8147,2.7745,2.7542,2.7488,2.7884,2.7639,2.7043,2.8262,2.8699,2.8747,3.0455,3.0762,3.0467,3.2237,3.2602,3.2237,0.0,0.0,0.0,0.0,0.0,0.0,0.0,0.0,0.0,0.0,0.0,0.0,0.0,0.0,0.0,0.0,0.7695,0.7026,0.5404,0.5309,0.5309,0.5309,0.5309,0.5309,0.5309,0.0,0.0,0.4628,0.5087,0.5309,0.534,0.6936,0.7889,0.8269,0.8269,0.9082,1.0478,1.0967,1.1447,1.1896,1.2615,1.3662,1.4727,1.3707,1.3544,1.3791,1.3234,1.2743,1.2288,1.2126,1.1597,1.0989,1.0913,1.1376,0.0,0.0,0.0,1.2019,1.2921,1.3526,1.4366,1.6459,1.7948,1.9343,2.0952,2.1785,2.2538,0.0,2.452,2.5144,2.5693,2.5297,2.5138,2.5946,2.5633,2.5324,2.5386,2.5408,0.0,0.0,0.0,0.0,0.0,0.0,0.0,0.0,2.5303,2.5303,2.5303,2.5303,2.5303,2.5321,2.5379,2.5413,2.5434,2.5484,2.5892,2.6609,2.6605,2.6937,2.7565,2.7503,2.7145,2.6571,2.6783,2.6741,2.6604,2.7429,2.7737,2.7815,2.9287,2.9555,2.9333,3.1237,3.1698,3.141,0.0,0.0,0.0,0.0,0.0,0.0,0.0,0.0,0.0,0.0,0.0,0.0,0.0,0.7695,0.7695,0.7695,0.7695,0.7026,0.5404,0.5309,0.5309,0.5309,0.5309,0.0,0.5309,0.5309,0.45,0.2845,0.45,0.5309,0.534,0.6936,0.8439,0.979,0.979,0.9069,0.8118,1.1593,1.4023,1.5477,1.4957,1.5151,1.5639,1.4741,1.5091,1.5806,1.3895,1.4016,1.4879,1.356,1.2995,1.2768,1.2401,1.2942,1.348,0.0,0.0,0.0,1.3312,1.3541,1.4028,1.6102,1.7541,1.8817,2.0228,0.0,2.2016,2.2343,2.3007,2.3644,2.4059,2.5255,2.6037,2.5525,2.5517,2.5547,2.5415,2.5446,0.0,0.0,0.0,0.0,0.0,0.0,0.0,0.0,2.5303,2.5303,2.5303,2.5303,2.533,2.5379,2.5398,2.5428,2.5484,2.5561,2.5652,2.5762,2.5762,2.5781,2.584,2.5767,2.5718,2.5718,2.6478,2.634,2.5634,2.651,2.6831,2.687,2.7776,2.854,2.9121,2.9236,2.9794,3.059,0.0,0.0,0.0,0.0,0.0,0.0,0.0,0.0,0.0,0.0,0.0,0.0,0.0,0.9365,0.9365,0.9365,0.9365,0.8513,0.6508,0.64,0.6065,0.5342,0.5999,0.6045,0.5329,0.5309,0.4436,0.2712,0.5176,0.6535,0.6837,0.7421,0.7966,0.8523,0.9463,1.0404,1.1328,1.2645,1.3547,1.4214,1.5104,1.561,1.583,1.6065,1.6169,0.0,0.0,0.0,0.0,1.4897,0.0,0.0,0.0,1.4132,1.5079,1.5147,1.5035,1.4982,1.5317,1.5292,1.5396,1.6369,1.7238,1.8285,1.9831,2.0908,2.1751,2.2381,2.2812,2.3278,2.3944,2.4961,2.5644,2.5448,2.5488,2.5497,2.541,2.5464,0.0,0.0,0.0,0.0,0.0,0.0,0.0,0.0,0.0,2.4767,2.5324,2.5363,2.5387,2.5394,2.5473,2.5558,2.5633,2.5659,2.5682,2.5703,2.5703,2.5683,2.5634,2.5605,2.5554,2.5482,2.5789,2.5712,2.5454,2.5727,2.5826,2.5898,2.6747,2.7268,2.7621,2.8698,2.9294,2.9698,0.0,0.0,0.0,0.0,0.0,0.0,0.0,0.0,0.0,0.0,0.0,0.0,0.0,0.0,1.0283,1.0283,1.0283,0.9341,0.714,0.6979,0.668,0.5898,0.6607,0.666,0.5885,0.5109,0.4175,0.3018,0.4933,0.6395,0.7483,0.7614,0.7695,0.7754,0.9251,1.1148,1.3232,1.3835,1.4052,1.4181,1.5329,1.5799,1.5858,1.6443,1.6647,0.0,0.0,0.0,0.0,0.0,0.0,0.0,0.0,1.5326,1.6093,1.6677,1.6747,1.6659,1.693,1.6592,1.6248,1.6525,1.6931,1.7623,1.8952,1.9987,2.088,2.1664,2.2167,2.264,2.3162,2.3949,2.4627,2.4955,2.5283,2.5388,2.5089,2.5049,0.0,0.0,0.0,0.0,0.0,0.0,0.0,0.0,0.0,0.0,2.4921,2.4974,2.5135,2.5457,2.5587,2.5659,2.5703,2.5703,2.5683,2.5661,2.5661,2.5633,2.5564,2.5547,2.5473,2.5413,2.5376,2.5379,2.5371,2.5322,2.5303,2.536,2.5947,2.6351,2.6774,2.8179,2.8871,2.9217,0.0,0.0,0.0,0.0,0.0,0.0,0.0,0.0,0.0,0.0,0.0,0.0,0.0,0.0,0.0,1.0283,1.0244,0.9301,0.7147,0.6979,0.6979,0.6979,0.6979,0.6979,0.6979,0.4831,0.3667,0.3581,0.0,0.0,0.0,0.7525,0.7744,0.7754,0.9309,1.1199,1.3288,1.5074,1.5799,1.5814,1.5888,1.5873,1.5814,1.5858,0.0,0.0,1.8257,1.8842,0.0,1.8675,0.0,0.0,0.0,1.6569,1.6432,1.7052,1.7139,1.7204,0.0,0.0,0.0,1.655,1.6615,1.6836,1.7598,0.0,1.9377,2.0109,2.0943,2.1546,2.1585,2.2242,2.3067,2.3966,2.4863,2.52,2.4414,2.4277,0.0,0.0,0.0,0.0,0.0,0.0,0.0,0.0,2.3345,2.321,2.4018,2.4149,2.464,2.5564,2.5661,2.5703,2.5703,2.5703,2.5661,2.5601,2.5601,2.5561,2.5508,2.5434,2.5394,2.5406,2.533,2.5313,2.5303,2.5303,2.5303,2.5303,2.5303,2.5832,2.6678,2.7544,2.8371,2.9179,0.0,0.0,0.0,0.0,0.0,0.0,0.0,0.0,0.0,0.0,0.0,0.0,0.0,0.0,1.0283,1.0283,0.8852,0.7675,0.7021,0.6979,0.6979,0.6979,0.6979,0.6979,0.6979,0.638,0.526,0.3581,0.0,0.0,0.0,0.0,0.0,0.0,1.0919,1.2622,1.3288,1.5074,1.5799,1.5963,1.7867,1.7492,0.0,0.0,0.0,0.0,0.0,1.9404,1.9751,0.0,1.9272,1.8671,0.0,1.6749,1.6809,1.762,1.7937,1.8061,1.8286,0.0,0.0,0.0,0.0,0.0,1.7019,0.0,1.842,1.9264,1.9623,2.0158,2.1372,2.1741,2.1936,2.2207,2.3552,2.4499,2.4326,2.4822,0.0,0.0,0.0,0.0,0.0,0.0,0.0,0.0,2.222,2.2397,2.3257,2.3921,2.4703,2.5642,2.5683,2.5682,2.5633,2.5633,2.5598,2.5535,2.5535,2.5526,2.5489,2.5473,2.5453,2.5413,2.5376,2.5348,2.5303,2.5303,2.5303,2.5303,2.5303,2.5437,2.5774,2.664,2.7505,2.8352,0.0,0.0,0.0,0.0,0.0,0.0,0.0,0.0,0.0,0.0,0.0,0.0,0.0,0.0,0.0,1.0283,0.8285,0.6979,0.6979,0.6979,0.6979,0.6979,0.6979,0.6979,0.6979,0.6979,0.5862,0.3581,0.0,0.0,0.0,0.0,0.0,0.0,0.0,1.3615,1.4342,1.5359,1.5799,1.5962,1.7761,0.0,0.0,1.744,1.7834,0.0,0.0,0.0,2.0645,2.0806,2.0256,0.0,0.0,0.0,1.7449,0.0,1.843,1.8701,1.8862,1.8818,1.8524,1.7664,0.0,0.0,1.7677,1.8013,1.859,0.0,1.96,1.989,2.0874,2.1024,2.1119,2.1446,2.2397,2.3101,2.3188,2.3961,0.0,0.0,0.0,0.0,0.0,2.2305,2.1767,2.1803,2.1403,2.1543,2.246,2.3338,2.4218,2.5137,2.5135,2.5265,2.5601,2.5567,2.5511,2.5465,2.5465,2.5447,2.5427,2.5427,2.5398,2.5363,2.5354,2.533,2.5303,2.5303,2.5303,2.5303,2.5303,2.5303,2.5399,2.6274,2.7159,2.8025,0.0,0.0,0.0,0.0,0.0,0.0,0.0,0.0,0.0,0.0,0.0,0.0,0.0,0.0,0.0,0.0,0.8285,0.7074,0.7214,0.7094,0.0,0.7214,0.7221,0.7154,0.6985,0.6979,0.599,0.3972,0.0,0.0,0.0,0.0,0.0,0.0,0.0,0.0,1.5799,1.5799,1.5799,1.5856,1.6528,1.7194,0.0,0.0,1.7722,1.8869,1.8949,2.0082,2.1657,2.1978,2.1352,0.0,0.0,0.0,0.0,0.0,1.8807,1.9259,1.9518,1.9132,1.8705,1.8853,1.8411,0.0,1.8815,1.8896,1.9045,0.0,1.9946,1.9927,2.0111,2.0158,2.0427,2.1235,2.1455,2.1608,2.1939,2.2663,2.3166,0.0,0.0,0.0,2.2888,2.2094,2.1558,2.1566,2.0827,2.08,2.1728,2.2504,2.3372,2.4354,2.4243,2.4617,2.557,2.5429,2.5368,2.5391,2.5391,2.5363,2.5303,2.5303,2.5303,2.5303,2.5303,2.5303,2.5303,2.5303,2.5303,2.5303,2.5303,2.5303,2.538,2.6178,2.7005,2.7852,0.0,0.0,0.0,0.0,0.0,0.0,0.0,0.0,0.0,0.0,0.0,0.0,0.0,0.0,0.0,0.0,0.8285,0.7428,0.8397,0.0,0.0,0.8417,0.8457,0.8009,0.6999,0.6979,0.6761,0.6337,0.0,0.0,0.0,0.0,0.0,0.0,0.0,0.0,0.0,1.5799,1.5799,1.5856,1.6528,1.7207,1.7788,1.7636,1.7985,1.8575,1.9186,2.0334,2.1669,2.1995,2.152,2.07,0.0,0.0,0.0,1.9237,0.0,0.0,0.0,0.0,0.0,0.0,0.0,0.0,1.8231,1.7549,1.7241,0.0,1.7696,1.7657,1.8996,1.9254,1.953,2.0389,2.1123,2.2107,2.3582,2.3941,2.4063,0.0,0.0,0.0,2.201,2.1119,2.0594,2.064,2.0458,2.0712,2.1594,2.1791,2.2641,2.4264,2.3634,2.3956,2.5428,2.4768,2.4752,2.5322,2.5322,2.5313,2.5303,2.5303,2.5303,2.5303,2.5303,2.5303,2.5303,2.5303,2.5303,2.5303,2.5303,2.5303,2.5322,2.5495,2.612,2.689,0.0,0.0,0.0,0.0,0.0,0.0,0.0,0.0,0.0,0.0,0.0,0.0,0.0,0.0,0.0,0.0,0.0,0.0,0.0,0.0,0.0,0.0,0.8804,0.8524,0.7923,0.7328,0.7315,0.7909,0.0,0.0,0.0,0.0,0.0,0.0,0.0,0.0,0.0,1.6126,1.6799,1.6773,1.6448,0.0,1.78,1.7798,1.8145,1.8709,1.9234,2.0269,2.1547,2.2222,2.1731,0.0,2.1472,2.1456,2.1053,0.0,2.0455,2.0732,0.0,0.0,0.0,1.969,0.0,0.0,0.0,1.877,1.8622,1.9442,1.8619,1.8145,1.9412,1.9317,1.9336,2.0218,2.0723,2.1473,2.2851,2.3053,2.3066,2.3095,0.0,0.0,2.1643,2.083,2.0283,2.0255,2.0158,2.0521,2.1496,2.1558,2.2375,2.4185,2.3786,2.4135,2.5394,2.4973,2.4925,2.5303,2.5303,2.5303,2.5303,2.5303,2.5303,2.5303,2.5303,2.5303,2.5303,2.5303,2.5303,2.5303,2.5303,2.5303,2.5303,2.5303,2.5851,2.6601,0.5132,0.6066,0.0,0.0,0.0,0.0,0.0,0.0,0.0,0.0,0.0,0.0,0.0,0.0,1.2881,0.0,0.0,0.0,0.0,0.0,0.0,0.0,0.8804,0.8804,0.8804,0.8357,0.8614,0.9569,0.0,0.0,0.0,0.0,0.0,0.0,0.0,0.0,1.3914,1.7247,1.8312,1.7721,0.0,1.6834,1.7811,1.7861,1.8342,1.9035,1.9543,2.0441,2.1533,2.2589,2.2136,2.1376,2.2842,2.255,0.0,0.0,0.0,0.0,0.0,0.0,0.0,0.0,0.0,2.0581,0.0,0.0,0.0,2.0885,1.9812,1.9025,1.9909,0.0,0.0,0.0,0.0,0.0,0.0,2.1091,0.0,2.1296,0.0,0.0,2.1086,2.0588,2.0203,2.0096,1.9964,2.0336,2.1408,2.1454,2.2294,2.4119,2.3973,2.4343,2.5364,2.5167,2.5159,2.5303,2.5303,2.5303,2.5303,2.5303,2.5303,2.5303,2.5303,2.5303,2.5303,2.5303,2.5303,2.5303,2.5303,2.5303,2.5303,2.5303,2.5755,2.6351,0.4557,0.5535,0.6979,0.0,0.0,0.0,0.0,0.0,0.0,0.0,0.0,0.0,1.2627,1.2881,1.2881,1.2881,1.2881,0.0,1.5932,0.0,0.0,0.0,0.8804,0.8804,0.8804,1.103,1.2281,1.2421,0.0,0.0,0.0,0.0,0.0,0.0,0.4996,0.0,1.5772,1.9991,2.0264,0.0,1.7635,1.7658,0.0,1.8128,1.8662,1.9447,2.0766,2.1388,2.1763,0.0,2.2935,2.2266,0.0,2.3108,2.3203,2.0831,0.0,0.0,0.0,0.0,0.0,0.0,2.0976,0.0,2.0558,0.0,1.9165,1.9261,0.0,1.8133,1.9057,0.0,0.0,0.0,0.0,0.0,1.7398,1.8569,1.955,1.9495,2.0779,0.0,0.0,1.978,2.0031,2.0012,1.9882,2.0251,2.1263,2.133,2.2182,2.4049,2.3339,2.3715,2.5293,2.4591,2.4582,2.5303,2.5303,2.5303,2.5303,2.5303,2.5303,2.5303,2.5303,2.5303,2.5303,2.5303,2.5303,2.5303,2.5303,2.5303,2.5303,2.5303,2.536,2.5437,0.7609,0.7231,0.6979,0.0,0.0,0.0,0.0,0.0,0.0,0.0,0.0,0.0,1.2774,1.4165,1.446,1.3189,1.2964,1.3931,1.6337,1.5567,0.0,0.0,0.9673,0.8804,0.8804,0.0,0.0,0.0,1.4294,0.0,0.0,0.0,0.0,0.0,1.1687,0.0,1.269,0.0,2.0819,0.0,0.0,1.8499,0.0,1.8632,1.8784,1.9327,2.0089,2.0773,2.1532,0.0,2.253,0.0,0.0,0.0,0.0,2.1917,0.0,0.0,0.0,0.0,0.0,0.0,0.0,0.0,2.0648,0.0,1.989,0.0,0.0,0.0,0.0,0.0,0.0,0.0,1.8253,0.0,0.0,0.0,1.8513,0.0,0.0,0.0,0.0,0.0,0.0,0.0,1.9207,1.9719,2.1768,2.1918,2.2834,2.4783,2.4501,2.4648,2.5354,2.4985,2.4966,2.5303,2.5303,2.5303,2.5303,2.5303,2.5303,2.5303,2.5303,2.5303,2.5303,2.5303,2.5303,2.5303,2.5303,2.5303,2.5303,2.5303,2.5303,2.5303,1.0685,0.9347,0.7915,0.7915,0.0,0.0,0.0,0.0,0.0,0.0,1.12,1.2881,1.2881,1.5062,1.5827,1.4237,1.3367,1.3672,1.548,1.6183,1.5433,1.3017,1.1639,1.062,0.9925,1.359,0.0,1.6522,1.5389,0.0,0.0,0.0,0.0,0.0,0.0,1.5325,1.235,0.0,2.1491,2.1331,1.9929,1.9632,1.9951,1.9153,1.9225,1.9772,1.9985,2.0871,2.209,2.2906,2.2775,0.0,2.4588,0.0,2.251,0.0,0.0,0.0,2.118,0.0,0.0,0.0,0.0,0.0,0.0,0.0,0.0,0.0,0.0,0.0,0.0,0.0,0.0,0.0,0.0,1.7539,0.0,1.6934,0.0,0.0,0.0,0.0,0.0,0.0,0.0,1.9383,1.8856,1.962,2.2155,2.2618,2.3592,2.5321,2.5398,2.5391,2.5379,2.5312,2.5303,2.5303,2.5303,2.5303,2.5303,2.5303,2.5303,2.5303,2.5303,2.5303,2.5303,2.5303,2.5303,2.5303,2.5303,2.5303,2.5303,2.5303,2.5303,2.5303,1.2793,1.1392,1.0196,1.0196,0.9369,0.0,0.0,0.0,0.0,0.8804,1.12,1.2881,1.2881,1.5062,1.6497,1.6421,1.4261,1.2999,1.3295,1.5289,1.5433,1.3017,1.505,1.5141,1.2822,1.292,1.4154,1.6522,1.5668,1.5242,0.0,0.0,0.0,0.0,1.551,1.6689,1.7743,2.058,2.2667,2.395,2.263,2.1274,2.006,0.0,2.0156,2.1158,2.1364,0.0,0.0,2.4255,2.4293,0.0,0.0,0.0,0.0,0.0,0.0,0.0,0.0,0.0,0.0,2.1211,0.0,0.0,0.0,0.0,2.0406,0.0,0.0,0.0,0.0,0.0,0.0,0.0,0.0,0.0,0.0,0.0,0.0,0.0,0.0,0.0,0.0,0.0,1.7677,1.8474,1.9176,2.0364,2.2206,2.3283,2.4292,2.5274,2.5379,2.5379,2.5293,2.5313,2.5303,2.5303,2.5303,2.5303,2.5303,2.5303,2.5303,2.5303,2.5303,2.5303,2.5303,2.5303,2.5303,2.5303,2.5303,2.5303,2.5303,2.5303,2.5303,2.5303,1.2881,1.2412,1.1641,1.0488,0.9455,0.942,0.0,0.9984,0.8804,0.8804,1.12,1.3525,1.5119,1.602,1.6522,1.6522,1.5744,1.5314,1.5374,1.6065,1.5433,1.3017,1.5197,1.6107,1.5299,1.6671,1.7083,1.6522,1.625,1.6107,0.0,0.0,0.0,0.0,0.0,1.7515,0.0,0.0,0.0,0.0,0.0,2.1034,2.014,0.0,0.0,2.0643,2.1418,2.2429,0.0,2.4173,2.4373,2.4471,2.5078,2.4473,2.3594,2.3906,2.3398,0.0,0.0,0.0,2.3203,2.1816,0.0,0.0,0.0,0.0,0.0,0.0,0.0,0.0,0.0,0.0,0.0,0.0,0.0,0.0,0.0,0.0,0.0,0.0,0.0,0.0,0.0,0.0,0.0,1.839,1.9157,2.0382,2.2206,2.3361,2.4389,2.534,2.5434,2.5434,2.5379,2.5312,2.5303,2.5303,2.5303,2.5303,2.5303,2.5303,2.5303,2.5303,2.5303,2.5303,2.5303,2.5303,2.5303,2.5303,2.5303,2.5303,2.5303,2.5303,2.5303,2.538,1.3065,1.2881,1.2081,0.9576,0.8947,0.9725,1.2471,1.1401,1.0285,1.0285,1.181,1.3847,1.625,1.6522,1.6522,1.6522,1.6522,1.6522,1.6522,1.6522,1.5788,1.4247,1.5656,1.6522,1.6522,1.8612,1.865,1.6522,1.7271,1.7626,1.7612,0.0,0.0,0.0,0.0,1.8706,1.8568,2.0825,2.1822,0.0,0.0,2.1483,0.0,0.0,2.0795,2.083,0.0,2.2121,2.3276,2.4101,2.4394,2.4551,2.543,2.4922,2.4121,2.4707,2.3887,2.2734,2.2441,2.2949,0.0,2.2187,2.2714,0.0,2.2055,0.0,0.0,0.0,0.0,0.0,0.0,0.0,0.0,0.0,0.0,0.0,0.0,1.6547,0.0,0.0,1.7007,1.7385,0.0,1.6863,1.6932,1.8267,1.9195,2.0458,0.0,0.0,2.4767,2.5352,2.5428,2.5434,2.5371,2.5312,2.5303,2.5303,2.5303,2.5303,2.5303,2.5303,2.5303,2.5303,2.5303,2.5303,2.5303,2.5303,2.5303,2.5303,2.5303,2.5303,2.5303,2.5303,2.5303,2.5418,1.3382,1.2774,1.1524,0.773,0.8049,0.9725,1.2471,1.2881,1.2929,1.3065,1.3065,1.3931,1.625,1.6595,1.668,1.668,1.668,1.6587,1.6358,1.6459,1.6522,1.6522,1.6595,1.668,1.668,1.865,1.8688,1.668,1.8688,1.969,1.9624,0.0,0.0,0.0,2.027,0.0,1.8826,2.1131,2.2227,2.2448,2.2369,2.2654,2.3052,2.2304,2.1911,2.1705,2.0936,2.1738,2.3262,2.4102,2.4394,2.4551,2.543,2.5703,2.5703,2.5703,2.5078,2.4238,2.3477,2.3828,2.4023,2.2422,0.0,0.0,0.0,0.0,2.193,0.0,0.0,0.0,0.0,0.0,0.0,0.0,0.0,0.0,0.0,0.0,1.7614,0.0,1.6605,1.6797,1.7404,1.5894,1.5811,1.8098,1.9336,2.066,0.0,0.0,2.5324,2.5293,2.5371,2.5379,2.5303,2.5303,2.5303,2.5303,2.5303,2.5303,2.5303,2.5303,2.5303,2.5303,2.5303,2.5303,2.5303,2.5303,2.5303,2.5303,2.5303,2.5303,2.5303,2.5303,2.5303,2.5418,1.3382,1.125,0.9519,0.8497,0.8604,0.9725,1.2471,1.2881,1.3515,1.5344,1.5567,1.5788,1.6423,1.7907,1.8893,1.8893,1.8893,1.7483,1.4248,1.5605,1.6522,1.6522,1.8027,1.8893,1.8893,1.9406,1.9442,1.8893,1.9442,1.969,1.9639,0.0,0.0,0.0,0.0,1.9882,1.975,2.0317,2.1582,2.3204,2.2987,2.3256,2.3749,0.0,2.2793,2.1855,2.1641,2.1855,2.2461,2.3906,2.4394,2.4551,2.543,2.5703,2.5703,2.5703,2.5078,2.4355,2.4141,2.4238,2.4297,2.3867,2.4062,2.4255,0.0,0.0,0.0,0.0,0.0,0.0,0.0,0.0,0.0,0.0,0.0,0.0,0.0,0.0,0.0,1.8849,1.8817,1.7947,1.5795,1.6549,1.7353,1.7814,1.9908,2.1677,2.2817,0.0,0.0,2.5284,2.5371,2.5379,2.5303,2.5303,2.5303,2.5303,2.5303,2.5303,2.5303,2.5303,2.5303,2.5303,2.5303,2.5303,2.5303,2.5303,2.5303,2.5303,2.5303,2.5303,2.5303,2.5303,2.5303,2.5514,1.3162,1.0694,0.8804,0.8804,0.8804,0.0,1.2471,1.38,0.0,1.6337,1.7312,0.0,1.6595,1.8419,1.969,1.969,1.969,1.8251,1.4854,1.5831,1.6522,1.6522,1.8574,1.9244,1.8341,1.9207,1.969,1.969,1.969,0.0,1.969,0.0,0.0,0.0,0.0,2.0495,2.0807,2.1475,2.2579,2.3887,2.3732,2.4099,0.0,2.4316,2.3457,2.2383,2.2031,2.166,2.1582,2.3262,2.3848,2.4023,2.4863,2.5391,2.5625,2.5234,2.4785,2.4394,2.4394,2.4394,2.4394,2.4394,2.4666,2.4838,2.4477,2.4385,2.423,0.0,0.0,0.0,0.0,0.0,0.0,0.0,0.0,0.0,0.0,0.0,0.0,0.0,1.9132,1.8217,1.5915,1.7339,1.8258,1.7905,1.987,2.1567,0.0,0.0,0.0,2.5264,2.5339,2.5339,2.5303,2.5303,2.5303,2.5303,2.5303,2.5303,2.5303,2.5303,2.5303,2.5303,2.5303,2.5303,2.5303,2.5303,2.5303,2.5303,2.5303,2.5303,2.5341,2.5726,2.587,2.6063,1.2881,1.0998,0.9316,0.9316,0.9316,0.0,0.0,1.5552,0.0,1.6552,0.0,1.8838,1.666,1.8092,1.9181,1.9181,1.948,1.8893,1.7034,1.6909,1.6909,1.6909,1.8688,1.8569,1.6137,1.8129,1.9471,0.0,0.0,0.0,0.0,0.0,0.0,0.0,0.0,0.0,0.0,2.3342,2.4174,2.4407,2.4511,2.5019,2.5625,2.4863,2.4023,2.3184,2.248,2.1523,2.084,2.2402,2.2988,2.3164,2.3984,2.4844,2.5371,2.4629,2.4473,2.457,2.457,2.457,2.457,2.457,2.5093,2.5432,2.4733,2.4536,2.4486,2.4479,2.397,2.373,0.0,0.0,0.0,0.0,0.0,0.0,0.0,0.0,0.0,0.0,0.0,0.0,1.7188,1.8272,1.8819,1.8213,1.9552,2.0967,2.2324,0.0,0.0,2.5264,2.5303,2.5341,2.5457,0.0,2.536,2.5457,2.5341,2.5303,2.5303,2.5303,2.5303,2.5303,2.5303,2.5303,2.5303,2.5303,2.5303,2.5303,2.5303,2.536,2.5553,2.6332,2.6736,2.7044,1.2881,1.252,1.2166,1.2166,1.2166,1.3617,1.7875,1.8849,1.8496,1.671,1.838,1.8748,1.6186,1.6261,1.6488,1.6488,1.8482,0.0,0.0,0.0,0.0,1.9132,1.9479,1.7842,1.3883,1.556,1.8249,0.0,0.0,0.0,0.0,0.0,0.0,0.0,0.0,0.0,2.164,2.3536,0.0,2.4385,2.5155,2.5566,2.5684,2.5527,2.4922,2.4141,2.4004,2.2519,2.0742,2.1777,2.2129,2.2285,2.3144,2.3965,2.4609,2.4434,2.4902,2.5469,2.5469,2.5469,2.5469,2.5469,2.5586,2.5644,2.5507,2.5468,2.5448,2.5447,2.5351,2.5293,2.5429,0.0,0.0,0.0,0.0,0.0,0.0,0.0,0.0,0.0,0.0,2.1507,1.9084,1.9545,1.9542,1.8501,1.9594,2.1094,0.0,0.0,0.0,0.0,2.5303,0.0,0.0,0.0,2.5649,2.637,2.563,2.5303,2.5303,2.5303,2.5303,2.5303,2.5303,2.5303,2.5303,2.5303,2.5303,2.5303,2.5303,2.5726,2.639,2.6544,2.7486,2.8679,1.3162,1.2881,1.3286,1.4571,1.4744,0.0,0.0,2.0047,1.9871,1.6557,1.7648,1.8231,1.6969,1.685,1.685,1.685,1.9434,2.0665,1.9747,1.969,1.9076,1.7747,1.7687,1.6679,1.4592,1.5359,1.7172,1.9976,0.0,0.0,0.0,0.0,0.0,2.3824,0.0,2.2569,0.0,0.0,0.0,2.5015,2.5478,2.5633,2.5601,2.5601,2.5052,2.4291,2.4346,2.3294,2.2025,2.289,2.2617,2.2051,2.293,2.3437,2.373,2.373,2.4336,2.5117,2.5586,2.5703,2.5703,2.5703,2.5703,2.5703,2.5703,2.5703,2.5683,2.5659,2.5658,2.5636,2.5603,2.5279,0.0,0.0,0.0,0.0,0.0,0.0,2.2916,0.0,0.0,0.0,0.0,0.0,0.0,0.0,0.0,0.0,0.0,0.0,0.0,0.0,0.0,0.0,0.0,0.0,0.0,2.5928,2.5495,2.5303,2.5303,2.5303,2.5303,2.5303,2.5303,2.5303,2.5303,2.5303,2.5572,2.5967,2.5967,2.6505,2.7313,2.7736,2.8409,2.9102,1.3382,1.3296,1.4247,1.6151,1.6879,1.733,1.774,1.9824,2.0123,1.6675,1.715,1.7811,1.7811,1.7811,1.8065,1.8707,2.094,2.1721,2.0345,2.0243,1.904,1.6354,1.6231,1.6231,1.6231,1.6231,1.6747,0.0,0.0,0.0,0.0,0.0,0.0,0.0,0.0,0.0,0.0,0.0,2.5618,2.5601,2.5601,2.5564,2.5526,2.5517,2.508,2.4501,2.4553,2.4057,2.3495,2.4373,2.3555,2.2246,2.2754,2.3125,2.334,2.3144,2.3848,2.4824,2.5508,2.5703,2.5703,2.5703,2.5703,2.5703,2.5703,2.5703,2.5683,2.5607,2.5601,2.557,2.5503,2.5554,0.0,0.0,0.0,0.0,0.0,0.0,0.0,0.0,0.0,0.0,2.0441,0.0,0.0,0.0,0.0,0.0,2.3129,0.0,0.0,0.0,0.0,2.538,2.5572,0.0,2.538,2.5572,2.538,2.5303,2.5303,2.5303,2.5303,2.5303,2.5303,2.5399,2.5572,2.5572,2.6101,2.689,2.689,2.739,2.8217,2.8871,2.9217,2.9371,1.3382,1.4663,0.0,0.0,0.0,1.9037,1.7976,1.8048,1.807,1.7669,1.7726,1.7811,1.7811,1.7811,1.8887,2.1651,2.2158,2.2225,2.2077,2.2049,2.0726,1.7729,1.7612,1.7612,1.7612,1.7612,1.7681,0.0,0.0,2.291,0.0,0.0,0.0,0.0,0.0,0.0,0.0,2.5271,2.5659,2.5601,2.5601,2.5601,2.5573,2.5511,2.545,2.5381,2.545,2.4918,2.4334,2.5252,2.4414,2.2871,2.2227,2.3066,2.4121,2.332,2.4277,2.5605,2.5684,2.5703,2.5703,2.5703,2.5703,2.5703,2.5703,2.5703,2.5683,2.5607,2.5601,2.557,2.5503,2.5554,2.5538,0.0,0.0,0.0,0.0,0.0,2.4448,2.331,0.0,0.0,2.1713,2.0605,2.0405,0.0,2.0814,0.0,0.0,0.0,0.0,2.5264,0.0,2.5668,2.6467,2.5687,2.5687,2.6467,2.5668,2.5303,2.5303,2.5303,2.5303,2.5303,2.5303,2.5755,2.6486,2.6486,2.6986,2.7775,2.7775,2.8275,2.8986,2.9063,2.9602,3.0294,0.0,0.0,0.0,0.0,0.0,0.0,0.0,1.8316,1.8475,1.7883,1.7811,1.804,1.8644,1.8699,1.9984,2.316,2.273,2.231,2.231,2.231,2.0957,1.7924,1.7811,1.7811,1.7811,1.7811,1.9288,0.0,0.0,0.0,0.0,0.0,0.0,0.0,0.0,2.5421,2.5152,2.5547,2.566,2.5601,2.5558,2.5522,2.5477,2.5413,2.5394,2.5447,2.5522,2.5347,2.5137,2.5565,2.457,2.3184,2.3359,2.3496,2.3652,2.3828,2.4375,2.5039,2.5566,2.5703,2.5703,2.5703,2.5703,2.5703,2.5703,2.5703,2.5683,2.5661,2.566,2.5607,2.5471,2.5484,2.5508,0.0,0.0,0.0,0.0,0.0,0.0,2.4094,0.0,2.3558,2.2391,2.1799,2.149,2.1552,0.0,0.0,0.0,0.0,0.0,2.5264,0.0,2.5457,2.5832,2.5476,2.5476,2.5832,2.5457,2.5303,2.5303,2.5303,2.5303,2.5322,2.5851,2.6274,2.664,2.7159,2.7871,2.8621,2.8621,2.914,2.989,2.989,3.0102,3.0398,2.0162,0.0,2.0182,0.0,2.039,2.0685,1.8565,1.9006,1.9355,1.8708,1.8606,1.8799,1.9253,1.9305,2.0611,2.3914,2.3042,2.2041,2.1458,2.1975,2.0957,1.7924,1.7811,0.0,1.8235,1.8235,2.0602,2.5427,2.4905,0.0,0.0,0.0,0.0,0.0,2.5279,2.5607,2.5703,2.5703,2.5662,2.5611,2.5558,2.5508,2.5453,2.5376,2.5383,2.5434,2.5513,2.5558,2.5605,2.5683,2.4902,2.3984,2.4297,2.4141,2.3945,2.4297,2.457,2.4922,2.5527,2.5703,2.5703,2.5703,2.5703,2.5703,2.5703,2.5703,2.5683,2.5662,2.5662,2.5627,2.5428,2.5459,2.5459,2.5331,0.0,0.0,0.0,2.4885,0.0,2.4444,2.4256,2.3891,2.3216,2.2721,2.2319,0.0,0.0,0.0,0.0,0.0,0.0,0.0,0.0,0.0,0.0,2.5303,2.5303,2.5303,2.5303,2.5303,2.5303,2.5572,2.5832,2.6101,2.6717,2.7121,2.7371,2.8005,2.8695,2.9358,2.9456,2.9971,3.0663,3.0751,3.0929,3.1141,2.2254,2.2282,2.1336,1.834,1.866,1.9311,1.9289,1.9847,2.0353,2.0542,2.0566,2.0247,1.9392,1.9305,2.0611,2.3914,2.3042,2.1458,1.9468,2.1202,2.0957,0.0,0.0,1.8275,1.9259,1.9289,2.1395,2.5703,0.0,0.0,2.4909,0.0,2.5163,2.5683,2.5683,2.5703,2.5703,2.5703,2.5703,2.5683,2.5631,2.5601,2.5595,2.5511,2.5508,2.5517,2.5567,2.5601,2.5605,2.5683,2.5684,2.5527,2.4668,2.498,2.5508,2.4648,2.5019,2.5684,2.5703,2.5703,2.5703,2.5703,2.5703,2.5703,2.5703,2.5703,2.5683,2.5607,2.5603,2.5558,2.5428,2.5446,2.5459,2.5331,0.0,0.0,0.0,0.0,0.0,2.4228,2.3671,2.3636,2.4402,2.2977,0.0,0.0,0.0,0.0,0.0,0.0,0.0,2.5284,2.5303,0.0,2.5303,2.5303,2.5303,2.5303,2.5303,2.5303,2.5322,2.6197,2.7044,2.7871,2.7871,2.8332,2.9063,2.9083,2.9449,3.0028,3.0279,3.0752,3.1321,3.1597,3.2199,3.2872,2.3405,2.1801,1.9934,1.8986,1.9471,1.9977,1.9979,2.0285,2.0529,2.0586,2.0605,2.048,2.0225,2.0049,2.0212,0.0,2.2546,2.3316,0.0,2.1132,1.9828,1.886,1.8824,1.9198,1.9952,2.2411,2.3761,2.4004,0.0,0.0,0.0,2.545,2.5531,2.5703,2.5703,2.5703,2.5703,2.5703,2.5703,2.5683,2.5633,2.5601,2.5598,2.5535,2.5535,2.5567,2.5598,2.5633,2.5662,2.5683,2.5703,2.5644,2.5371,2.5488,2.5644,2.5371,2.5488,2.5703,2.5703,2.5703,2.5703,2.5703,2.5703,2.5703,2.5703,2.5703,2.5683,2.5662,2.5662,2.5633,2.5484,2.5498,2.5459,2.5331,2.5141,0.0,0.0,0.0,2.4685,2.4607,2.4445,2.4433,2.4682,2.4222,0.0,0.0,0.0,0.0,0.0,0.0,0.0,0.0,2.6197,0.0,2.6197,2.6197,2.589,2.5303,2.5303,2.561,2.6217,2.7082,2.764,2.7928,2.8467,2.8852,2.9179,3.0371,3.0643,3.0394,3.1616,3.1892,3.1629,3.2082,3.2397,3.2641,2.293,2.12,1.9762,1.9689,2.0013,2.0292,2.0308,2.0415,2.0483,2.0483,2.0558,2.0605,2.0605,2.0483,0.0,1.9712,2.1541,2.2742,2.2742,2.0806,1.967,1.967,1.9749,2.0539,2.2139,2.4397,0.0,2.4095,2.5175,2.5703,2.5703,2.5703,2.5703,2.5703,2.5703,2.5703,2.5703,2.5703,2.5703,2.5703,2.5659,2.5636,2.5634,2.5598,2.5603,2.5636,2.5636,2.5661,2.5703,2.5703,2.5703,2.5703,2.5703,2.5703,2.5703,2.5703,2.5703,2.5703,2.5703,2.5703,2.5703,2.5703,2.5703,2.5703,2.5703,2.5703,2.5703,2.5703,2.5703,2.566,2.5511,2.5493,2.5459,2.5331,2.5141,2.501,2.501,0.0,2.4804,0.0,0.0,0.0,0.0,2.5234,2.5349,0.0,0.0,0.0,0.0,0.0,0.0,2.6563,2.6601,0.0,2.7082,2.7082,2.6813,2.6274,2.6274,2.689,2.8025,2.8255,2.8698,2.9333,2.9506,2.9775,3.016,3.1256,3.1507,3.1341,3.2462,3.2737,3.2535,3.2863,3.3249,3.3616,2.1209,2.0584,2.0525,0.0,2.0312,0.0,2.0312,2.0312,2.0312,2.0312,2.046,2.0584,2.0584,2.0584,2.0497,2.0321,0.0,0.0,0.0,2.0311,2.0306,2.0288,2.0486,2.2052,2.5236,2.5303,2.541,2.5606,2.568,2.5703,2.5703,2.5703,2.5703,2.5703,2.5703,2.5703,2.5703,2.5703,2.5703,2.5703,2.5703,2.5703,2.5703,2.5703,2.5703,2.5703,2.5703,2.5703,2.5703,2.5703,2.5703,2.5703,2.5703,2.5703,2.5703,2.5703,2.5703,2.5703,2.5703,2.5703,2.5703,2.5703,2.5703,2.5703,2.5703,2.5703,2.5703,2.5703,2.5703,2.566,2.5511,2.5493,2.5459,2.5331,2.5141,2.4991,2.5022,0.0,0.0,0.0,0.0,0.0,0.0,2.6058,2.6313,0.0,0.0,0.0,0.0,0.0,2.6928,2.6871,2.6871,2.7255,2.8063,2.8063,2.8025,2.789,2.8025,2.889,3.0379,2.9679,3.0217,3.166,3.091,3.1006,3.1718,3.1833,3.2166,3.2649,3.2974,3.3393,3.3818,3.3881,3.4565,3.5432,0.0,0.0,2.036,2.0308,2.0312,2.0312,2.0312,2.0312,2.0312,2.0312,2.0334,2.0365,2.0365,2.0365,2.0355,2.0297,2.0448,2.0529,2.0529,2.0529,2.0469,2.0309,2.0341,2.1924,2.5236,2.5303,2.5415,2.5681,2.5683,2.5703,2.5703,2.5703,2.5703,2.5703,2.5703,2.5703,2.5703,2.5703,2.5703,2.5703,2.5703,2.5703,2.5703,2.5703,2.5703,2.5703,2.5703,2.5703,2.5703,2.5703,2.5703,2.5703,2.5703,2.5703,2.5703,2.5703,2.5703,2.5703,2.5703,2.5703,2.5703,2.5703,2.5703,2.5703,2.5703,2.5703,2.5703,2.5703,2.5703,2.566,2.5511,2.5493,2.5459,2.5331,2.5141,2.5046,2.5214,2.5685,0.0,0.0,2.688,2.7294,2.7294,2.6863,2.7044,0.0,0.0,0.0,0.0,2.9775,3.0198,2.9525,2.9506,2.9602,2.9813,2.9813,2.9179,2.7909,2.9198,3.0025,3.0436,3.1506,3.1891,3.1718,3.2141,3.2083,3.1795,3.3083,3.3288,3.2974,3.4359,3.4576,3.4169,3.4617,3.4966,3.519,2.2437,2.2079,2.218,2.2537,2.1331,2.0831,2.2342,2.2592,2.2034,2.0504,2.0312,2.0312,2.0312,2.1669,2.2592,2.2592,2.1272,2.1119,2.2643,2.276,2.2025,2.0377,2.1765,2.3438,2.5264,2.5303,2.5379,2.5522,2.5636,2.5703,2.5703,2.5703,2.5703,2.5703,2.5703,2.5703,2.5703,2.5703,2.5703,2.5703,2.5703,2.5703,2.5703,2.5703,2.5703,2.5703,2.5703,2.5703,2.5703,2.5703,2.5703,2.5703,2.5703,2.5703,2.5703,2.5703,2.5703,2.5703,2.5703,2.5703,2.5703,2.5703,2.5703,2.5703,2.5703,2.6016,2.6289,2.6289,2.6268,2.6216,2.6115,2.574,2.5415,2.5322,2.5214,2.5329,2.5858,2.629,0.0,2.7285,2.8066,2.8551,2.8551,2.8415,2.8717,2.9621,2.9698,0.0,3.0275,3.1198,3.1295,3.0417,3.0794,3.1179,3.1545,3.1545,3.1083,3.0198,3.1102,3.1756,3.216,3.2679,3.2872,3.2833,3.2872,3.2872,3.291,3.3814,3.416,3.418,3.5141,3.5144,3.4638,3.4845,3.4999,3.5088,2.419,2.4303,2.4556,2.5182,2.2938,2.2015,2.4861,2.5303,2.4284,2.1419,2.1054,2.1054,2.1054,2.3592,2.5303,2.5303,2.2688,2.2053,2.438,2.5014,2.4034,2.1177,2.3784,2.5303,2.5303,2.5303,2.5303,2.5303,2.5543,2.5662,2.5683,2.5703,2.5703,2.5703,2.5703,2.5703,2.5703,2.5703,2.5703,2.5703,2.5703,2.5703,2.5703,2.5703,2.5703,2.5703,2.5703,2.5703,2.5703,2.5703,2.5703,2.5703,2.5703,2.5703,2.5703,2.5703,2.5703,2.5703,2.5703,2.5703,2.5703,2.5703,2.5703,2.5703,2.5703,2.6367,2.6992,2.6992,2.7044,2.7036,2.6836,2.6139,2.5569,2.5505,2.5495,2.585,2.6769,0.0,2.7614,2.8418,2.926,2.9796,2.9796,3.0278,3.0698,3.0948,3.0852,3.116,3.2025,3.2199,3.1872,3.1006,3.1698,3.241,3.3083,3.2968,3.2891,3.2891,3.3026,3.3487,3.418,3.3564,3.3622,3.416,3.3564,3.3641,3.4218,3.4468,3.5007,3.5699,3.5834,3.5641,3.5278,3.523,3.5229,3.5278,2.419,2.4693,2.5171,2.5274,2.4861,2.4688,2.5226,2.5303,2.5111,2.4591,2.4514,2.4514,2.4514,2.4995,2.5303,2.5303,2.4822,2.3534,2.1235,2.3726,2.5072,2.4553,2.5014,2.5303,2.5303,2.5303,2.5303,2.5303,2.5466,2.5565,2.5629,2.5662,2.5703,2.5703,2.5703,2.5703,2.5703,2.5703,2.5703,2.5703,2.5703,2.5703,2.5703,2.5703,2.5703,2.5703,2.5703,2.5703,2.5703,2.5703,2.5703,2.5703,2.5703,2.5703,2.5703,2.5703,2.5703,2.5703,2.5703,2.5703,2.5703,2.5703,2.5703,2.5703,2.5703,2.6367,2.6992,2.6992,2.7531,2.7755,2.6952,2.6638,2.6489,2.641,2.6446,2.6792,2.766,0.0,3.0222,3.0364,3.1675,3.2571,3.2571,3.1922,3.2083,3.3506,3.2929,3.2891,3.3757,3.4507,3.4507,3.3641,3.3737,3.3872,3.3987,3.3276,3.2891,3.291,3.3641,3.4064,3.4218,3.4814,3.4776,3.4218,3.4834,3.4757,3.4314,3.5738,3.6392,3.6603,3.7315,3.7003,3.6245,3.7159,3.69,3.6245,2.4795,2.5072,2.5171,2.478,2.4708,2.4708,2.4708,2.5049,2.5303,2.5303,2.5303,2.5303,2.5303,2.5303,2.5303,2.5303,2.5303,2.463,2.3092,2.4438,2.5303,2.5303,2.5303,2.5303,2.5303,2.5303,2.5303,2.5303,2.5427,2.5522,2.5551,2.5659,2.5703,2.5703,2.5703,2.5703,2.5703,2.5703,2.5703,2.5703,2.5703,2.5703,2.5703,2.5703,2.5703,2.5703,2.5703,2.5703,2.5703,2.5703,2.5703,2.5703,2.5703,2.5703,2.5703,2.5703,2.5703,2.5703,2.5703,2.5703,2.5703,2.5703,2.6055,2.6406,2.6406,2.7441,2.8398,2.8398,2.8633,2.8719,2.8286,2.7353,2.6968,2.7902,2.7287,0.0,0.0,3.0544,3.1157,3.2085,3.3246,3.3935,3.3894,3.3422,3.3604,3.4795,3.366,3.3487,3.4834,3.5276,3.5507,3.5545,3.5122,3.5103,3.5545,3.4718,3.4295,3.4314,3.4718,3.5122,3.5565,3.5968,3.618,3.6276,3.668,3.6622,3.6315,3.7084,3.7411,3.745,3.7834,3.7578,3.7066,3.7589,3.7441,3.7085,2.5049,2.5049,2.4864,2.4303,2.419,2.419,2.419,2.4823,2.5303,2.5303,2.5303,2.5243,2.5061,2.5192,2.5303,2.5303,2.5303,2.5303,2.5303,2.5303,2.5303,2.5303,2.5303,2.5303,2.5303,2.5303,2.5303,2.5303,2.5434,2.5517,2.5526,2.5637,2.5703,2.5703,2.5703,2.5703,2.5703,2.5703,2.5703,2.5703,2.5703,2.5703,2.5703,2.5703,2.5703,2.5703,2.5703,2.5703,2.5703,2.5703,2.5703,2.5703,2.5703,2.5703,2.5703,2.5703,2.5703,2.5703,2.5703,2.5703,2.5742,2.5957,2.6504,2.7051,2.7266,2.8496,2.9609,2.9609,2.9821,2.9956,2.9762,2.8546,2.8075,2.9644,0.0,0.0,0.0,3.1997,3.2201,3.3535,3.44,3.4889,3.484,3.4686,3.4949,3.5766,3.4571,3.4468,3.6007,3.6084,3.6469,3.7276,3.6315,3.618,3.6988,3.6199,3.5892,3.6084,3.6084,3.6411,3.7007,3.7007,3.7373,3.8007,3.8007,3.8007,3.8027,3.8219,3.8296,3.8315,3.8507,3.8303,3.7925,3.8169,3.8113,3.7944,2.4284,2.4284,2.4266,2.4209,2.419,2.419,2.419,2.4823,2.5303,2.5303,2.5303,2.5049,2.4357,2.4891,2.5303,2.5303,2.5303,2.5303,2.5303,2.5303,2.5303,2.5303,2.5303,2.5303,2.5303,2.5303,2.5303,2.5303,2.5434,2.5531,2.56,2.5679,2.5703,2.5703,2.5703,2.5703,2.5703,2.5703,2.5703,2.5703,2.5703,2.5703,2.5703,2.5703,2.5703,2.5703,2.5703,2.5703,2.5703,2.5703,2.5703,2.5703,2.5703,2.5703,2.5703,2.5703,2.5703,2.5703,2.5703,2.5703,2.5898,2.6699,2.6953,2.7207,2.8027,2.8926,2.9609,2.9609,3.0772,3.1571,3.0836,3.052,3.0689,3.1571,0.0,0.0,3.2963,3.3901,3.4453,3.459,3.532,3.5802,3.5798,3.5628,3.5852,3.6732,3.6563,3.6834,3.7777,3.7815,3.82,3.9084,3.7488,3.7026,3.7892,3.7046,3.7026,3.7815,3.7815,3.7853,3.7892,3.7892,3.795,3.8007,3.8007,3.8007,3.8065,3.8873,3.92,3.9277,4.0008,3.9704,3.8916,3.9909,3.9648,3.8954,2.419,2.419,2.419,2.419,2.4572,2.4877,2.4877,2.5107,2.5303,2.5303,2.4904,2.451,2.4228,2.4864,2.5303,2.5303,2.5303,2.5303,2.5303,2.5303,2.5303,2.5303,2.5303,2.5303,2.5303,2.5303,2.5303,2.5303,2.5522,2.5622,2.5603,2.568,2.5703,2.5703,2.5703,2.5703,2.5703,2.5703,2.5703,2.5703,2.5703,2.5703,2.5703,2.5703,2.5703,2.5703,2.5703,2.5703,2.5703,2.5703,2.5703,2.5781,2.6348,2.6504,2.6504,2.6504,2.6894,2.707,2.5996,2.6094,2.6719,2.7598,2.8613,2.9512,2.9844,3.0586,3.1211,3.1211,3.1633,3.2065,3.2302,3.1854,3.1904,3.3349,0.0,3.3151,3.5465,3.5624,3.5703,3.625,3.6111,3.5947,3.5903,3.5762,3.6006,3.6831,3.6775,3.7084,3.795,3.8507,3.9181,4.0008,3.8911,3.8469,3.8796,3.795,3.768,3.8007,3.8007,3.8277,3.8815,3.8815,3.9084,3.9546,3.9546,3.9546,3.9585,3.9912,4.0027,4.0065,4.0373,4.0246,3.9972,4.0709,4.075,4.052,2.419,2.419,2.4266,2.4491,2.4956,2.5303,2.5303,2.5303,2.5303,2.5303,2.4864,2.4559,2.4559,2.5012,2.5303,2.5303,2.5303,2.5303,2.5303,2.5303,2.5303,2.5303,2.5303,2.5303,2.5303,2.5303,2.5303,2.5303,2.5564,2.5681,2.5625,2.5681,2.5703,2.5703,2.5703,2.5703,2.5703,2.5703,2.5703,2.5703,2.5703,2.5703,2.5703,2.5703,2.5703,2.5703,2.5703,2.5703,2.5703,2.5703,2.5703,2.5859,2.6738,2.7187,2.7402,2.7402,2.7832,2.8047,2.6836,2.7148,2.7969,2.8555,2.9609,3.0703,3.1504,3.1953,3.2266,3.2519,3.2711,3.3035,3.3621,3.3214,3.3285,3.4791,3.4541,3.4897,3.6992,3.7012,3.6934,3.7266,3.6777,3.6288,3.5962,3.6036,3.6445,3.7279,3.7437,3.8007,3.9123,3.9758,4.045,4.1277,4.0777,4.0489,4.0489,3.9104,3.8546,3.8796,3.8796,3.9104,3.9681,3.9681,4.0123,4.0893,4.0623,4.0662,4.0893,4.0604,4.0489,4.0489,4.0489,4.0457,4.0452,4.1074,4.1239,4.125,2.419,2.419,2.4444,2.5171,2.5303,2.5303,2.5303,2.5303,2.5303,2.5303,2.5303,2.5303,2.5303,2.5303,2.5303,2.5303,2.5303,2.5303,2.5303,2.5303,2.5303,2.5303,2.5303,2.5303,2.5303,2.5303,2.5313,2.5293,2.5564,2.5703,2.5703,2.5703,2.5703,2.5703,2.5703,2.5703,2.5703,2.5703,2.5703,2.5703,2.5703,2.5703,2.5703,2.5703,2.5703,2.5703,2.5703,2.5703,2.5703,2.5703,2.5703,2.5859,2.6738,2.7617,2.832,2.8301,2.832,2.832,2.8301,2.8945,2.9629,2.9609,2.9629,3.0293,3.2812,3.2793,3.2441,3.3242,3.4101,3.4707,3.4726,3.4726,3.5019,3.5879,3.6016,3.6328,3.7187,3.8066,3.8281,3.7422,3.7305,3.6973,3.6094,3.6621,3.7381,3.8249,3.8948,4.0046,4.172,4.1816,4.222,4.3066,4.3104,4.3104,4.3104,4.0585,3.9719,4.0508,4.0508,4.0508,4.0508,4.0508,4.0989,4.1758,4.0893,4.1008,4.1739,4.0873,4.0508,4.0508,4.0508,4.0339,4.0215,4.1015,4.1111,4.0928,2.419,2.462,2.5049,2.5264,2.5303,2.5303,2.5303,2.5303,2.5303,2.5303,2.5303,2.5303,2.5303,2.5303,2.5303,2.5303,2.5303,2.5303,2.5303,2.5303,2.5303,2.5303,2.5303,2.5303,2.5303,2.5303,2.5391,2.557,2.566,2.5703,2.5703,2.5703,2.5703,2.5703,2.5703,2.5703,2.5703,2.5703,2.5703,2.5703,2.5703,2.5703,2.5703,2.5703,2.5703,2.5703,2.5703,2.5703,2.5781,2.6406,2.6602,2.6875,2.8359,2.9414,3.0,2.9394,2.9648,2.9863,2.8633,2.9824,3.1289,3.0664,3.1406,3.2461,3.3223,3.3691,3.4023,3.4258,3.5019,3.5801,3.6406,3.7012,3.7324,3.6973,3.7949,3.8573,3.8127,3.8827,3.9276,3.9002,3.8436,3.7968,3.7714,3.7829,3.8233,3.9004,4.0298,4.1546,4.2643,4.272,4.2835,4.3085,4.3104,4.3104,4.3104,4.2354,4.1777,4.1412,4.2027,4.2008,4.1431,4.2047,4.247,4.2701,4.2431,4.247,4.2643,4.1777,4.1777,4.22,4.0969,4.1207,4.2197,4.2163,4.2306,4.2687,2.4636,2.4981,2.5303,2.5303,2.5303,2.5303,2.5303,2.5303,2.5303,2.5303,2.5303,2.5303,2.5303,2.5303,2.5303,2.5303,2.5303,2.5303,2.5303,2.5303,2.5303,2.5303,2.5303,2.5303,2.5303,2.5406,2.5539,2.5703,2.5703,2.5703,2.5703,2.5703,2.5703,2.5703,2.5703,2.5703,2.5703,2.5703,2.5703,2.5703,2.5703,2.5703,2.5703,2.5703,2.5703,2.5703,2.5703,2.5703,2.582,2.6719,2.7461,2.8203,2.9236,3.0385,3.1223,3.0665,3.1131,3.1577,3.0523,3.1411,3.2513,3.1986,3.2635,3.3574,3.4277,3.4844,3.5312,3.5664,3.6426,3.7187,3.7715,3.8242,3.8437,3.7891,3.8984,3.9666,3.9009,3.9665,4.0086,3.9711,3.9223,3.8787,3.8436,3.8678,3.9303,4.0355,4.1615,4.2681,4.3528,4.3566,4.372,4.4085,4.4085,4.4085,4.4085,4.4085,4.3489,4.2316,4.2854,4.2816,4.2335,4.2854,4.3278,4.3566,4.3239,4.3278,4.3508,4.2662,4.2624,4.3008,4.1931,4.2093,4.2927,4.2983,4.3033,4.3219,2.5764,2.5514,2.5303,2.5303,2.5303,2.5303,2.5303,2.5303,2.5303,2.5303,2.5303,2.5303,2.5303,2.5303,2.5303,2.5303,2.5303,2.5303,2.5303,2.5303,2.5303,2.5303,2.5303,2.5313,2.533,2.5587,2.5703,2.5703,2.5703,2.5703,2.5703,2.5703,2.5703,2.5703,2.5703,2.5703,2.5703,2.5703,2.5703,2.5703,2.5703,2.5742,2.582,2.582,2.5859,2.5937,2.5937,2.5937,2.6074,2.6934,2.834,2.9726,2.9728,3.0765,3.2003,3.2018,3.2578,3.32,3.3206,3.3317,3.3418,3.3425,3.3586,3.4141,3.5664,3.6055,3.6367,3.7246,3.8105,3.8711,3.8711,3.8789,3.8809,3.873,3.9453,3.9939,3.9728,4.0442,4.0652,3.9793,3.9825,3.9594,3.8818,3.9516,4.0623,4.211,4.283,4.3566,4.4374,4.4412,4.4778,4.5566,4.5586,4.5586,4.5586,4.5586,4.4778,4.3201,4.3297,4.3278,4.3201,4.3297,4.372,4.4374,4.3643,4.3739,4.4355,4.3547,4.3258,4.3316,4.3162,4.3003,4.2946,4.3613,4.3478,4.309,2.9283,2.7129,2.5303,2.5303,2.5303,2.5303,2.5303,2.5303,2.5303,2.5303,2.5303,2.5303,2.5303,2.5303,2.5303,2.5303,2.5303,2.5303,2.5303,2.5303,2.5303,2.5303,2.5303,2.5398,2.5605,2.5662,2.5703,2.5703,2.5703,2.5703,2.5703,2.5703,2.5703,2.5703,2.5703,2.5703,2.5703,2.5703,2.5703,2.5703,2.5703,2.6113,2.6719,2.6719,2.7148,2.7734,2.7734,2.7734,2.7871,2.873,2.9746,3.0722,3.1284,3.1718,3.2116,3.2733,3.3038,3.3213,3.3254,3.3782,3.4326,3.4371,3.5429,3.6367,3.6074,3.6523,3.7266,3.8144,3.9004,3.9629,3.9629,4.0176,4.041,3.9726,4.0351,4.0619,3.974,4.0324,4.0754,4.0488,4.108,4.1451,4.131,4.1984,4.2865,4.3892,4.4021,4.4412,4.5259,4.5316,4.5393,4.5586,4.5586,4.5586,4.5586,4.5586,4.5066,4.4047,4.472,4.4701,4.4066,4.4739,4.5143,4.5297,4.5124,4.5163,4.524,4.4393,4.4432,4.4932,4.3605,4.3876,4.488,4.4381,4.4362,4.454,3.0299,2.7648,2.5303,2.5303,2.5303,2.5303,2.5303,2.5303,2.5303,2.5303,2.5303,2.5303,2.5303,2.5303,2.5303,2.5303,2.5303,2.5303,2.5303,2.5303,2.5303,2.5303,2.5303,2.5441,2.5683,2.5703,2.5703,2.5703,2.5703,2.5703,2.5703,2.5703,2.5703,2.5703,2.5703,2.5703,2.5703,2.5703,2.5703,2.5742,2.6289,2.6777,2.7226,2.7519,2.7891,2.8301,2.8301,2.8574,2.9043,2.9922,3.0801,3.166,3.2383,3.2877,3.3268,3.3631,3.4026,3.4345,3.4379,3.5095,3.5848,3.5886,3.6912,3.7695,3.6816,3.7617,3.8672,3.9121,3.9902,4.0644,4.1016,4.1152,4.1172,4.1094,4.1484,4.1398,4.0317,4.1241,4.184,4.128,4.2015,4.2643,4.2806,4.348,4.4111,4.4547,4.48,4.5124,4.5566,4.5586,4.5586,4.5586,4.5586,4.5586,4.5586,4.5586,4.5355,4.4932,4.5374,4.5355,4.4932,4.5393,4.5586,4.5586,4.5586,4.5586,4.5547,4.5105,4.5182,4.5509,4.4624,4.4816,4.5528,4.5086,4.5017,4.5011,3.026,2.7648,2.5303,2.5303,2.5303,2.5303,2.5303,2.5303,2.5303,2.5303,2.5303,2.5303,2.5303,2.5303,2.5534,2.611,2.6168,2.6168,2.6168,2.6168,2.6168,2.6168,2.6234,2.6085,2.5703,2.5703,2.5703,2.5703,2.5703,2.5703,2.5703,2.5703,2.5703,2.5703,2.5703,2.5801,2.5996,2.6094,2.6133,2.623,2.7168,2.7637,2.7832,2.832,2.8613,2.873,2.873,2.9219,2.9961,3.082,3.1601,3.2343,3.3244,3.3984,3.451,3.4506,3.503,3.563,3.5785,3.6487,3.7203,3.7367,3.8116,3.8633,3.791,3.8867,3.998,4.0273,4.0898,4.1641,4.2461,4.207,4.1855,4.2519,4.2617,4.229,4.1369,4.2477,4.3031,4.2133,4.285,4.3566,4.3949,4.453,4.4898,4.4898,4.5376,4.5648,4.5635,4.5635,4.5618,4.5586,4.5586,4.5586,4.5586,4.5586,4.5586,4.5586,4.5586,4.5586,4.5586,4.5586,4.5586,4.5586,4.5586,4.5586,4.5586,4.5586,4.5586,4.5586,4.5586,4.5586,4.5586,4.5586,4.5419,4.514,3.0386,2.7648,2.5303,2.5303,2.5303,2.5303,2.5303,2.5303,2.5303,2.5303,2.5303,2.5303,2.5303,2.5303,2.6495,2.9437,2.9706,2.9706,2.9706,2.9706,2.9706,2.9706,2.999,2.8747,2.5762,2.5703,2.5703,2.5703,2.5703,2.5703,2.5703,2.5703,2.5703,2.5703,2.5703,2.625,2.7207,2.7734,2.7949,2.7969,2.8125,2.8633,2.9316,2.9394,2.9883,3.0547,3.0547,3.0625,3.0859,3.1738,3.2109,3.246,3.3941,3.4491,3.4696,3.5271,3.5514,3.5766,3.6521,3.6867,3.7227,3.8034,3.8995,3.9687,3.957,3.9726,4.0312,4.1758,4.2168,4.25,4.3379,4.3437,4.3398,4.3516,4.3486,4.3344,4.3094,4.3149,4.315,4.2964,4.3752,4.464,4.5433,4.5648,4.5743,4.5743,4.5813,4.5839,4.5769,4.5769,4.5723,4.5603,4.5586,4.5586,4.5586,4.5586,4.5586,4.5586,4.5586,4.5586,4.5586,4.5586,4.5586,4.5586,4.5586,4.5586,4.5586,4.5586,4.5586,4.5586,4.5586,4.5586,4.5586,4.5586,4.5568,4.5495,3.0398,2.7648,2.5303,2.5303,2.5303,2.5303,2.5303,2.5303,2.5995,2.7898,2.8148,2.8148,2.8148,2.8148,2.8764,3.0263,3.0398,3.0398,3.0398,3.0398,3.0398,3.0398,2.886,2.8184,2.8594,2.8594,2.8594,2.8594,2.6641,2.6699,2.8555,2.6602,2.6738,2.8594,2.8594,2.834,2.7949,2.8555,2.8767,2.8713,2.8895,2.921,2.9659,3.0577,3.1228,3.1699,3.2148,3.2012,3.1836,3.3144,3.3594,3.3808,3.4996,3.5355,3.5474,3.618,3.6384,3.655,3.7345,3.8019,3.8605,3.9017,4.0225,4.1308,4.1308,4.168,4.209,4.2344,4.2793,4.3398,4.4277,4.4023,4.3827,4.4247,4.4286,4.4039,4.3384,4.4071,4.4606,4.4523,4.4931,4.5389,4.5811,4.5891,4.5924,4.6021,4.5932,4.5862,4.5809,4.5796,4.5733,4.5603,4.5586,4.5586,4.5586,4.5586,4.5586,4.5586,4.5586,4.5586,4.5586,4.5586,4.5586,4.5586,4.5586,4.5586,4.5586,4.5586,4.5586,4.5586,4.5586,4.5586,4.5586,4.5586,4.5586,4.5586]}]]